<?xml version="1.0" encoding="UTF-8" standalone="no" ?>
<gpx xmlns="http://www.topografix.com/GPX/1/1" xmlns:xsi="http://www.w3.org/2001/XMLSchema-instance" xsi:schemaLocation="http://www.topografix.com/GPX/1/1 http://www.topografix.com/GPX/1/1/gpx.xsd" version="1.1" creator="VisuGPX - https://www.visugpx.com">
  <metadata>
    <name>241_Circuit 62 km Les Herbiers_Les Herbiers édité par cth85.com</name>
    <desc><![CDATA[Circuit de 79 km passant par:
Les Herbiers
Saint Paul en Pareds
carrefour de la débuterie
Le Boupère
La Meilleraie Tillay
Réaumur parle puy Germon
Saint Pierre du Chemin
Menomblet
Montournais
Pouzauges
Saint Michel Mt Mercure 
Les Herbiers]]></desc>
  </metadata>
  <trk>
    <name><![CDATA[62_241_cth85.com]]></name>
    <extensions>
      <line xmlns="http://www.topografix.com/GPX/gpx_style/0/2">
        <color>0000FF</color>
        <width>4</width>
      </line>
    </extensions>
    <trkseg>
      <trkpt lat="46.86364" lon="-1.00584">
        <ele>119.1</ele>
        <time>2025-03-07T19:40:11.000Z</time>
      </trkpt>
      <trkpt lat="46.86326" lon="-1.00624">
        <ele>118.2</ele>
        <time>2025-03-07T19:40:17.111Z</time>
      </trkpt>
      <trkpt lat="46.86324" lon="-1.00626">
        <ele>118.2</ele>
        <time>2025-03-07T19:40:17.486Z</time>
      </trkpt>
      <trkpt lat="46.86272" lon="-1.00663">
        <ele>117.5</ele>
        <time>2025-03-07T19:40:25.509Z</time>
      </trkpt>
      <trkpt lat="46.86236" lon="-1.0068">
        <ele>116.2</ele>
        <time>2025-03-07T19:40:29.886Z</time>
      </trkpt>
      <trkpt lat="46.86192" lon="-1.007">
        <ele>115.4</ele>
        <time>2025-03-07T19:40:35.995Z</time>
      </trkpt>
      <trkpt lat="46.86183" lon="-1.00704">
        <ele>115.5</ele>
        <time>2025-03-07T19:40:37.614Z</time>
      </trkpt>
      <trkpt lat="46.86142" lon="-1.00728">
        <ele>115.3</ele>
        <time>2025-03-07T19:40:44.173Z</time>
      </trkpt>
      <trkpt lat="46.86095" lon="-1.00767">
        <ele>114.7</ele>
        <time>2025-03-07T19:40:51.737Z</time>
      </trkpt>
      <trkpt lat="46.86072" lon="-1.00793">
        <ele>114</ele>
        <time>2025-03-07T19:40:55.382Z</time>
      </trkpt>
      <trkpt lat="46.86" lon="-1.00891">
        <ele>113</ele>
        <time>2025-03-07T19:41:09.264Z</time>
      </trkpt>
      <trkpt lat="46.85985" lon="-1.00915">
        <ele>113</ele>
        <time>2025-03-07T19:41:12.709Z</time>
      </trkpt>
      <trkpt lat="46.85957" lon="-1.00964">
        <ele>112.8</ele>
        <time>2025-03-07T19:41:19.192Z</time>
      </trkpt>
      <trkpt lat="46.85951" lon="-1.00979">
        <ele>113</ele>
        <time>2025-03-07T19:41:21.373Z</time>
      </trkpt>
      <trkpt lat="46.85886" lon="-1.00948">
        <ele>112.9</ele>
        <time>2025-03-07T19:41:31.822Z</time>
      </trkpt>
      <trkpt lat="46.85872" lon="-1.00944">
        <ele>112.4</ele>
        <time>2025-03-07T19:41:33.464Z</time>
      </trkpt>
      <trkpt lat="46.85858" lon="-1.00941">
        <ele>112</ele>
        <time>2025-03-07T19:41:35.180Z</time>
      </trkpt>
      <trkpt lat="46.85855" lon="-1.00943">
        <ele>112</ele>
        <time>2025-03-07T19:41:35.691Z</time>
      </trkpt>
      <trkpt lat="46.85846" lon="-1.00942">
        <ele>112</ele>
        <time>2025-03-07T19:41:37.090Z</time>
      </trkpt>
      <trkpt lat="46.8584" lon="-1.00934">
        <ele>112</ele>
        <time>2025-03-07T19:41:38.348Z</time>
      </trkpt>
      <trkpt lat="46.85838" lon="-1.00928">
        <ele>112</ele>
        <time>2025-03-07T19:41:39.055Z</time>
      </trkpt>
      <trkpt lat="46.85832" lon="-1.00918">
        <ele>112</ele>
        <time>2025-03-07T19:41:40.465Z</time>
      </trkpt>
      <trkpt lat="46.85825" lon="-1.00912">
        <ele>112</ele>
        <time>2025-03-07T19:41:41.722Z</time>
      </trkpt>
      <trkpt lat="46.85817" lon="-1.00904">
        <ele>112</ele>
        <time>2025-03-07T19:41:43.224Z</time>
      </trkpt>
      <trkpt lat="46.8579" lon="-1.00886">
        <ele>112</ele>
        <time>2025-03-07T19:41:47.823Z</time>
      </trkpt>
      <trkpt lat="46.85771" lon="-1.00876">
        <ele>112</ele>
        <time>2025-03-07T19:41:50.952Z</time>
        <extensions>
          <visugpx:TrkExtension xmlns:visugpx="https://www.visugpx.com/editgpx/">
            <visugpx:node>1</visugpx:node>
            </visugpx:TrkExtension>
        </extensions>
      </trkpt>
      <trkpt lat="46.85764" lon="-1.00872">
        <ele>112</ele>
        <time>2025-03-07T19:41:52.117Z</time>
      </trkpt>
      <trkpt lat="46.85748" lon="-1.00862">
        <ele>112</ele>
        <time>2025-03-07T19:41:54.813Z</time>
      </trkpt>
      <trkpt lat="46.85714" lon="-1.00843">
        <ele>111.8</ele>
        <time>2025-03-07T19:42:00.172Z</time>
      </trkpt>
      <trkpt lat="46.8569" lon="-1.00829">
        <ele>111</ele>
        <time>2025-03-07T19:42:03.240Z</time>
      </trkpt>
      <trkpt lat="46.85677" lon="-1.00817">
        <ele>111</ele>
        <time>2025-03-07T19:42:05.623Z</time>
      </trkpt>
      <trkpt lat="46.8564" lon="-1.00782">
        <ele>110</ele>
        <time>2025-03-07T19:42:11.211Z</time>
      </trkpt>
      <trkpt lat="46.85635" lon="-1.00777">
        <ele>110</ele>
        <time>2025-03-07T19:42:12.150Z</time>
      </trkpt>
      <trkpt lat="46.85562" lon="-1.00711">
        <ele>108.7</ele>
        <time>2025-03-07T19:42:23.746Z</time>
      </trkpt>
      <trkpt lat="46.85539" lon="-1.00693">
        <ele>108</ele>
        <time>2025-03-07T19:42:26.946Z</time>
      </trkpt>
      <trkpt lat="46.85509" lon="-1.00673">
        <ele>107.3</ele>
        <time>2025-03-07T19:42:31.178Z</time>
      </trkpt>
      <trkpt lat="46.85483" lon="-1.00654">
        <ele>107</ele>
        <time>2025-03-07T19:42:35.275Z</time>
      </trkpt>
      <trkpt lat="46.85461" lon="-1.0064">
        <ele>107</ele>
        <time>2025-03-07T19:42:38.993Z</time>
      </trkpt>
      <trkpt lat="46.85421" lon="-1.00623">
        <ele>106.9</ele>
        <time>2025-03-07T19:42:45.304Z</time>
      </trkpt>
      <trkpt lat="46.85372" lon="-1.00602">
        <ele>107.7</ele>
        <time>2025-03-07T19:42:54.560Z</time>
      </trkpt>
      <trkpt lat="46.8534" lon="-1.00587">
        <ele>108.1</ele>
        <time>2025-03-07T19:43:00.417Z</time>
      </trkpt>
      <trkpt lat="46.85283" lon="-1.00569">
        <ele>109</ele>
        <time>2025-03-07T19:43:10.962Z</time>
      </trkpt>
      <trkpt lat="46.85268" lon="-1.00561">
        <ele>108.6</ele>
        <time>2025-03-07T19:43:12.948Z</time>
      </trkpt>
      <trkpt lat="46.85261" lon="-1.00555">
        <ele>108.4</ele>
        <time>2025-03-07T19:43:13.961Z</time>
      </trkpt>
      <trkpt lat="46.85241" lon="-1.0054">
        <ele>108</ele>
        <time>2025-03-07T19:43:16.930Z</time>
      </trkpt>
      <trkpt lat="46.85196" lon="-1.00507">
        <ele>108</ele>
        <time>2025-03-07T19:43:24.732Z</time>
      </trkpt>
      <trkpt lat="46.85193" lon="-1.00505">
        <ele>108.1</ele>
        <time>2025-03-07T19:43:25.434Z</time>
      </trkpt>
      <trkpt lat="46.85133" lon="-1.0046">
        <ele>109.6</ele>
        <time>2025-03-07T19:43:38.551Z</time>
      </trkpt>
      <trkpt lat="46.85102" lon="-1.00439">
        <ele>110.5</ele>
        <time>2025-03-07T19:43:45.505Z</time>
      </trkpt>
      <trkpt lat="46.85078" lon="-1.00423">
        <ele>111</ele>
        <time>2025-03-07T19:43:50.457Z</time>
      </trkpt>
      <trkpt lat="46.85043" lon="-1.00401">
        <ele>111.6</ele>
        <time>2025-03-07T19:43:57.368Z</time>
      </trkpt>
      <trkpt lat="46.85026" lon="-1.00397">
        <ele>112.3</ele>
        <time>2025-03-07T19:44:01.512Z</time>
      </trkpt>
      <trkpt lat="46.85013" lon="-1.00393">
        <ele>112.6</ele>
        <time>2025-03-07T19:44:04.105Z</time>
        <extensions>
          <visugpx:TrkExtension xmlns:visugpx="https://www.visugpx.com/editgpx/">
            <visugpx:node>2</visugpx:node>
            </visugpx:TrkExtension>
        </extensions>
      </trkpt>
      <trkpt lat="46.84996" lon="-1.00389">
        <ele>113.1</ele>
        <time>2025-03-07T19:44:07.719Z</time>
        <extensions>
          <visugpx:TrkExtension xmlns:visugpx="https://www.visugpx.com/editgpx/">
            <visugpx:node>3</visugpx:node>
            </visugpx:TrkExtension>
        </extensions>
      </trkpt>
      <trkpt lat="46.84996" lon="-1.00389">
        <ele>113.1</ele>
        <time>2025-03-07T19:44:07.719Z</time>
        <extensions>
          <visugpx:TrkExtension xmlns:visugpx="https://www.visugpx.com/editgpx/">
            <visugpx:node>4</visugpx:node>
            </visugpx:TrkExtension>
        </extensions>
      </trkpt>
      <trkpt lat="46.84996" lon="-1.00386">
        <ele>113.2</ele>
        <time>2025-03-07T19:44:08.265Z</time>
      </trkpt>
      <trkpt lat="46.84957" lon="-1.00379">
        <ele>114.4</ele>
        <time>2025-03-07T19:44:16.653Z</time>
      </trkpt>
      <trkpt lat="46.84939" lon="-1.00377">
        <ele>114.5</ele>
        <time>2025-03-07T19:44:19.605Z</time>
      </trkpt>
      <trkpt lat="46.84906" lon="-1.00377">
        <ele>115</ele>
        <time>2025-03-07T19:44:25.555Z</time>
      </trkpt>
      <trkpt lat="46.84879" lon="-1.00378">
        <ele>115.1</ele>
        <time>2025-03-07T19:44:29.892Z</time>
      </trkpt>
      <trkpt lat="46.84859" lon="-1.00381">
        <ele>115.3</ele>
        <time>2025-03-07T19:44:33.327Z</time>
      </trkpt>
      <trkpt lat="46.8484" lon="-1.00385">
        <ele>115.8</ele>
        <time>2025-03-07T19:44:37.222Z</time>
      </trkpt>
      <trkpt lat="46.84828" lon="-1.00388">
        <ele>116</ele>
        <time>2025-03-07T19:44:39.446Z</time>
      </trkpt>
      <trkpt lat="46.84804" lon="-1.00395">
        <ele>116</ele>
        <time>2025-03-07T19:44:43.239Z</time>
      </trkpt>
      <trkpt lat="46.8478" lon="-1.00403">
        <ele>116</ele>
        <time>2025-03-07T19:44:47.054Z</time>
      </trkpt>
      <trkpt lat="46.84768" lon="-1.00407">
        <ele>116</ele>
        <time>2025-03-07T19:44:48.961Z</time>
      </trkpt>
      <trkpt lat="46.84756" lon="-1.00411">
        <ele>116</ele>
        <time>2025-03-07T19:44:50.868Z</time>
      </trkpt>
      <trkpt lat="46.84677" lon="-1.00439">
        <ele>114.5</ele>
        <time>2025-03-07T19:45:01.547Z</time>
      </trkpt>
      <trkpt lat="46.84669" lon="-1.00442">
        <ele>114.2</ele>
        <time>2025-03-07T19:45:02.489Z</time>
      </trkpt>
      <trkpt lat="46.84638" lon="-1.00452">
        <ele>114</ele>
        <time>2025-03-07T19:45:07.128Z</time>
      </trkpt>
      <trkpt lat="46.84626" lon="-1.00455">
        <ele>113.5</ele>
        <time>2025-03-07T19:45:08.468Z</time>
      </trkpt>
      <trkpt lat="46.84608" lon="-1.0046">
        <ele>113</ele>
        <time>2025-03-07T19:45:10.708Z</time>
      </trkpt>
      <trkpt lat="46.84587" lon="-1.00465">
        <ele>112.8</ele>
        <time>2025-03-07T19:45:13.731Z</time>
      </trkpt>
      <trkpt lat="46.8456" lon="-1.00467">
        <ele>112.7</ele>
        <time>2025-03-07T19:45:17.778Z</time>
      </trkpt>
      <trkpt lat="46.84526" lon="-1.00469">
        <ele>112.9</ele>
        <time>2025-03-07T19:45:23.360Z</time>
      </trkpt>
      <trkpt lat="46.84504" lon="-1.00481">
        <ele>113</ele>
        <time>2025-03-07T19:45:27.151Z</time>
      </trkpt>
      <trkpt lat="46.84504" lon="-1.00481">
        <ele>113</ele>
        <time>2025-03-07T19:45:27.151Z</time>
      </trkpt>
      <trkpt lat="46.84503" lon="-1.00483">
        <ele>113</ele>
        <time>2025-03-07T19:45:27.414Z</time>
      </trkpt>
      <trkpt lat="46.84501" lon="-1.00486">
        <ele>113</ele>
        <time>2025-03-07T19:45:27.858Z</time>
      </trkpt>
      <trkpt lat="46.84499" lon="-1.0049">
        <ele>113</ele>
        <time>2025-03-07T19:45:28.383Z</time>
      </trkpt>
      <trkpt lat="46.84497" lon="-1.00493">
        <ele>113</ele>
        <time>2025-03-07T19:45:28.827Z</time>
      </trkpt>
      <trkpt lat="46.84494" lon="-1.00495">
        <ele>113</ele>
        <time>2025-03-07T19:45:29.338Z</time>
      </trkpt>
      <trkpt lat="46.84491" lon="-1.00496">
        <ele>113</ele>
        <time>2025-03-07T19:45:29.815Z</time>
      </trkpt>
      <trkpt lat="46.84489" lon="-1.00496">
        <ele>113.1</ele>
        <time>2025-03-07T19:45:30.356Z</time>
      </trkpt>
      <trkpt lat="46.84486" lon="-1.00496">
        <ele>113.1</ele>
        <time>2025-03-07T19:45:30.821Z</time>
      </trkpt>
      <trkpt lat="46.84483" lon="-1.00496">
        <ele>113.1</ele>
        <time>2025-03-07T19:45:31.286Z</time>
      </trkpt>
      <trkpt lat="46.84479" lon="-1.00494">
        <ele>113.2</ele>
        <time>2025-03-07T19:45:32.121Z</time>
      </trkpt>
      <trkpt lat="46.84476" lon="-1.00491">
        <ele>113.3</ele>
        <time>2025-03-07T19:45:32.870Z</time>
      </trkpt>
      <trkpt lat="46.84474" lon="-1.00487">
        <ele>113.4</ele>
        <time>2025-03-07T19:45:33.585Z</time>
      </trkpt>
      <trkpt lat="46.8447" lon="-1.0048">
        <ele>113.7</ele>
        <time>2025-03-07T19:45:35.232Z</time>
      </trkpt>
      <trkpt lat="46.84448" lon="-1.00466">
        <ele>114</ele>
        <time>2025-03-07T19:45:39.440Z</time>
      </trkpt>
      <trkpt lat="46.84422" lon="-1.00463">
        <ele>114</ele>
        <time>2025-03-07T19:45:43.482Z</time>
      </trkpt>
      <trkpt lat="46.84071" lon="-1.00438">
        <ele>120.4</ele>
        <time>2025-03-07T19:46:48.922Z</time>
      </trkpt>
      <trkpt lat="46.83873" lon="-1.00423">
        <ele>124.4</ele>
        <time>2025-03-07T19:47:26.630Z</time>
      </trkpt>
      <trkpt lat="46.83861" lon="-1.00422">
        <ele>124.8</ele>
        <time>2025-03-07T19:47:29.279Z</time>
      </trkpt>
      <trkpt lat="46.83847" lon="-1.0042">
        <ele>124.4</ele>
        <time>2025-03-07T19:47:30.983Z</time>
      </trkpt>
      <trkpt lat="46.83508" lon="-1.00392">
        <ele>126.3</ele>
        <time>2025-03-07T19:48:26.531Z</time>
      </trkpt>
      <trkpt lat="46.83439" lon="-1.00388">
        <ele>126</ele>
        <time>2025-03-07T19:48:36.805Z</time>
      </trkpt>
      <trkpt lat="46.83427" lon="-1.00387">
        <ele>126</ele>
        <time>2025-03-07T19:48:38.668Z</time>
      </trkpt>
      <trkpt lat="46.83333" lon="-1.0038">
        <ele>125.7</ele>
        <time>2025-03-07T19:48:52.823Z</time>
      </trkpt>
      <trkpt lat="46.83328" lon="-1.00385">
        <ele>125.9</ele>
        <time>2025-03-07T19:48:54.154Z</time>
      </trkpt>
      <trkpt lat="46.83324" lon="-1.00407">
        <ele>125.6</ele>
        <time>2025-03-07T19:48:56.186Z</time>
      </trkpt>
      <trkpt lat="46.83316" lon="-1.00436">
        <ele>125.2</ele>
        <time>2025-03-07T19:48:58.990Z</time>
      </trkpt>
      <trkpt lat="46.83306" lon="-1.00453">
        <ele>125</ele>
        <time>2025-03-07T19:49:01.101Z</time>
      </trkpt>
      <trkpt lat="46.83291" lon="-1.00469">
        <ele>125</ele>
        <time>2025-03-07T19:49:03.978Z</time>
      </trkpt>
      <trkpt lat="46.83269" lon="-1.00484">
        <ele>125</ele>
        <time>2025-03-07T19:49:07.740Z</time>
      </trkpt>
      <trkpt lat="46.83252" lon="-1.00493">
        <ele>125</ele>
        <time>2025-03-07T19:49:10.542Z</time>
      </trkpt>
      <trkpt lat="46.8323" lon="-1.00504">
        <ele>124.2</ele>
        <time>2025-03-07T19:49:13.232Z</time>
      </trkpt>
      <trkpt lat="46.83205" lon="-1.00514">
        <ele>123.4</ele>
        <time>2025-03-07T19:49:16.312Z</time>
      </trkpt>
      <trkpt lat="46.83185" lon="-1.00522">
        <ele>122.9</ele>
        <time>2025-03-07T19:49:18.912Z</time>
      </trkpt>
      <trkpt lat="46.83147" lon="-1.00545">
        <ele>121.8</ele>
        <time>2025-03-07T19:49:23.960Z</time>
      </trkpt>
      <trkpt lat="46.83115" lon="-1.00568">
        <ele>121.1</ele>
        <time>2025-03-07T19:49:28.599Z</time>
      </trkpt>
      <trkpt lat="46.83062" lon="-1.00615">
        <ele>121.1</ele>
        <time>2025-03-07T19:49:38.206Z</time>
      </trkpt>
      <trkpt lat="46.83026" lon="-1.00649">
        <ele>122</ele>
        <time>2025-03-07T19:49:46.430Z</time>
      </trkpt>
      <trkpt lat="46.83009" lon="-1.00665">
        <ele>122</ele>
        <time>2025-03-07T19:49:49.564Z</time>
      </trkpt>
      <trkpt lat="46.82997" lon="-1.00682">
        <ele>121.9</ele>
        <time>2025-03-07T19:49:52.013Z</time>
      </trkpt>
      <trkpt lat="46.82971" lon="-1.00728">
        <ele>122</ele>
        <time>2025-03-07T19:49:58.489Z</time>
      </trkpt>
      <trkpt lat="46.82937" lon="-1.00795">
        <ele>122.9</ele>
        <time>2025-03-07T19:50:08.846Z</time>
      </trkpt>
      <trkpt lat="46.82908" lon="-1.00853">
        <ele>122.7</ele>
        <time>2025-03-07T19:50:16.177Z</time>
      </trkpt>
      <trkpt lat="46.8289" lon="-1.00888">
        <ele>122</ele>
        <time>2025-03-07T19:50:19.956Z</time>
      </trkpt>
      <trkpt lat="46.82862" lon="-1.00933">
        <ele>121.4</ele>
        <time>2025-03-07T19:50:25.614Z</time>
      </trkpt>
      <trkpt lat="46.82834" lon="-1.00971">
        <ele>120.1</ele>
        <time>2025-03-07T19:50:30.047Z</time>
      </trkpt>
      <trkpt lat="46.82768" lon="-1.01047">
        <ele>118.6</ele>
        <time>2025-03-07T19:50:41.141Z</time>
      </trkpt>
      <trkpt lat="46.82722" lon="-1.01102">
        <ele>118.7</ele>
        <time>2025-03-07T19:50:50.500Z</time>
      </trkpt>
      <trkpt lat="46.82691" lon="-1.01137">
        <ele>118.8</ele>
        <time>2025-03-07T19:50:56.721Z</time>
      </trkpt>
      <trkpt lat="46.82643" lon="-1.0119">
        <ele>119.8</ele>
        <time>2025-03-07T19:51:07.736Z</time>
      </trkpt>
      <trkpt lat="46.82603" lon="-1.01214">
        <ele>119.9</ele>
        <time>2025-03-07T19:51:14.587Z</time>
      </trkpt>
      <trkpt lat="46.82371" lon="-1.01315">
        <ele>121.7</ele>
        <time>2025-03-07T19:51:54.919Z</time>
      </trkpt>
      <trkpt lat="46.82342" lon="-1.01273">
        <ele>122.1</ele>
        <time>2025-03-07T19:52:01.885Z</time>
      </trkpt>
      <trkpt lat="46.82293" lon="-1.01207">
        <ele>123</ele>
        <time>2025-03-07T19:52:13.695Z</time>
      </trkpt>
      <trkpt lat="46.82265" lon="-1.01167">
        <ele>123</ele>
        <time>2025-03-07T19:52:19.762Z</time>
      </trkpt>
      <trkpt lat="46.82234" lon="-1.01108">
        <ele>122.9</ele>
        <time>2025-03-07T19:52:27.505Z</time>
      </trkpt>
      <trkpt lat="46.82202" lon="-1.01028">
        <ele>122</ele>
        <time>2025-03-07T19:52:36.144Z</time>
      </trkpt>
      <trkpt lat="46.82158" lon="-1.00876">
        <ele>120</ele>
        <time>2025-03-07T19:52:51.073Z</time>
      </trkpt>
      <trkpt lat="46.82148" lon="-1.00834">
        <ele>119.3</ele>
        <time>2025-03-07T19:52:54.922Z</time>
      </trkpt>
      <trkpt lat="46.82141" lon="-1.00802">
        <ele>118.9</ele>
        <time>2025-03-07T19:52:57.969Z</time>
      </trkpt>
      <trkpt lat="46.82147" lon="-1.0074">
        <ele>117.9</ele>
        <time>2025-03-07T19:53:03.375Z</time>
      </trkpt>
      <trkpt lat="46.82147" lon="-1.00697">
        <ele>117.3</ele>
        <time>2025-03-07T19:53:07.178Z</time>
      </trkpt>
      <trkpt lat="46.82133" lon="-1.0059">
        <ele>115</ele>
        <time>2025-03-07T19:53:16.038Z</time>
      </trkpt>
      <trkpt lat="46.82123" lon="-1.00529">
        <ele>114</ele>
        <time>2025-03-07T19:53:21.455Z</time>
      </trkpt>
      <trkpt lat="46.82116" lon="-1.0046">
        <ele>111.2</ele>
        <time>2025-03-07T19:53:26.120Z</time>
      </trkpt>
      <trkpt lat="46.82116" lon="-1.00388">
        <ele>106.5</ele>
        <time>2025-03-07T19:53:30.701Z</time>
      </trkpt>
      <trkpt lat="46.82109" lon="-1.00311">
        <ele>102.4</ele>
        <time>2025-03-07T19:53:35.643Z</time>
      </trkpt>
      <trkpt lat="46.821" lon="-1.00242">
        <ele>101.5</ele>
        <time>2025-03-07T19:53:41.943Z</time>
      </trkpt>
      <trkpt lat="46.82101" lon="-1.00181">
        <ele>98.5</ele>
        <time>2025-03-07T19:53:45.825Z</time>
      </trkpt>
      <trkpt lat="46.82106" lon="-1.00082">
        <ele>93.9</ele>
        <time>2025-03-07T19:53:52.141Z</time>
      </trkpt>
      <trkpt lat="46.82109" lon="-1.0005">
        <ele>92.4</ele>
        <time>2025-03-07T19:53:54.196Z</time>
      </trkpt>
      <trkpt lat="46.82136" lon="-1.00002">
        <ele>91</ele>
        <time>2025-03-07T19:53:59.170Z</time>
      </trkpt>
      <trkpt lat="46.82171" lon="-0.99958">
        <ele>90.6</ele>
        <time>2025-03-07T19:54:05.774Z</time>
      </trkpt>
      <trkpt lat="46.8221" lon="-0.99923">
        <ele>89.2</ele>
        <time>2025-03-07T19:54:11.225Z</time>
      </trkpt>
      <trkpt lat="46.82247" lon="-0.99887">
        <ele>88.7</ele>
        <time>2025-03-07T19:54:17.438Z</time>
      </trkpt>
      <trkpt lat="46.82262" lon="-0.99867">
        <ele>89.2</ele>
        <time>2025-03-07T19:54:21.493Z</time>
      </trkpt>
      <trkpt lat="46.82262" lon="-0.99867">
        <ele>89.2</ele>
        <time>2025-03-07T19:54:21.493Z</time>
      </trkpt>
      <trkpt lat="46.82256" lon="-0.99856">
        <ele>88.4</ele>
        <time>2025-03-07T19:54:22.388Z</time>
      </trkpt>
      <trkpt lat="46.8224" lon="-0.99814">
        <ele>88.4</ele>
        <time>2025-03-07T19:54:27.485Z</time>
      </trkpt>
      <trkpt lat="46.82224" lon="-0.99768">
        <ele>89</ele>
        <time>2025-03-07T19:54:33.976Z</time>
      </trkpt>
      <trkpt lat="46.82219" lon="-0.99756">
        <ele>88.9</ele>
        <time>2025-03-07T19:54:35.330Z</time>
      </trkpt>
      <trkpt lat="46.82219" lon="-0.9975">
        <ele>89</ele>
        <time>2025-03-07T19:54:36.147Z</time>
      </trkpt>
      <trkpt lat="46.82219" lon="-0.99745">
        <ele>89.4</ele>
        <time>2025-03-07T19:54:38.267Z</time>
      </trkpt>
      <trkpt lat="46.82221" lon="-0.99737">
        <ele>90</ele>
        <time>2025-03-07T19:54:41.423Z</time>
      </trkpt>
      <trkpt lat="46.82222" lon="-0.99734">
        <ele>90.2</ele>
        <time>2025-03-07T19:54:42.443Z</time>
      </trkpt>
      <trkpt lat="46.82227" lon="-0.99724">
        <ele>90.7</ele>
        <time>2025-03-07T19:54:45.018Z</time>
      </trkpt>
      <trkpt lat="46.82233" lon="-0.99715">
        <ele>91.6</ele>
        <time>2025-03-07T19:54:49.765Z</time>
      </trkpt>
      <trkpt lat="46.82241" lon="-0.997">
        <ele>93</ele>
        <time>2025-03-07T19:54:57.175Z</time>
      </trkpt>
      <trkpt lat="46.82247" lon="-0.99682">
        <ele>93.8</ele>
        <time>2025-03-07T19:55:01.305Z</time>
      </trkpt>
      <trkpt lat="46.82251" lon="-0.99662">
        <ele>94.3</ele>
        <time>2025-03-07T19:55:04.514Z</time>
      </trkpt>
      <trkpt lat="46.82255" lon="-0.99643">
        <ele>95.5</ele>
        <time>2025-03-07T19:55:10.645Z</time>
      </trkpt>
      <trkpt lat="46.82264" lon="-0.99614">
        <ele>97.3</ele>
        <time>2025-03-07T19:55:19.755Z</time>
      </trkpt>
      <trkpt lat="46.82272" lon="-0.99592">
        <ele>99</ele>
        <time>2025-03-07T19:55:28.645Z</time>
      </trkpt>
      <trkpt lat="46.82273" lon="-0.99585">
        <ele>99.5</ele>
        <time>2025-03-07T19:55:31.272Z</time>
      </trkpt>
      <trkpt lat="46.82275" lon="-0.99575">
        <ele>101</ele>
        <time>2025-03-07T19:55:36.007Z</time>
      </trkpt>
      <trkpt lat="46.82274" lon="-0.99567">
        <ele>102</ele>
        <time>2025-03-07T19:55:39.702Z</time>
      </trkpt>
      <trkpt lat="46.82272" lon="-0.99559">
        <ele>102.9</ele>
        <time>2025-03-07T19:55:43.573Z</time>
      </trkpt>
      <trkpt lat="46.82267" lon="-0.99548">
        <ele>103.3</ele>
        <time>2025-03-07T19:55:45.846Z</time>
      </trkpt>
      <trkpt lat="46.8226" lon="-0.99525">
        <ele>103.6</ele>
        <time>2025-03-07T19:55:49.027Z</time>
      </trkpt>
      <trkpt lat="46.82255" lon="-0.99505">
        <ele>104.2</ele>
        <time>2025-03-07T19:55:52.555Z</time>
      </trkpt>
      <trkpt lat="46.82251" lon="-0.99483">
        <ele>105.3</ele>
        <time>2025-03-07T19:55:58.087Z</time>
      </trkpt>
      <trkpt lat="46.82252" lon="-0.99446">
        <ele>108</ele>
        <time>2025-03-07T19:56:12.363Z</time>
      </trkpt>
      <trkpt lat="46.82254" lon="-0.99427">
        <ele>108.9</ele>
        <time>2025-03-07T19:56:16.897Z</time>
      </trkpt>
      <trkpt lat="46.82256" lon="-0.99411">
        <ele>109.6</ele>
        <time>2025-03-07T19:56:20.458Z</time>
      </trkpt>
      <trkpt lat="46.82256" lon="-0.9939">
        <ele>110.4</ele>
        <time>2025-03-07T19:56:24.637Z</time>
      </trkpt>
      <trkpt lat="46.82255" lon="-0.99367">
        <ele>111.1</ele>
        <time>2025-03-07T19:56:28.610Z</time>
      </trkpt>
      <trkpt lat="46.82252" lon="-0.99344">
        <ele>111.8</ele>
        <time>2025-03-07T19:56:32.612Z</time>
      </trkpt>
      <trkpt lat="46.82248" lon="-0.99322">
        <ele>112.6</ele>
        <time>2025-03-07T19:56:36.896Z</time>
      </trkpt>
      <trkpt lat="46.82239" lon="-0.99284">
        <ele>115</ele>
        <time>2025-03-07T19:56:49.136Z</time>
      </trkpt>
      <trkpt lat="46.82233" lon="-0.99249">
        <ele>116</ele>
        <time>2025-03-07T19:56:55.066Z</time>
      </trkpt>
      <trkpt lat="46.82214" lon="-0.99148">
        <ele>117.8</ele>
        <time>2025-03-07T19:57:09.457Z</time>
      </trkpt>
      <trkpt lat="46.82207" lon="-0.99113">
        <ele>117.5</ele>
        <time>2025-03-07T19:57:12.921Z</time>
      </trkpt>
      <trkpt lat="46.82201" lon="-0.9909">
        <ele>117.1</ele>
        <time>2025-03-07T19:57:15.039Z</time>
      </trkpt>
      <trkpt lat="46.82197" lon="-0.99078">
        <ele>116.8</ele>
        <time>2025-03-07T19:57:16.108Z</time>
      </trkpt>
      <trkpt lat="46.82191" lon="-0.99065">
        <ele>116.3</ele>
        <time>2025-03-07T19:57:17.244Z</time>
      </trkpt>
      <trkpt lat="46.82178" lon="-0.99047">
        <ele>115.7</ele>
        <time>2025-03-07T19:57:19.330Z</time>
      </trkpt>
      <trkpt lat="46.82164" lon="-0.99034">
        <ele>115.1</ele>
        <time>2025-03-07T19:57:21.223Z</time>
      </trkpt>
      <trkpt lat="46.82148" lon="-0.9902">
        <ele>114.1</ele>
        <time>2025-03-07T19:57:23.106Z</time>
      </trkpt>
      <trkpt lat="46.82116" lon="-0.98998">
        <ele>112.1</ele>
        <time>2025-03-07T19:57:26.610Z</time>
      </trkpt>
      <trkpt lat="46.82034" lon="-0.98946">
        <ele>107.3</ele>
        <time>2025-03-07T19:57:35.631Z</time>
      </trkpt>
      <trkpt lat="46.82034" lon="-0.98946">
        <ele>107.3</ele>
        <time>2025-03-07T19:57:35.631Z</time>
      </trkpt>
      <trkpt lat="46.82007" lon="-0.98925">
        <ele>105.6</ele>
        <time>2025-03-07T19:57:38.680Z</time>
      </trkpt>
      <trkpt lat="46.82005" lon="-0.98924">
        <ele>105.4</ele>
        <time>2025-03-07T19:57:38.877Z</time>
      </trkpt>
      <trkpt lat="46.8199" lon="-0.98914">
        <ele>104.6</ele>
        <time>2025-03-07T19:57:40.600Z</time>
      </trkpt>
      <trkpt lat="46.81981" lon="-0.98909">
        <ele>104.2</ele>
        <time>2025-03-07T19:57:41.657Z</time>
      </trkpt>
      <trkpt lat="46.81974" lon="-0.98904">
        <ele>104</ele>
        <time>2025-03-07T19:57:42.621Z</time>
      </trkpt>
      <trkpt lat="46.81968" lon="-0.989">
        <ele>104.2</ele>
        <time>2025-03-07T19:57:44.026Z</time>
      </trkpt>
      <trkpt lat="46.81951" lon="-0.9889">
        <ele>105.5</ele>
        <time>2025-03-07T19:57:50.562Z</time>
      </trkpt>
      <trkpt lat="46.81931" lon="-0.98878">
        <ele>106.9</ele>
        <time>2025-03-07T19:57:57.655Z</time>
      </trkpt>
      <trkpt lat="46.81905" lon="-0.98861">
        <ele>108.4</ele>
        <time>2025-03-07T19:58:05.622Z</time>
      </trkpt>
      <trkpt lat="46.81883" lon="-0.98847">
        <ele>109.8</ele>
        <time>2025-03-07T19:58:12.850Z</time>
      </trkpt>
      <trkpt lat="46.81876" lon="-0.98842">
        <ele>110.3</ele>
        <time>2025-03-07T19:58:15.386Z</time>
      </trkpt>
      <trkpt lat="46.81836" lon="-0.98816">
        <ele>112.5</ele>
        <time>2025-03-07T19:58:27.259Z</time>
      </trkpt>
      <trkpt lat="46.81809" lon="-0.98799">
        <ele>113.9</ele>
        <time>2025-03-07T19:58:34.971Z</time>
      </trkpt>
      <trkpt lat="46.81787" lon="-0.98784">
        <ele>114.5</ele>
        <time>2025-03-07T19:58:39.824Z</time>
      </trkpt>
      <trkpt lat="46.81773" lon="-0.98775">
        <ele>115</ele>
        <time>2025-03-07T19:58:43.171Z</time>
      </trkpt>
      <trkpt lat="46.8176" lon="-0.98766">
        <ele>115</ele>
        <time>2025-03-07T19:58:45.400Z</time>
      </trkpt>
      <trkpt lat="46.81747" lon="-0.98758">
        <ele>115</ele>
        <time>2025-03-07T19:58:47.586Z</time>
      </trkpt>
      <trkpt lat="46.81735" lon="-0.98753">
        <ele>115</ele>
        <time>2025-03-07T19:58:49.520Z</time>
      </trkpt>
      <trkpt lat="46.81725" lon="-0.98749">
        <ele>115</ele>
        <time>2025-03-07T19:58:51.127Z</time>
      </trkpt>
      <trkpt lat="46.8171" lon="-0.98743">
        <ele>115</ele>
        <time>2025-03-07T19:58:53.537Z</time>
      </trkpt>
      <trkpt lat="46.81689" lon="-0.98736">
        <ele>114.9</ele>
        <time>2025-03-07T19:58:56.733Z</time>
      </trkpt>
      <trkpt lat="46.81665" lon="-0.98728">
        <ele>114.2</ele>
        <time>2025-03-07T19:58:59.714Z</time>
      </trkpt>
      <trkpt lat="46.81638" lon="-0.98719">
        <ele>113.9</ele>
        <time>2025-03-07T19:59:03.600Z</time>
      </trkpt>
      <trkpt lat="46.81611" lon="-0.9871">
        <ele>113</ele>
        <time>2025-03-07T19:59:06.850Z</time>
      </trkpt>
      <trkpt lat="46.81587" lon="-0.98702">
        <ele>111.9</ele>
        <time>2025-03-07T19:59:09.492Z</time>
      </trkpt>
      <trkpt lat="46.81572" lon="-0.98697">
        <ele>111.2</ele>
        <time>2025-03-07T19:59:11.134Z</time>
      </trkpt>
      <trkpt lat="46.81547" lon="-0.98689">
        <ele>109.7</ele>
        <time>2025-03-07T19:59:13.636Z</time>
      </trkpt>
      <trkpt lat="46.815" lon="-0.98674">
        <ele>107.3</ele>
        <time>2025-03-07T19:59:18.616Z</time>
      </trkpt>
      <trkpt lat="46.81469" lon="-0.98664">
        <ele>105.7</ele>
        <time>2025-03-07T19:59:21.892Z</time>
      </trkpt>
      <trkpt lat="46.81458" lon="-0.9866">
        <ele>104.9</ele>
        <time>2025-03-07T19:59:22.946Z</time>
      </trkpt>
      <trkpt lat="46.81406" lon="-0.98643">
        <ele>102.3</ele>
        <time>2025-03-07T19:59:28.504Z</time>
      </trkpt>
      <trkpt lat="46.81383" lon="-0.98635">
        <ele>100.6</ele>
        <time>2025-03-07T19:59:30.702Z</time>
      </trkpt>
      <trkpt lat="46.81342" lon="-0.98622">
        <ele>98.7</ele>
        <time>2025-03-07T19:59:35.186Z</time>
      </trkpt>
      <trkpt lat="46.81294" lon="-0.98605">
        <ele>96.4</ele>
        <time>2025-03-07T19:59:40.417Z</time>
      </trkpt>
      <trkpt lat="46.8124" lon="-0.98588">
        <ele>93</ele>
        <time>2025-03-07T19:59:45.719Z</time>
      </trkpt>
      <trkpt lat="46.81205" lon="-0.98577">
        <ele>92.7</ele>
        <time>2025-03-07T19:59:50.853Z</time>
      </trkpt>
      <trkpt lat="46.81191" lon="-0.98572">
        <ele>93.3</ele>
        <time>2025-03-07T19:59:54.362Z</time>
      </trkpt>
      <trkpt lat="46.81167" lon="-0.98563">
        <ele>95.2</ele>
        <time>2025-03-07T20:00:03.919Z</time>
      </trkpt>
      <trkpt lat="46.81122" lon="-0.98549">
        <ele>98.2</ele>
        <time>2025-03-07T20:00:19.105Z</time>
      </trkpt>
      <trkpt lat="46.81031" lon="-0.98519">
        <ele>105</ele>
        <time>2025-03-07T20:00:53.275Z</time>
      </trkpt>
      <trkpt lat="46.80988" lon="-0.98503">
        <ele>107.6</ele>
        <time>2025-03-07T20:01:06.685Z</time>
      </trkpt>
      <trkpt lat="46.80962" lon="-0.98495">
        <ele>109</ele>
        <time>2025-03-07T20:01:14.120Z</time>
      </trkpt>
      <trkpt lat="46.80949" lon="-0.98491">
        <ele>110</ele>
        <time>2025-03-07T20:01:19.147Z</time>
      </trkpt>
      <trkpt lat="46.80941" lon="-0.98489">
        <ele>110.5</ele>
        <time>2025-03-07T20:01:21.700Z</time>
      </trkpt>
      <trkpt lat="46.80934" lon="-0.98487">
        <ele>110.7</ele>
        <time>2025-03-07T20:01:23.180Z</time>
      </trkpt>
      <trkpt lat="46.80925" lon="-0.98486">
        <ele>110.9</ele>
        <time>2025-03-07T20:01:24.934Z</time>
      </trkpt>
      <trkpt lat="46.80917" lon="-0.98487">
        <ele>111</ele>
        <time>2025-03-07T20:01:26.341Z</time>
      </trkpt>
      <trkpt lat="46.80908" lon="-0.98487">
        <ele>111.3</ele>
        <time>2025-03-07T20:01:28.326Z</time>
      </trkpt>
      <trkpt lat="46.80901" lon="-0.98488">
        <ele>111.6</ele>
        <time>2025-03-07T20:01:30.060Z</time>
      </trkpt>
      <trkpt lat="46.80893" lon="-0.9849">
        <ele>111.9</ele>
        <time>2025-03-07T20:01:31.928Z</time>
      </trkpt>
      <trkpt lat="46.80849" lon="-0.98503">
        <ele>112</ele>
        <time>2025-03-07T20:01:39.035Z</time>
      </trkpt>
      <trkpt lat="46.808" lon="-0.98518">
        <ele>111.3</ele>
        <time>2025-03-07T20:01:45.868Z</time>
      </trkpt>
      <trkpt lat="46.80747" lon="-0.98535">
        <ele>110.7</ele>
        <time>2025-03-07T20:01:53.466Z</time>
      </trkpt>
      <trkpt lat="46.80682" lon="-0.98556">
        <ele>110</ele>
        <time>2025-03-07T20:02:02.832Z</time>
      </trkpt>
      <trkpt lat="46.8064" lon="-0.98569">
        <ele>109.5</ele>
        <time>2025-03-07T20:02:08.813Z</time>
      </trkpt>
      <trkpt lat="46.80595" lon="-0.98583">
        <ele>109</ele>
        <time>2025-03-07T20:02:15.266Z</time>
      </trkpt>
      <trkpt lat="46.80521" lon="-0.98605">
        <ele>108.2</ele>
        <time>2025-03-07T20:02:25.883Z</time>
      </trkpt>
      <trkpt lat="46.80458" lon="-0.98624">
        <ele>107.5</ele>
        <time>2025-03-07T20:02:34.905Z</time>
      </trkpt>
      <trkpt lat="46.8042" lon="-0.98636">
        <ele>107</ele>
        <time>2025-03-07T20:02:40.263Z</time>
      </trkpt>
      <trkpt lat="46.80389" lon="-0.98646">
        <ele>106.7</ele>
        <time>2025-03-07T20:02:44.772Z</time>
      </trkpt>
      <trkpt lat="46.80388" lon="-0.98646">
        <ele>106.8</ele>
        <time>2025-03-07T20:02:45.296Z</time>
      </trkpt>
      <trkpt lat="46.80374" lon="-0.9865">
        <ele>106.8</ele>
        <time>2025-03-07T20:02:47.506Z</time>
      </trkpt>
      <trkpt lat="46.80366" lon="-0.98653">
        <ele>106.9</ele>
        <time>2025-03-07T20:02:48.949Z</time>
      </trkpt>
      <trkpt lat="46.80354" lon="-0.98654">
        <ele>107.1</ele>
        <time>2025-03-07T20:02:51.150Z</time>
      </trkpt>
      <trkpt lat="46.80338" lon="-0.98654">
        <ele>107.4</ele>
        <time>2025-03-07T20:02:54.147Z</time>
      </trkpt>
      <trkpt lat="46.80322" lon="-0.98649">
        <ele>107.8</ele>
        <time>2025-03-07T20:02:57.408Z</time>
      </trkpt>
      <trkpt lat="46.80303" lon="-0.98639">
        <ele>108.1</ele>
        <time>2025-03-07T20:03:01.037Z</time>
      </trkpt>
      <trkpt lat="46.80278" lon="-0.98625">
        <ele>109</ele>
        <time>2025-03-07T20:03:06.961Z</time>
      </trkpt>
      <trkpt lat="46.80241" lon="-0.98604">
        <ele>109</ele>
        <time>2025-03-07T20:03:13.112Z</time>
      </trkpt>
      <trkpt lat="46.802" lon="-0.98581">
        <ele>108.2</ele>
        <time>2025-03-07T20:03:18.894Z</time>
      </trkpt>
      <trkpt lat="46.80139" lon="-0.98548">
        <ele>107</ele>
        <time>2025-03-07T20:03:27.439Z</time>
      </trkpt>
      <trkpt lat="46.80094" lon="-0.98522">
        <ele>105.3</ele>
        <time>2025-03-07T20:03:33.006Z</time>
      </trkpt>
      <trkpt lat="46.80078" lon="-0.98513">
        <ele>104.8</ele>
        <time>2025-03-07T20:03:35.071Z</time>
      </trkpt>
      <trkpt lat="46.8004" lon="-0.98493">
        <ele>103.3</ele>
        <time>2025-03-07T20:03:39.649Z</time>
      </trkpt>
      <trkpt lat="46.80023" lon="-0.98483">
        <ele>103</ele>
        <time>2025-03-07T20:03:42.099Z</time>
      </trkpt>
      <trkpt lat="46.80011" lon="-0.98476">
        <ele>103</ele>
        <time>2025-03-07T20:03:44.102Z</time>
      </trkpt>
      <trkpt lat="46.79998" lon="-0.98466">
        <ele>102.7</ele>
        <time>2025-03-07T20:03:46.000Z</time>
      </trkpt>
      <trkpt lat="46.79987" lon="-0.98456">
        <ele>102.2</ele>
        <time>2025-03-07T20:03:47.453Z</time>
      </trkpt>
      <trkpt lat="46.79982" lon="-0.98453">
        <ele>102.1</ele>
        <time>2025-03-07T20:03:48.163Z</time>
      </trkpt>
      <trkpt lat="46.79954" lon="-0.98419">
        <ele>101.1</ele>
        <time>2025-03-07T20:03:52.607Z</time>
      </trkpt>
      <trkpt lat="46.79939" lon="-0.98396">
        <ele>100.9</ele>
        <time>2025-03-07T20:03:55.702Z</time>
      </trkpt>
      <trkpt lat="46.79929" lon="-0.98382">
        <ele>100.3</ele>
        <time>2025-03-07T20:03:57.203Z</time>
      </trkpt>
      <trkpt lat="46.79923" lon="-0.98376">
        <ele>100.1</ele>
        <time>2025-03-07T20:03:58.090Z</time>
      </trkpt>
      <trkpt lat="46.79918" lon="-0.98371">
        <ele>100</ele>
        <time>2025-03-07T20:03:58.900Z</time>
      </trkpt>
      <trkpt lat="46.79911" lon="-0.98365">
        <ele>99.6</ele>
        <time>2025-03-07T20:03:59.743Z</time>
      </trkpt>
      <trkpt lat="46.79904" lon="-0.98361">
        <ele>99.1</ele>
        <time>2025-03-07T20:04:00.443Z</time>
      </trkpt>
      <trkpt lat="46.79899" lon="-0.98357">
        <ele>98.8</ele>
        <time>2025-03-07T20:04:01.023Z</time>
      </trkpt>
      <trkpt lat="46.79891" lon="-0.98354">
        <ele>98.4</ele>
        <time>2025-03-07T20:04:01.886Z</time>
      </trkpt>
      <trkpt lat="46.79883" lon="-0.98351">
        <ele>98</ele>
        <time>2025-03-07T20:04:02.750Z</time>
      </trkpt>
      <trkpt lat="46.79872" lon="-0.98349">
        <ele>97.3</ele>
        <time>2025-03-07T20:04:03.803Z</time>
      </trkpt>
      <trkpt lat="46.79858" lon="-0.98349">
        <ele>96.4</ele>
        <time>2025-03-07T20:04:05.124Z</time>
      </trkpt>
      <trkpt lat="46.79845" lon="-0.98351">
        <ele>95.6</ele>
        <time>2025-03-07T20:04:06.382Z</time>
      </trkpt>
      <trkpt lat="46.7983" lon="-0.98357">
        <ele>95.3</ele>
        <time>2025-03-07T20:04:08.410Z</time>
      </trkpt>
      <trkpt lat="46.79815" lon="-0.98363">
        <ele>94.8</ele>
        <time>2025-03-07T20:04:10.241Z</time>
      </trkpt>
      <trkpt lat="46.79809" lon="-0.98365">
        <ele>94.5</ele>
        <time>2025-03-07T20:04:10.883Z</time>
      </trkpt>
      <trkpt lat="46.798" lon="-0.98368">
        <ele>94.3</ele>
        <time>2025-03-07T20:04:12.063Z</time>
      </trkpt>
      <trkpt lat="46.79783" lon="-0.9837">
        <ele>94.1</ele>
        <time>2025-03-07T20:04:14.437Z</time>
      </trkpt>
      <trkpt lat="46.79772" lon="-0.9837">
        <ele>93.5</ele>
        <time>2025-03-07T20:04:15.541Z</time>
      </trkpt>
      <trkpt lat="46.79764" lon="-0.98369">
        <ele>92.9</ele>
        <time>2025-03-07T20:04:16.288Z</time>
      </trkpt>
      <trkpt lat="46.79748" lon="-0.98366">
        <ele>91.6</ele>
        <time>2025-03-07T20:04:17.788Z</time>
      </trkpt>
      <trkpt lat="46.79736" lon="-0.98361">
        <ele>91.5</ele>
        <time>2025-03-07T20:04:19.583Z</time>
      </trkpt>
      <trkpt lat="46.7972" lon="-0.98355">
        <ele>91.8</ele>
        <time>2025-03-07T20:04:22.658Z</time>
      </trkpt>
      <trkpt lat="46.79706" lon="-0.98346">
        <ele>91.8</ele>
        <time>2025-03-07T20:04:25.028Z</time>
      </trkpt>
      <trkpt lat="46.79696" lon="-0.9834">
        <ele>92</ele>
        <time>2025-03-07T20:04:27.048Z</time>
      </trkpt>
      <trkpt lat="46.79692" lon="-0.98337">
        <ele>92</ele>
        <time>2025-03-07T20:04:27.744Z</time>
      </trkpt>
      <trkpt lat="46.79673" lon="-0.98322">
        <ele>93</ele>
        <time>2025-03-07T20:04:33.317Z</time>
      </trkpt>
      <trkpt lat="46.79657" lon="-0.98308">
        <ele>95.1</ele>
        <time>2025-03-07T20:04:44.465Z</time>
      </trkpt>
      <trkpt lat="46.79643" lon="-0.98289">
        <ele>97.7</ele>
        <time>2025-03-07T20:04:57.157Z</time>
      </trkpt>
      <trkpt lat="46.79635" lon="-0.9828">
        <ele>99.1</ele>
        <time>2025-03-07T20:05:03.863Z</time>
      </trkpt>
      <trkpt lat="46.79615" lon="-0.98245">
        <ele>101.1</ele>
        <time>2025-03-07T20:05:14.010Z</time>
      </trkpt>
      <trkpt lat="46.79603" lon="-0.98223">
        <ele>101.9</ele>
        <time>2025-03-07T20:05:18.694Z</time>
      </trkpt>
      <trkpt lat="46.79587" lon="-0.98188">
        <ele>102.9</ele>
        <time>2025-03-07T20:05:25.151Z</time>
      </trkpt>
      <trkpt lat="46.79579" lon="-0.98171">
        <ele>103.6</ele>
        <time>2025-03-07T20:05:28.948Z</time>
      </trkpt>
      <trkpt lat="46.79572" lon="-0.98157">
        <ele>104.6</ele>
        <time>2025-03-07T20:05:34.022Z</time>
      </trkpt>
      <trkpt lat="46.79563" lon="-0.98143">
        <ele>104.9</ele>
        <time>2025-03-07T20:05:36.595Z</time>
      </trkpt>
      <trkpt lat="46.79553" lon="-0.98129">
        <ele>105.5</ele>
        <time>2025-03-07T20:05:40.039Z</time>
      </trkpt>
      <trkpt lat="46.79539" lon="-0.98111">
        <ele>106.6</ele>
        <time>2025-03-07T20:05:45.704Z</time>
      </trkpt>
      <trkpt lat="46.79526" lon="-0.98098">
        <ele>107.1</ele>
        <time>2025-03-07T20:05:49.114Z</time>
      </trkpt>
      <trkpt lat="46.79513" lon="-0.98084">
        <ele>107.5</ele>
        <time>2025-03-07T20:05:52.345Z</time>
      </trkpt>
      <trkpt lat="46.79492" lon="-0.98064">
        <ele>108.3</ele>
        <time>2025-03-07T20:05:57.782Z</time>
      </trkpt>
      <trkpt lat="46.79481" lon="-0.98053">
        <ele>108.7</ele>
        <time>2025-03-07T20:06:00.611Z</time>
      </trkpt>
      <trkpt lat="46.7947" lon="-0.9804">
        <ele>109.1</ele>
        <time>2025-03-07T20:06:03.554Z</time>
      </trkpt>
      <trkpt lat="46.7946" lon="-0.98027">
        <ele>109.5</ele>
        <time>2025-03-07T20:06:06.391Z</time>
      </trkpt>
      <trkpt lat="46.79449" lon="-0.98012">
        <ele>109.9</ele>
        <time>2025-03-07T20:06:09.462Z</time>
      </trkpt>
      <trkpt lat="46.7944" lon="-0.97996">
        <ele>110.2</ele>
        <time>2025-03-07T20:06:12.188Z</time>
      </trkpt>
      <trkpt lat="46.79429" lon="-0.97975">
        <ele>110.6</ele>
        <time>2025-03-07T20:06:15.703Z</time>
      </trkpt>
      <trkpt lat="46.79418" lon="-0.9795">
        <ele>111</ele>
        <time>2025-03-07T20:06:19.551Z</time>
      </trkpt>
      <trkpt lat="46.79409" lon="-0.97931">
        <ele>111.6</ele>
        <time>2025-03-07T20:06:23.235Z</time>
      </trkpt>
      <trkpt lat="46.79402" lon="-0.97913">
        <ele>112</ele>
        <time>2025-03-07T20:06:26.181Z</time>
      </trkpt>
      <trkpt lat="46.79393" lon="-0.97888">
        <ele>112</ele>
        <time>2025-03-07T20:06:29.178Z</time>
      </trkpt>
      <trkpt lat="46.79385" lon="-0.97864">
        <ele>112.1</ele>
        <time>2025-03-07T20:06:32.164Z</time>
      </trkpt>
      <trkpt lat="46.79373" lon="-0.9782">
        <ele>113</ele>
        <time>2025-03-07T20:06:38.870Z</time>
      </trkpt>
      <trkpt lat="46.79366" lon="-0.97787">
        <ele>113</ele>
        <time>2025-03-07T20:06:42.536Z</time>
      </trkpt>
      <trkpt lat="46.79362" lon="-0.9776">
        <ele>113</ele>
        <time>2025-03-07T20:06:45.467Z</time>
      </trkpt>
      <trkpt lat="46.7936" lon="-0.97728">
        <ele>113.8</ele>
        <time>2025-03-07T20:06:50.494Z</time>
      </trkpt>
      <trkpt lat="46.79358" lon="-0.97706">
        <ele>113.9</ele>
        <time>2025-03-07T20:06:53.005Z</time>
      </trkpt>
      <trkpt lat="46.79356" lon="-0.97678">
        <ele>113.9</ele>
        <time>2025-03-07T20:06:55.991Z</time>
      </trkpt>
      <trkpt lat="46.79354" lon="-0.97655">
        <ele>113.9</ele>
        <time>2025-03-07T20:06:58.451Z</time>
      </trkpt>
      <trkpt lat="46.79351" lon="-0.97632">
        <ele>113.7</ele>
        <time>2025-03-07T20:07:00.668Z</time>
      </trkpt>
      <trkpt lat="46.79346" lon="-0.97613">
        <ele>114</ele>
        <time>2025-03-07T20:07:03.357Z</time>
      </trkpt>
      <trkpt lat="46.79342" lon="-0.97598">
        <ele>114</ele>
        <time>2025-03-07T20:07:05.065Z</time>
      </trkpt>
      <trkpt lat="46.79331" lon="-0.97569">
        <ele>113.4</ele>
        <time>2025-03-07T20:07:07.858Z</time>
      </trkpt>
      <trkpt lat="46.79325" lon="-0.97554">
        <ele>113</ele>
        <time>2025-03-07T20:07:09.242Z</time>
      </trkpt>
      <trkpt lat="46.79309" lon="-0.97521">
        <ele>113</ele>
        <time>2025-03-07T20:07:13.533Z</time>
      </trkpt>
      <trkpt lat="46.79296" lon="-0.97495">
        <ele>112.7</ele>
        <time>2025-03-07T20:07:16.551Z</time>
      </trkpt>
      <trkpt lat="46.79282" lon="-0.97467">
        <ele>112.2</ele>
        <time>2025-03-07T20:07:19.602Z</time>
      </trkpt>
      <trkpt lat="46.79266" lon="-0.97439">
        <ele>111.1</ele>
        <time>2025-03-07T20:07:22.294Z</time>
      </trkpt>
      <trkpt lat="46.79248" lon="-0.97411">
        <ele>110.7</ele>
        <time>2025-03-07T20:07:25.845Z</time>
      </trkpt>
      <trkpt lat="46.79229" lon="-0.97384">
        <ele>109.2</ele>
        <time>2025-03-07T20:07:28.470Z</time>
      </trkpt>
      <trkpt lat="46.79205" lon="-0.97353">
        <ele>108.4</ele>
        <time>2025-03-07T20:07:32.459Z</time>
      </trkpt>
      <trkpt lat="46.79185" lon="-0.97328">
        <ele>108</ele>
        <time>2025-03-07T20:07:36.015Z</time>
      </trkpt>
      <trkpt lat="46.79167" lon="-0.97306">
        <ele>108</ele>
        <time>2025-03-07T20:07:39.652Z</time>
      </trkpt>
      <trkpt lat="46.79167" lon="-0.97306">
        <ele>108</ele>
        <time>2025-03-07T20:07:39.652Z</time>
      </trkpt>
      <trkpt lat="46.79166" lon="-0.97294">
        <ele>107.5</ele>
        <time>2025-03-07T20:07:40.452Z</time>
      </trkpt>
      <trkpt lat="46.79164" lon="-0.97251">
        <ele>106.9</ele>
        <time>2025-03-07T20:07:44.268Z</time>
      </trkpt>
      <trkpt lat="46.79163" lon="-0.97202">
        <ele>106.9</ele>
        <time>2025-03-07T20:07:49.469Z</time>
      </trkpt>
      <trkpt lat="46.79161" lon="-0.97145">
        <ele>106.8</ele>
        <time>2025-03-07T20:07:55.380Z</time>
      </trkpt>
      <trkpt lat="46.79159" lon="-0.97086">
        <ele>106.7</ele>
        <time>2025-03-07T20:08:01.503Z</time>
      </trkpt>
      <trkpt lat="46.79159" lon="-0.9704">
        <ele>106.9</ele>
        <time>2025-03-07T20:08:06.694Z</time>
      </trkpt>
      <trkpt lat="46.79159" lon="-0.97026">
        <ele>107</ele>
        <time>2025-03-07T20:08:08.340Z</time>
      </trkpt>
      <trkpt lat="46.79161" lon="-0.96993">
        <ele>107.8</ele>
        <time>2025-03-07T20:08:13.457Z</time>
      </trkpt>
      <trkpt lat="46.79164" lon="-0.96938">
        <ele>108.9</ele>
        <time>2025-03-07T20:08:21.392Z</time>
      </trkpt>
      <trkpt lat="46.79167" lon="-0.969">
        <ele>109</ele>
        <time>2025-03-07T20:08:25.602Z</time>
      </trkpt>
      <trkpt lat="46.79171" lon="-0.96856">
        <ele>109.2</ele>
        <time>2025-03-07T20:08:30.623Z</time>
      </trkpt>
      <trkpt lat="46.79173" lon="-0.96818">
        <ele>109.2</ele>
        <time>2025-03-07T20:08:34.666Z</time>
      </trkpt>
      <trkpt lat="46.79172" lon="-0.96793">
        <ele>109.6</ele>
        <time>2025-03-07T20:08:38.041Z</time>
      </trkpt>
      <trkpt lat="46.7917" lon="-0.96768">
        <ele>110.1</ele>
        <time>2025-03-07T20:08:41.657Z</time>
      </trkpt>
      <trkpt lat="46.79168" lon="-0.9676">
        <ele>110</ele>
        <time>2025-03-07T20:08:42.431Z</time>
      </trkpt>
      <trkpt lat="46.79163" lon="-0.96736">
        <ele>110.4</ele>
        <time>2025-03-07T20:08:45.811Z</time>
      </trkpt>
      <trkpt lat="46.79159" lon="-0.96711">
        <ele>110.8</ele>
        <time>2025-03-07T20:08:49.249Z</time>
      </trkpt>
      <trkpt lat="46.79152" lon="-0.96679">
        <ele>111.3</ele>
        <time>2025-03-07T20:08:53.698Z</time>
      </trkpt>
      <trkpt lat="46.79149" lon="-0.96649">
        <ele>111.8</ele>
        <time>2025-03-07T20:08:57.819Z</time>
      </trkpt>
      <trkpt lat="46.79148" lon="-0.9663">
        <ele>112</ele>
        <time>2025-03-07T20:09:00.176Z</time>
      </trkpt>
      <trkpt lat="46.7915" lon="-0.96604">
        <ele>112.1</ele>
        <time>2025-03-07T20:09:03.106Z</time>
      </trkpt>
      <trkpt lat="46.79154" lon="-0.96558">
        <ele>113</ele>
        <time>2025-03-07T20:09:09.716Z</time>
      </trkpt>
      <trkpt lat="46.7916" lon="-0.96512">
        <ele>113</ele>
        <time>2025-03-07T20:09:14.684Z</time>
      </trkpt>
      <trkpt lat="46.79166" lon="-0.96469">
        <ele>113.1</ele>
        <time>2025-03-07T20:09:19.492Z</time>
      </trkpt>
      <trkpt lat="46.79177" lon="-0.96395">
        <ele>113.5</ele>
        <time>2025-03-07T20:09:28.154Z</time>
      </trkpt>
      <trkpt lat="46.79183" lon="-0.96346">
        <ele>114</ele>
        <time>2025-03-07T20:09:34.267Z</time>
      </trkpt>
      <trkpt lat="46.79197" lon="-0.96237">
        <ele>114.4</ele>
        <time>2025-03-07T20:09:46.649Z</time>
      </trkpt>
      <trkpt lat="46.79201" lon="-0.962">
        <ele>114.8</ele>
        <time>2025-03-07T20:09:51.294Z</time>
      </trkpt>
      <trkpt lat="46.79202" lon="-0.96185">
        <ele>114.5</ele>
        <time>2025-03-07T20:09:52.538Z</time>
      </trkpt>
      <trkpt lat="46.79206" lon="-0.96128">
        <ele>113.8</ele>
        <time>2025-03-07T20:09:57.718Z</time>
      </trkpt>
      <trkpt lat="46.7921" lon="-0.96075">
        <ele>113.4</ele>
        <time>2025-03-07T20:10:02.834Z</time>
      </trkpt>
      <trkpt lat="46.79213" lon="-0.96028">
        <ele>112.3</ele>
        <time>2025-03-07T20:10:06.583Z</time>
      </trkpt>
      <trkpt lat="46.79216" lon="-0.9598">
        <ele>111.7</ele>
        <time>2025-03-07T20:10:10.928Z</time>
      </trkpt>
      <trkpt lat="46.79217" lon="-0.95954">
        <ele>111.3</ele>
        <time>2025-03-07T20:10:13.194Z</time>
      </trkpt>
      <trkpt lat="46.79218" lon="-0.95923">
        <ele>110.5</ele>
        <time>2025-03-07T20:10:15.593Z</time>
      </trkpt>
      <trkpt lat="46.79219" lon="-0.95898">
        <ele>109.6</ele>
        <time>2025-03-07T20:10:17.337Z</time>
      </trkpt>
      <trkpt lat="46.79217" lon="-0.95853">
        <ele>108.9</ele>
        <time>2025-03-07T20:10:21.253Z</time>
      </trkpt>
      <trkpt lat="46.79215" lon="-0.95801">
        <ele>107.5</ele>
        <time>2025-03-07T20:10:25.232Z</time>
      </trkpt>
      <trkpt lat="46.79212" lon="-0.95756">
        <ele>106.6</ele>
        <time>2025-03-07T20:10:28.962Z</time>
      </trkpt>
      <trkpt lat="46.7921" lon="-0.9573">
        <ele>106.4</ele>
        <time>2025-03-07T20:10:31.468Z</time>
      </trkpt>
      <trkpt lat="46.7921" lon="-0.95714">
        <ele>106.4</ele>
        <time>2025-03-07T20:10:33.166Z</time>
      </trkpt>
      <trkpt lat="46.79209" lon="-0.95704">
        <ele>106.5</ele>
        <time>2025-03-07T20:10:34.404Z</time>
      </trkpt>
      <trkpt lat="46.79207" lon="-0.95667">
        <ele>106.5</ele>
        <time>2025-03-07T20:10:38.342Z</time>
      </trkpt>
      <trkpt lat="46.79206" lon="-0.9563">
        <ele>106.6</ele>
        <time>2025-03-07T20:10:42.423Z</time>
      </trkpt>
      <trkpt lat="46.79205" lon="-0.95617">
        <ele>106.6</ele>
        <time>2025-03-07T20:10:43.811Z</time>
      </trkpt>
      <trkpt lat="46.79205" lon="-0.95605">
        <ele>106.6</ele>
        <time>2025-03-07T20:10:45.084Z</time>
      </trkpt>
      <trkpt lat="46.79206" lon="-0.95592">
        <ele>106.6</ele>
        <time>2025-03-07T20:10:46.472Z</time>
      </trkpt>
      <trkpt lat="46.79206" lon="-0.9558">
        <ele>106.7</ele>
        <time>2025-03-07T20:10:47.908Z</time>
      </trkpt>
      <trkpt lat="46.79207" lon="-0.95567">
        <ele>106.9</ele>
        <time>2025-03-07T20:10:49.652Z</time>
      </trkpt>
      <trkpt lat="46.79208" lon="-0.95555">
        <ele>107</ele>
        <time>2025-03-07T20:10:51.097Z</time>
      </trkpt>
      <trkpt lat="46.79209" lon="-0.95542">
        <ele>107</ele>
        <time>2025-03-07T20:10:52.485Z</time>
      </trkpt>
      <trkpt lat="46.79211" lon="-0.9553">
        <ele>106.8</ele>
        <time>2025-03-07T20:10:53.549Z</time>
      </trkpt>
      <trkpt lat="46.79212" lon="-0.9552">
        <ele>106.9</ele>
        <time>2025-03-07T20:10:54.788Z</time>
      </trkpt>
      <trkpt lat="46.79216" lon="-0.95505">
        <ele>107.1</ele>
        <time>2025-03-07T20:10:56.839Z</time>
      </trkpt>
      <trkpt lat="46.7922" lon="-0.95485">
        <ele>107.6</ele>
        <time>2025-03-07T20:11:00.049Z</time>
      </trkpt>
      <trkpt lat="46.79227" lon="-0.95459">
        <ele>107.9</ele>
        <time>2025-03-07T20:11:03.516Z</time>
      </trkpt>
      <trkpt lat="46.79235" lon="-0.95431">
        <ele>108.7</ele>
        <time>2025-03-07T20:11:08.387Z</time>
      </trkpt>
      <trkpt lat="46.79238" lon="-0.95421">
        <ele>109.3</ele>
        <time>2025-03-07T20:11:11.415Z</time>
      </trkpt>
      <trkpt lat="46.79242" lon="-0.95405">
        <ele>109.8</ele>
        <time>2025-03-07T20:11:14.298Z</time>
      </trkpt>
      <trkpt lat="46.79245" lon="-0.95395">
        <ele>110</ele>
        <time>2025-03-07T20:11:15.827Z</time>
      </trkpt>
      <trkpt lat="46.79247" lon="-0.95386">
        <ele>110.1</ele>
        <time>2025-03-07T20:11:16.998Z</time>
      </trkpt>
      <trkpt lat="46.79251" lon="-0.95374">
        <ele>110.5</ele>
        <time>2025-03-07T20:11:19.283Z</time>
      </trkpt>
      <trkpt lat="46.79257" lon="-0.9535">
        <ele>110.5</ele>
        <time>2025-03-07T20:11:21.994Z</time>
      </trkpt>
      <trkpt lat="46.79264" lon="-0.95326">
        <ele>110.3</ele>
        <time>2025-03-07T20:11:24.491Z</time>
      </trkpt>
      <trkpt lat="46.79274" lon="-0.95289">
        <ele>110.8</ele>
        <time>2025-03-07T20:11:29.571Z</time>
      </trkpt>
      <trkpt lat="46.79282" lon="-0.95258">
        <ele>111.3</ele>
        <time>2025-03-07T20:11:33.973Z</time>
      </trkpt>
      <trkpt lat="46.7929" lon="-0.95227">
        <ele>111.5</ele>
        <time>2025-03-07T20:11:37.805Z</time>
      </trkpt>
      <trkpt lat="46.79295" lon="-0.95202">
        <ele>111.6</ele>
        <time>2025-03-07T20:11:40.722Z</time>
      </trkpt>
      <trkpt lat="46.79299" lon="-0.95182">
        <ele>111.8</ele>
        <time>2025-03-07T20:11:43.264Z</time>
      </trkpt>
      <trkpt lat="46.79301" lon="-0.95164">
        <ele>112.2</ele>
        <time>2025-03-07T20:11:45.976Z</time>
      </trkpt>
      <trkpt lat="46.79302" lon="-0.95152">
        <ele>112.6</ele>
        <time>2025-03-07T20:11:48.167Z</time>
      </trkpt>
      <trkpt lat="46.79304" lon="-0.95124">
        <ele>113.5</ele>
        <time>2025-03-07T20:11:53.164Z</time>
      </trkpt>
      <trkpt lat="46.79306" lon="-0.95087">
        <ele>114</ele>
        <time>2025-03-07T20:11:57.971Z</time>
      </trkpt>
      <trkpt lat="46.79307" lon="-0.95062">
        <ele>114.8</ele>
        <time>2025-03-07T20:12:02.414Z</time>
      </trkpt>
      <trkpt lat="46.7931" lon="-0.95011">
        <ele>115.6</ele>
        <time>2025-03-07T20:12:09.275Z</time>
      </trkpt>
      <trkpt lat="46.79312" lon="-0.94966">
        <ele>117</ele>
        <time>2025-03-07T20:12:17.146Z</time>
      </trkpt>
      <trkpt lat="46.79316" lon="-0.94924">
        <ele>117.5</ele>
        <time>2025-03-07T20:12:22.495Z</time>
      </trkpt>
      <trkpt lat="46.7932" lon="-0.94891">
        <ele>118</ele>
        <time>2025-03-07T20:12:26.936Z</time>
      </trkpt>
      <trkpt lat="46.79328" lon="-0.94842">
        <ele>118.7</ele>
        <time>2025-03-07T20:12:33.504Z</time>
      </trkpt>
      <trkpt lat="46.79335" lon="-0.94803">
        <ele>119</ele>
        <time>2025-03-07T20:12:38.265Z</time>
      </trkpt>
      <trkpt lat="46.79343" lon="-0.94762">
        <ele>119.4</ele>
        <time>2025-03-07T20:12:43.449Z</time>
      </trkpt>
      <trkpt lat="46.79348" lon="-0.94728">
        <ele>119.9</ele>
        <time>2025-03-07T20:12:48.017Z</time>
      </trkpt>
      <trkpt lat="46.7935" lon="-0.94703">
        <ele>120.3</ele>
        <time>2025-03-07T20:12:51.405Z</time>
      </trkpt>
      <trkpt lat="46.79352" lon="-0.94677">
        <ele>120.3</ele>
        <time>2025-03-07T20:12:54.181Z</time>
      </trkpt>
      <trkpt lat="46.79353" lon="-0.94652">
        <ele>120.3</ele>
        <time>2025-03-07T20:12:56.838Z</time>
      </trkpt>
      <trkpt lat="46.79352" lon="-0.94625">
        <ele>120.8</ele>
        <time>2025-03-07T20:13:00.635Z</time>
      </trkpt>
      <trkpt lat="46.79351" lon="-0.94598">
        <ele>121.4</ele>
        <time>2025-03-07T20:13:04.673Z</time>
      </trkpt>
      <trkpt lat="46.79349" lon="-0.94558">
        <ele>122</ele>
        <time>2025-03-07T20:13:09.991Z</time>
      </trkpt>
      <trkpt lat="46.79343" lon="-0.94486">
        <ele>123</ele>
        <time>2025-03-07T20:13:19.432Z</time>
      </trkpt>
      <trkpt lat="46.79339" lon="-0.94414">
        <ele>124</ele>
        <time>2025-03-07T20:13:28.842Z</time>
      </trkpt>
      <trkpt lat="46.79336" lon="-0.94364">
        <ele>124</ele>
        <time>2025-03-07T20:13:34.168Z</time>
      </trkpt>
      <trkpt lat="46.79335" lon="-0.9434">
        <ele>124.8</ele>
        <time>2025-03-07T20:13:38.539Z</time>
      </trkpt>
      <trkpt lat="46.79333" lon="-0.94316">
        <ele>125</ele>
        <time>2025-03-07T20:13:41.430Z</time>
      </trkpt>
      <trkpt lat="46.79329" lon="-0.94254">
        <ele>125.1</ele>
        <time>2025-03-07T20:13:48.187Z</time>
      </trkpt>
      <trkpt lat="46.79328" lon="-0.94243">
        <ele>125.4</ele>
        <time>2025-03-07T20:13:49.990Z</time>
      </trkpt>
      <trkpt lat="46.79328" lon="-0.94218">
        <ele>126</ele>
        <time>2025-03-07T20:13:53.841Z</time>
      </trkpt>
      <trkpt lat="46.79328" lon="-0.94203">
        <ele>126</ele>
        <time>2025-03-07T20:13:55.433Z</time>
      </trkpt>
      <trkpt lat="46.79328" lon="-0.94192">
        <ele>126</ele>
        <time>2025-03-07T20:13:56.600Z</time>
      </trkpt>
      <trkpt lat="46.79331" lon="-0.94164">
        <ele>126.2</ele>
        <time>2025-03-07T20:13:59.927Z</time>
      </trkpt>
      <trkpt lat="46.79332" lon="-0.94154">
        <ele>126.5</ele>
        <time>2025-03-07T20:14:01.648Z</time>
      </trkpt>
      <trkpt lat="46.79334" lon="-0.94142">
        <ele>126.9</ele>
        <time>2025-03-07T20:14:03.858Z</time>
      </trkpt>
      <trkpt lat="46.79339" lon="-0.94114">
        <ele>127</ele>
        <time>2025-03-07T20:14:07.081Z</time>
      </trkpt>
      <trkpt lat="46.79345" lon="-0.94094">
        <ele>127.6</ele>
        <time>2025-03-07T20:14:10.656Z</time>
      </trkpt>
      <trkpt lat="46.79348" lon="-0.94082">
        <ele>128</ele>
        <time>2025-03-07T20:14:12.897Z</time>
      </trkpt>
      <trkpt lat="46.79358" lon="-0.94054">
        <ele>128.9</ele>
        <time>2025-03-07T20:14:18.161Z</time>
      </trkpt>
      <trkpt lat="46.79375" lon="-0.94018">
        <ele>129.4</ele>
        <time>2025-03-07T20:14:23.648Z</time>
      </trkpt>
      <trkpt lat="46.79392" lon="-0.93981">
        <ele>130.7</ele>
        <time>2025-03-07T20:14:31.167Z</time>
      </trkpt>
      <trkpt lat="46.79397" lon="-0.93969">
        <ele>131</ele>
        <time>2025-03-07T20:14:33.236Z</time>
      </trkpt>
      <trkpt lat="46.79406" lon="-0.93952">
        <ele>131.4</ele>
        <time>2025-03-07T20:14:36.259Z</time>
      </trkpt>
      <trkpt lat="46.79417" lon="-0.93924">
        <ele>132</ele>
        <time>2025-03-07T20:14:40.799Z</time>
      </trkpt>
      <trkpt lat="46.79423" lon="-0.93905">
        <ele>132.6</ele>
        <time>2025-03-07T20:14:44.298Z</time>
      </trkpt>
      <trkpt lat="46.79426" lon="-0.93895">
        <ele>132.9</ele>
        <time>2025-03-07T20:14:46.086Z</time>
      </trkpt>
      <trkpt lat="46.79429" lon="-0.93879">
        <ele>133</ele>
        <time>2025-03-07T20:14:48.004Z</time>
      </trkpt>
      <trkpt lat="46.79433" lon="-0.93859">
        <ele>133</ele>
        <time>2025-03-07T20:14:50.215Z</time>
      </trkpt>
      <trkpt lat="46.79435" lon="-0.93842">
        <ele>133.2</ele>
        <time>2025-03-07T20:14:52.384Z</time>
      </trkpt>
      <trkpt lat="46.79436" lon="-0.93807">
        <ele>133.3</ele>
        <time>2025-03-07T20:14:56.253Z</time>
      </trkpt>
      <trkpt lat="46.79436" lon="-0.9378">
        <ele>133.6</ele>
        <time>2025-03-07T20:14:59.624Z</time>
      </trkpt>
      <trkpt lat="46.79437" lon="-0.93773">
        <ele>133.7</ele>
        <time>2025-03-07T20:15:00.557Z</time>
      </trkpt>
      <trkpt lat="46.79435" lon="-0.93763">
        <ele>134</ele>
        <time>2025-03-07T20:15:02.303Z</time>
      </trkpt>
      <trkpt lat="46.79433" lon="-0.93747">
        <ele>134.4</ele>
        <time>2025-03-07T20:15:04.835Z</time>
      </trkpt>
      <trkpt lat="46.79428" lon="-0.93719">
        <ele>134.8</ele>
        <time>2025-03-07T20:15:08.603Z</time>
      </trkpt>
      <trkpt lat="46.79427" lon="-0.93715">
        <ele>135</ele>
        <time>2025-03-07T20:15:09.610Z</time>
      </trkpt>
      <trkpt lat="46.79426" lon="-0.93709">
        <ele>135.3</ele>
        <time>2025-03-07T20:15:11.119Z</time>
      </trkpt>
      <trkpt lat="46.79424" lon="-0.93703">
        <ele>135.6</ele>
        <time>2025-03-07T20:15:12.636Z</time>
      </trkpt>
      <trkpt lat="46.79419" lon="-0.93693">
        <ele>136</ele>
        <time>2025-03-07T20:15:14.848Z</time>
      </trkpt>
      <trkpt lat="46.79419" lon="-0.93693">
        <ele>136</ele>
        <time>2025-03-07T20:15:14.848Z</time>
      </trkpt>
      <trkpt lat="46.79416" lon="-0.9369">
        <ele>136</ele>
        <time>2025-03-07T20:15:15.411Z</time>
      </trkpt>
      <trkpt lat="46.79415" lon="-0.93689">
        <ele>136</ele>
        <time>2025-03-07T20:15:15.599Z</time>
      </trkpt>
      <trkpt lat="46.79414" lon="-0.93686">
        <ele>136</ele>
        <time>2025-03-07T20:15:15.953Z</time>
      </trkpt>
      <trkpt lat="46.79413" lon="-0.93683">
        <ele>136</ele>
        <time>2025-03-07T20:15:16.307Z</time>
      </trkpt>
      <trkpt lat="46.79412" lon="-0.93679">
        <ele>136</ele>
        <time>2025-03-07T20:15:16.759Z</time>
      </trkpt>
      <trkpt lat="46.79411" lon="-0.93675">
        <ele>136</ele>
        <time>2025-03-07T20:15:17.210Z</time>
      </trkpt>
      <trkpt lat="46.79412" lon="-0.93671">
        <ele>136</ele>
        <time>2025-03-07T20:15:17.662Z</time>
      </trkpt>
      <trkpt lat="46.79413" lon="-0.93668">
        <ele>136</ele>
        <time>2025-03-07T20:15:18.016Z</time>
      </trkpt>
      <trkpt lat="46.79415" lon="-0.93665">
        <ele>136</ele>
        <time>2025-03-07T20:15:18.461Z</time>
      </trkpt>
      <trkpt lat="46.79412" lon="-0.93657">
        <ele>136</ele>
        <time>2025-03-07T20:15:19.428Z</time>
      </trkpt>
      <trkpt lat="46.79408" lon="-0.93628">
        <ele>136.4</ele>
        <time>2025-03-07T20:15:23.263Z</time>
      </trkpt>
      <trkpt lat="46.79405" lon="-0.93602">
        <ele>137</ele>
        <time>2025-03-07T20:15:27.239Z</time>
      </trkpt>
      <trkpt lat="46.79404" lon="-0.93592">
        <ele>137</ele>
        <time>2025-03-07T20:15:28.311Z</time>
      </trkpt>
      <trkpt lat="46.79405" lon="-0.93588">
        <ele>137</ele>
        <time>2025-03-07T20:15:28.763Z</time>
      </trkpt>
      <trkpt lat="46.79402" lon="-0.93575">
        <ele>137</ele>
        <time>2025-03-07T20:15:30.218Z</time>
      </trkpt>
      <trkpt lat="46.794" lon="-0.93558">
        <ele>137</ele>
        <time>2025-03-07T20:15:32.048Z</time>
      </trkpt>
      <trkpt lat="46.794" lon="-0.93551">
        <ele>137.2</ele>
        <time>2025-03-07T20:15:33.217Z</time>
      </trkpt>
      <trkpt lat="46.79399" lon="-0.93535">
        <ele>137.7</ele>
        <time>2025-03-07T20:15:36.025Z</time>
      </trkpt>
      <trkpt lat="46.79398" lon="-0.93516">
        <ele>138</ele>
        <time>2025-03-07T20:15:38.584Z</time>
      </trkpt>
      <trkpt lat="46.79398" lon="-0.93502">
        <ele>138</ele>
        <time>2025-03-07T20:15:40.069Z</time>
      </trkpt>
      <trkpt lat="46.79399" lon="-0.93484">
        <ele>138</ele>
        <time>2025-03-07T20:15:41.985Z</time>
      </trkpt>
      <trkpt lat="46.79402" lon="-0.93461">
        <ele>138.2</ele>
        <time>2025-03-07T20:15:44.796Z</time>
      </trkpt>
      <trkpt lat="46.79406" lon="-0.93432">
        <ele>138.6</ele>
        <time>2025-03-07T20:15:48.630Z</time>
      </trkpt>
      <trkpt lat="46.79414" lon="-0.93394">
        <ele>138.9</ele>
        <time>2025-03-07T20:15:53.332Z</time>
      </trkpt>
      <trkpt lat="46.79422" lon="-0.93359">
        <ele>139</ele>
        <time>2025-03-07T20:15:57.399Z</time>
      </trkpt>
      <trkpt lat="46.79423" lon="-0.9335">
        <ele>139</ele>
        <time>2025-03-07T20:15:58.366Z</time>
      </trkpt>
      <trkpt lat="46.7943" lon="-0.93318">
        <ele>139</ele>
        <time>2025-03-07T20:16:01.930Z</time>
      </trkpt>
      <trkpt lat="46.79438" lon="-0.93285">
        <ele>138.8</ele>
        <time>2025-03-07T20:16:05.369Z</time>
      </trkpt>
      <trkpt lat="46.79445" lon="-0.93251">
        <ele>139</ele>
        <time>2025-03-07T20:16:09.451Z</time>
      </trkpt>
      <trkpt lat="46.79448" lon="-0.93237">
        <ele>138.6</ele>
        <time>2025-03-07T20:16:10.566Z</time>
      </trkpt>
      <trkpt lat="46.79455" lon="-0.93204">
        <ele>137.7</ele>
        <time>2025-03-07T20:16:13.229Z</time>
      </trkpt>
      <trkpt lat="46.7946" lon="-0.93167">
        <ele>136.6</ele>
        <time>2025-03-07T20:16:16.041Z</time>
      </trkpt>
      <trkpt lat="46.79462" lon="-0.93156">
        <ele>136.6</ele>
        <time>2025-03-07T20:16:17.249Z</time>
      </trkpt>
      <trkpt lat="46.79462" lon="-0.93148">
        <ele>136.6</ele>
        <time>2025-03-07T20:16:18.097Z</time>
      </trkpt>
      <trkpt lat="46.79463" lon="-0.9314">
        <ele>136.7</ele>
        <time>2025-03-07T20:16:19.131Z</time>
      </trkpt>
      <trkpt lat="46.79462" lon="-0.93124">
        <ele>136.1</ele>
        <time>2025-03-07T20:16:20.235Z</time>
      </trkpt>
      <trkpt lat="46.79462" lon="-0.93117">
        <ele>135.8</ele>
        <time>2025-03-07T20:16:20.692Z</time>
      </trkpt>
      <trkpt lat="46.7946" lon="-0.93103">
        <ele>135.4</ele>
        <time>2025-03-07T20:16:21.772Z</time>
      </trkpt>
      <trkpt lat="46.79459" lon="-0.93096">
        <ele>135.3</ele>
        <time>2025-03-07T20:16:22.405Z</time>
      </trkpt>
      <trkpt lat="46.79454" lon="-0.93046">
        <ele>133.7</ele>
        <time>2025-03-07T20:16:26.077Z</time>
      </trkpt>
      <trkpt lat="46.79451" lon="-0.93033">
        <ele>133.2</ele>
        <time>2025-03-07T20:16:27.028Z</time>
      </trkpt>
      <trkpt lat="46.79448" lon="-0.93022">
        <ele>132.8</ele>
        <time>2025-03-07T20:16:27.870Z</time>
      </trkpt>
      <trkpt lat="46.79446" lon="-0.93017">
        <ele>132.6</ele>
        <time>2025-03-07T20:16:28.279Z</time>
      </trkpt>
      <trkpt lat="46.79444" lon="-0.9301">
        <ele>132.4</ele>
        <time>2025-03-07T20:16:28.862Z</time>
      </trkpt>
      <trkpt lat="46.7944" lon="-0.93004">
        <ele>132.1</ele>
        <time>2025-03-07T20:16:29.446Z</time>
      </trkpt>
      <trkpt lat="46.79433" lon="-0.92991">
        <ele>131.9</ele>
        <time>2025-03-07T20:16:30.943Z</time>
      </trkpt>
      <trkpt lat="46.79423" lon="-0.92978">
        <ele>131.4</ele>
        <time>2025-03-07T20:16:32.458Z</time>
      </trkpt>
      <trkpt lat="46.79421" lon="-0.92975">
        <ele>131.2</ele>
        <time>2025-03-07T20:16:32.724Z</time>
      </trkpt>
      <trkpt lat="46.79414" lon="-0.92967">
        <ele>130.7</ele>
        <time>2025-03-07T20:16:33.607Z</time>
      </trkpt>
      <trkpt lat="46.79408" lon="-0.92962">
        <ele>130.3</ele>
        <time>2025-03-07T20:16:34.285Z</time>
      </trkpt>
      <trkpt lat="46.79405" lon="-0.9296">
        <ele>130.1</ele>
        <time>2025-03-07T20:16:34.603Z</time>
      </trkpt>
      <trkpt lat="46.79397" lon="-0.92953">
        <ele>129.6</ele>
        <time>2025-03-07T20:16:35.545Z</time>
      </trkpt>
      <trkpt lat="46.79392" lon="-0.92947">
        <ele>129.2</ele>
        <time>2025-03-07T20:16:36.165Z</time>
      </trkpt>
      <trkpt lat="46.79391" lon="-0.92943">
        <ele>129</ele>
        <time>2025-03-07T20:16:36.436Z</time>
      </trkpt>
      <trkpt lat="46.79388" lon="-0.92936">
        <ele>128.7</ele>
        <time>2025-03-07T20:16:37.009Z</time>
      </trkpt>
      <trkpt lat="46.79388" lon="-0.9293">
        <ele>128.4</ele>
        <time>2025-03-07T20:16:37.391Z</time>
      </trkpt>
      <trkpt lat="46.79388" lon="-0.9292">
        <ele>128.1</ele>
        <time>2025-03-07T20:16:38.130Z</time>
      </trkpt>
      <trkpt lat="46.79389" lon="-0.92902">
        <ele>127.5</ele>
        <time>2025-03-07T20:16:39.422Z</time>
      </trkpt>
      <trkpt lat="46.79392" lon="-0.92876">
        <ele>126.7</ele>
        <time>2025-03-07T20:16:41.365Z</time>
      </trkpt>
      <trkpt lat="46.79393" lon="-0.92867">
        <ele>126.5</ele>
        <time>2025-03-07T20:16:42.100Z</time>
      </trkpt>
      <trkpt lat="46.79394" lon="-0.92858">
        <ele>126.3</ele>
        <time>2025-03-07T20:16:42.835Z</time>
      </trkpt>
      <trkpt lat="46.79396" lon="-0.92835">
        <ele>126.3</ele>
        <time>2025-03-07T20:16:45.295Z</time>
      </trkpt>
      <trkpt lat="46.79397" lon="-0.92826">
        <ele>126.1</ele>
        <time>2025-03-07T20:16:46.030Z</time>
      </trkpt>
      <trkpt lat="46.79397" lon="-0.92818">
        <ele>125.9</ele>
        <time>2025-03-07T20:16:46.653Z</time>
      </trkpt>
      <trkpt lat="46.79397" lon="-0.92813">
        <ele>125.8</ele>
        <time>2025-03-07T20:16:47.066Z</time>
      </trkpt>
      <trkpt lat="46.79397" lon="-0.92805">
        <ele>125.6</ele>
        <time>2025-03-07T20:16:47.689Z</time>
      </trkpt>
      <trkpt lat="46.79397" lon="-0.92799">
        <ele>125.6</ele>
        <time>2025-03-07T20:16:48.326Z</time>
      </trkpt>
      <trkpt lat="46.79396" lon="-0.92782">
        <ele>125.5</ele>
        <time>2025-03-07T20:16:49.998Z</time>
      </trkpt>
      <trkpt lat="46.79396" lon="-0.92774">
        <ele>125.5</ele>
        <time>2025-03-07T20:16:50.847Z</time>
      </trkpt>
      <trkpt lat="46.79394" lon="-0.92742">
        <ele>125.1</ele>
        <time>2025-03-07T20:16:53.744Z</time>
      </trkpt>
      <trkpt lat="46.79394" lon="-0.92733">
        <ele>124.9</ele>
        <time>2025-03-07T20:16:54.467Z</time>
      </trkpt>
      <trkpt lat="46.79394" lon="-0.9272">
        <ele>124.6</ele>
        <time>2025-03-07T20:16:55.502Z</time>
      </trkpt>
      <trkpt lat="46.79395" lon="-0.92711">
        <ele>124.7</ele>
        <time>2025-03-07T20:16:56.638Z</time>
      </trkpt>
      <trkpt lat="46.79395" lon="-0.92703">
        <ele>124.7</ele>
        <time>2025-03-07T20:16:57.486Z</time>
      </trkpt>
      <trkpt lat="46.79395" lon="-0.92694">
        <ele>124.7</ele>
        <time>2025-03-07T20:16:58.441Z</time>
      </trkpt>
      <trkpt lat="46.79402" lon="-0.9267">
        <ele>125.9</ele>
        <time>2025-03-07T20:17:04.496Z</time>
      </trkpt>
      <trkpt lat="46.79408" lon="-0.92654">
        <ele>126.1</ele>
        <time>2025-03-07T20:17:06.768Z</time>
      </trkpt>
      <trkpt lat="46.79412" lon="-0.92642">
        <ele>125.9</ele>
        <time>2025-03-07T20:17:07.934Z</time>
      </trkpt>
      <trkpt lat="46.79416" lon="-0.9263">
        <ele>126</ele>
        <time>2025-03-07T20:17:09.512Z</time>
      </trkpt>
      <trkpt lat="46.79424" lon="-0.92611">
        <ele>126.3</ele>
        <time>2025-03-07T20:17:12.400Z</time>
      </trkpt>
      <trkpt lat="46.79428" lon="-0.92602">
        <ele>126.2</ele>
        <time>2025-03-07T20:17:13.405Z</time>
      </trkpt>
      <trkpt lat="46.79432" lon="-0.92595">
        <ele>126.3</ele>
        <time>2025-03-07T20:17:14.541Z</time>
      </trkpt>
      <trkpt lat="46.79434" lon="-0.92588">
        <ele>126.3</ele>
        <time>2025-03-07T20:17:15.346Z</time>
      </trkpt>
      <trkpt lat="46.79436" lon="-0.92578">
        <ele>126.4</ele>
        <time>2025-03-07T20:17:16.617Z</time>
      </trkpt>
      <trkpt lat="46.79436" lon="-0.92578">
        <ele>126.4</ele>
        <time>2025-03-07T20:17:16.617Z</time>
      </trkpt>
      <trkpt lat="46.79433" lon="-0.92575">
        <ele>126.2</ele>
        <time>2025-03-07T20:17:16.980Z</time>
      </trkpt>
      <trkpt lat="46.79422" lon="-0.9256">
        <ele>125.4</ele>
        <time>2025-03-07T20:17:18.505Z</time>
      </trkpt>
      <trkpt lat="46.79415" lon="-0.92548">
        <ele>124.9</ele>
        <time>2025-03-07T20:17:19.650Z</time>
      </trkpt>
      <trkpt lat="46.79407" lon="-0.92535">
        <ele>124.7</ele>
        <time>2025-03-07T20:17:21.245Z</time>
      </trkpt>
      <trkpt lat="46.7939" lon="-0.92502">
        <ele>123.2</ele>
        <time>2025-03-07T20:17:24.111Z</time>
      </trkpt>
      <trkpt lat="46.79375" lon="-0.92476">
        <ele>121.6</ele>
        <time>2025-03-07T20:17:26.276Z</time>
      </trkpt>
      <trkpt lat="46.79359" lon="-0.92449">
        <ele>119</ele>
        <time>2025-03-07T20:17:28.549Z</time>
      </trkpt>
      <trkpt lat="46.79353" lon="-0.9244">
        <ele>118.4</ele>
        <time>2025-03-07T20:17:29.348Z</time>
      </trkpt>
      <trkpt lat="46.79349" lon="-0.92432">
        <ele>117.9</ele>
        <time>2025-03-07T20:17:29.979Z</time>
      </trkpt>
      <trkpt lat="46.79344" lon="-0.9243">
        <ele>117.4</ele>
        <time>2025-03-07T20:17:30.461Z</time>
      </trkpt>
      <trkpt lat="46.7934" lon="-0.92429">
        <ele>117.1</ele>
        <time>2025-03-07T20:17:30.838Z</time>
      </trkpt>
      <trkpt lat="46.79334" lon="-0.92427">
        <ele>116.4</ele>
        <time>2025-03-07T20:17:31.411Z</time>
      </trkpt>
      <trkpt lat="46.79334" lon="-0.92427">
        <ele>116.4</ele>
        <time>2025-03-07T20:17:31.411Z</time>
      </trkpt>
      <trkpt lat="46.79333" lon="-0.92428">
        <ele>116.4</ele>
        <time>2025-03-07T20:17:31.598Z</time>
      </trkpt>
      <trkpt lat="46.79332" lon="-0.92428">
        <ele>116.4</ele>
        <time>2025-03-07T20:17:31.753Z</time>
      </trkpt>
      <trkpt lat="46.7933" lon="-0.92427">
        <ele>116.3</ele>
        <time>2025-03-07T20:17:31.976Z</time>
      </trkpt>
      <trkpt lat="46.79329" lon="-0.92427">
        <ele>116.2</ele>
        <time>2025-03-07T20:17:32.069Z</time>
      </trkpt>
      <trkpt lat="46.79328" lon="-0.92426">
        <ele>116.1</ele>
        <time>2025-03-07T20:17:32.182Z</time>
      </trkpt>
      <trkpt lat="46.79327" lon="-0.92426">
        <ele>116.1</ele>
        <time>2025-03-07T20:17:32.337Z</time>
      </trkpt>
      <trkpt lat="46.79327" lon="-0.92424">
        <ele>116</ele>
        <time>2025-03-07T20:17:32.464Z</time>
      </trkpt>
      <trkpt lat="46.79326" lon="-0.92422">
        <ele>115.9</ele>
        <time>2025-03-07T20:17:32.629Z</time>
      </trkpt>
      <trkpt lat="46.79326" lon="-0.92421">
        <ele>115.9</ele>
        <time>2025-03-07T20:17:32.736Z</time>
      </trkpt>
      <trkpt lat="46.79326" lon="-0.9242">
        <ele>115.9</ele>
        <time>2025-03-07T20:17:32.842Z</time>
      </trkpt>
      <trkpt lat="46.79326" lon="-0.92418">
        <ele>115.8</ele>
        <time>2025-03-07T20:17:32.969Z</time>
      </trkpt>
      <trkpt lat="46.79326" lon="-0.92416">
        <ele>115.7</ele>
        <time>2025-03-07T20:17:33.096Z</time>
      </trkpt>
      <trkpt lat="46.79326" lon="-0.92414">
        <ele>115.8</ele>
        <time>2025-03-07T20:17:33.599Z</time>
      </trkpt>
      <trkpt lat="46.79327" lon="-0.92412">
        <ele>115.9</ele>
        <time>2025-03-07T20:17:34.114Z</time>
      </trkpt>
      <trkpt lat="46.79325" lon="-0.92405">
        <ele>115.9</ele>
        <time>2025-03-07T20:17:34.919Z</time>
      </trkpt>
      <trkpt lat="46.7932" lon="-0.92394">
        <ele>115.6</ele>
        <time>2025-03-07T20:17:35.974Z</time>
      </trkpt>
      <trkpt lat="46.79318" lon="-0.9239">
        <ele>115.3</ele>
        <time>2025-03-07T20:17:36.289Z</time>
      </trkpt>
      <trkpt lat="46.79315" lon="-0.92384">
        <ele>115</ele>
        <time>2025-03-07T20:17:36.785Z</time>
      </trkpt>
      <trkpt lat="46.79309" lon="-0.9237">
        <ele>114.4</ele>
        <time>2025-03-07T20:17:37.931Z</time>
      </trkpt>
      <trkpt lat="46.79298" lon="-0.92348">
        <ele>113.6</ele>
        <time>2025-03-07T20:17:39.959Z</time>
      </trkpt>
      <trkpt lat="46.79289" lon="-0.92327">
        <ele>112.7</ele>
        <time>2025-03-07T20:17:41.678Z</time>
      </trkpt>
      <trkpt lat="46.79284" lon="-0.92313">
        <ele>111.9</ele>
        <time>2025-03-07T20:17:42.683Z</time>
      </trkpt>
      <trkpt lat="46.79276" lon="-0.92297">
        <ele>110.8</ele>
        <time>2025-03-07T20:17:43.944Z</time>
      </trkpt>
      <trkpt lat="46.79269" lon="-0.92281">
        <ele>110.4</ele>
        <time>2025-03-07T20:17:45.490Z</time>
      </trkpt>
      <trkpt lat="46.79258" lon="-0.92263">
        <ele>110</ele>
        <time>2025-03-07T20:17:47.560Z</time>
      </trkpt>
      <trkpt lat="46.79253" lon="-0.92254">
        <ele>109.4</ele>
        <time>2025-03-07T20:17:48.297Z</time>
      </trkpt>
      <trkpt lat="46.79241" lon="-0.92231">
        <ele>109.2</ele>
        <time>2025-03-07T20:17:51.093Z</time>
      </trkpt>
      <trkpt lat="46.79235" lon="-0.9222">
        <ele>108.9</ele>
        <time>2025-03-07T20:17:52.235Z</time>
      </trkpt>
      <trkpt lat="46.79226" lon="-0.92205">
        <ele>108.4</ele>
        <time>2025-03-07T20:17:53.789Z</time>
      </trkpt>
      <trkpt lat="46.7922" lon="-0.92196">
        <ele>108.1</ele>
        <time>2025-03-07T20:17:54.780Z</time>
      </trkpt>
      <trkpt lat="46.79215" lon="-0.92189">
        <ele>108.1</ele>
        <time>2025-03-07T20:17:55.853Z</time>
      </trkpt>
      <trkpt lat="46.79204" lon="-0.92174">
        <ele>107.9</ele>
        <time>2025-03-07T20:17:57.919Z</time>
      </trkpt>
      <trkpt lat="46.79199" lon="-0.92167">
        <ele>107.8</ele>
        <time>2025-03-07T20:17:58.861Z</time>
      </trkpt>
      <trkpt lat="46.79171" lon="-0.92131">
        <ele>106.6</ele>
        <time>2025-03-07T20:18:03.250Z</time>
      </trkpt>
      <trkpt lat="46.79151" lon="-0.92104">
        <ele>106.7</ele>
        <time>2025-03-07T20:18:07.622Z</time>
      </trkpt>
      <trkpt lat="46.79108" lon="-0.92041">
        <ele>106.3</ele>
        <time>2025-03-07T20:18:16.501Z</time>
      </trkpt>
      <trkpt lat="46.79086" lon="-0.92006">
        <ele>105.4</ele>
        <time>2025-03-07T20:18:20.465Z</time>
      </trkpt>
      <trkpt lat="46.79061" lon="-0.91963">
        <ele>104.9</ele>
        <time>2025-03-07T20:18:25.784Z</time>
      </trkpt>
      <trkpt lat="46.79032" lon="-0.91908">
        <ele>102.4</ele>
        <time>2025-03-07T20:18:30.616Z</time>
      </trkpt>
      <trkpt lat="46.79016" lon="-0.9187">
        <ele>101.1</ele>
        <time>2025-03-07T20:18:33.944Z</time>
      </trkpt>
      <trkpt lat="46.78997" lon="-0.91829">
        <ele>101.8</ele>
        <time>2025-03-07T20:18:40.424Z</time>
      </trkpt>
      <trkpt lat="46.78978" lon="-0.91784">
        <ele>101.4</ele>
        <time>2025-03-07T20:18:45.493Z</time>
      </trkpt>
      <trkpt lat="46.78952" lon="-0.91734">
        <ele>101.2</ele>
        <time>2025-03-07T20:18:51.871Z</time>
      </trkpt>
      <trkpt lat="46.78931" lon="-0.91697">
        <ele>101.1</ele>
        <time>2025-03-07T20:18:56.826Z</time>
      </trkpt>
      <trkpt lat="46.78919" lon="-0.91676">
        <ele>101.1</ele>
        <time>2025-03-07T20:18:59.729Z</time>
      </trkpt>
      <trkpt lat="46.78898" lon="-0.91639">
        <ele>99.7</ele>
        <time>2025-03-07T20:19:03.314Z</time>
      </trkpt>
      <trkpt lat="46.78888" lon="-0.91622">
        <ele>100</ele>
        <time>2025-03-07T20:19:06.213Z</time>
      </trkpt>
      <trkpt lat="46.78873" lon="-0.91595">
        <ele>99.4</ele>
        <time>2025-03-07T20:19:09.171Z</time>
      </trkpt>
      <trkpt lat="46.7886" lon="-0.91572">
        <ele>99</ele>
        <time>2025-03-07T20:19:11.829Z</time>
      </trkpt>
      <trkpt lat="46.78834" lon="-0.91527">
        <ele>97</ele>
        <time>2025-03-07T20:19:16.011Z</time>
      </trkpt>
      <trkpt lat="46.78813" lon="-0.91489">
        <ele>94.4</ele>
        <time>2025-03-07T20:19:19.119Z</time>
      </trkpt>
      <trkpt lat="46.78802" lon="-0.91469">
        <ele>92.7</ele>
        <time>2025-03-07T20:19:20.753Z</time>
      </trkpt>
      <trkpt lat="46.78797" lon="-0.91461">
        <ele>92</ele>
        <time>2025-03-07T20:19:21.442Z</time>
      </trkpt>
      <trkpt lat="46.78785" lon="-0.91439">
        <ele>90.8</ele>
        <time>2025-03-07T20:19:23.282Z</time>
      </trkpt>
      <trkpt lat="46.78779" lon="-0.91428">
        <ele>90.4</ele>
        <time>2025-03-07T20:19:24.339Z</time>
      </trkpt>
      <trkpt lat="46.78768" lon="-0.91408">
        <ele>89.6</ele>
        <time>2025-03-07T20:19:26.212Z</time>
      </trkpt>
      <trkpt lat="46.78763" lon="-0.914">
        <ele>89.5</ele>
        <time>2025-03-07T20:19:27.229Z</time>
      </trkpt>
      <trkpt lat="46.78761" lon="-0.91395">
        <ele>89.6</ele>
        <time>2025-03-07T20:19:28.026Z</time>
      </trkpt>
      <trkpt lat="46.78758" lon="-0.9139">
        <ele>89.7</ele>
        <time>2025-03-07T20:19:28.909Z</time>
      </trkpt>
      <trkpt lat="46.78746" lon="-0.91365">
        <ele>89.9</ele>
        <time>2025-03-07T20:19:32.467Z</time>
      </trkpt>
      <trkpt lat="46.78726" lon="-0.91322">
        <ele>90.9</ele>
        <time>2025-03-07T20:19:39.857Z</time>
      </trkpt>
      <trkpt lat="46.78712" lon="-0.91288">
        <ele>92.4</ele>
        <time>2025-03-07T20:19:47.711Z</time>
      </trkpt>
      <trkpt lat="46.78698" lon="-0.91255">
        <ele>93.7</ele>
        <time>2025-03-07T20:19:54.798Z</time>
      </trkpt>
      <trkpt lat="46.78675" lon="-0.91202">
        <ele>96.2</ele>
        <time>2025-03-07T20:20:07.713Z</time>
      </trkpt>
      <trkpt lat="46.78656" lon="-0.91159">
        <ele>98.4</ele>
        <time>2025-03-07T20:20:18.909Z</time>
      </trkpt>
      <trkpt lat="46.78641" lon="-0.91127">
        <ele>99.3</ele>
        <time>2025-03-07T20:20:24.803Z</time>
      </trkpt>
      <trkpt lat="46.78624" lon="-0.91096">
        <ele>100.6</ele>
        <time>2025-03-07T20:20:31.953Z</time>
      </trkpt>
      <trkpt lat="46.786" lon="-0.91057">
        <ele>102.8</ele>
        <time>2025-03-07T20:20:43.196Z</time>
      </trkpt>
      <trkpt lat="46.78581" lon="-0.91029">
        <ele>104.3</ele>
        <time>2025-03-07T20:20:51.036Z</time>
      </trkpt>
      <trkpt lat="46.78563" lon="-0.91001">
        <ele>106.5</ele>
        <time>2025-03-07T20:21:02.187Z</time>
      </trkpt>
      <trkpt lat="46.78549" lon="-0.90968">
        <ele>107.7</ele>
        <time>2025-03-07T20:21:08.947Z</time>
      </trkpt>
      <trkpt lat="46.78542" lon="-0.90944">
        <ele>108</ele>
        <time>2025-03-07T20:21:12.224Z</time>
      </trkpt>
      <trkpt lat="46.78539" lon="-0.90933">
        <ele>108.4</ele>
        <time>2025-03-07T20:21:14.397Z</time>
      </trkpt>
      <trkpt lat="46.78535" lon="-0.90919">
        <ele>108.7</ele>
        <time>2025-03-07T20:21:16.573Z</time>
      </trkpt>
      <trkpt lat="46.78529" lon="-0.90893">
        <ele>109.8</ele>
        <time>2025-03-07T20:21:22.248Z</time>
      </trkpt>
      <trkpt lat="46.78526" lon="-0.90882">
        <ele>110.2</ele>
        <time>2025-03-07T20:21:24.421Z</time>
      </trkpt>
      <trkpt lat="46.78522" lon="-0.90869">
        <ele>110.7</ele>
        <time>2025-03-07T20:21:27.101Z</time>
      </trkpt>
      <trkpt lat="46.78515" lon="-0.90846">
        <ele>111.8</ele>
        <time>2025-03-07T20:21:32.685Z</time>
      </trkpt>
      <trkpt lat="46.78507" lon="-0.90826">
        <ele>112.8</ele>
        <time>2025-03-07T20:21:37.770Z</time>
      </trkpt>
      <trkpt lat="46.78488" lon="-0.90782">
        <ele>116.2</ele>
        <time>2025-03-07T20:21:55.400Z</time>
      </trkpt>
      <trkpt lat="46.78473" lon="-0.90745">
        <ele>117.4</ele>
        <time>2025-03-07T20:22:02.494Z</time>
      </trkpt>
      <trkpt lat="46.78456" lon="-0.90704">
        <ele>119.7</ele>
        <time>2025-03-07T20:22:14.064Z</time>
      </trkpt>
      <trkpt lat="46.78442" lon="-0.90671">
        <ele>120.9</ele>
        <time>2025-03-07T20:22:20.824Z</time>
      </trkpt>
      <trkpt lat="46.78429" lon="-0.90641">
        <ele>123.3</ele>
        <time>2025-03-07T20:22:33.351Z</time>
      </trkpt>
      <trkpt lat="46.78411" lon="-0.90598">
        <ele>125.8</ele>
        <time>2025-03-07T20:22:45.915Z</time>
      </trkpt>
      <trkpt lat="46.78401" lon="-0.90571">
        <ele>126.4</ele>
        <time>2025-03-07T20:22:50.301Z</time>
      </trkpt>
      <trkpt lat="46.78392" lon="-0.90542">
        <ele>126.6</ele>
        <time>2025-03-07T20:22:53.997Z</time>
      </trkpt>
      <trkpt lat="46.78382" lon="-0.90508">
        <ele>127.5</ele>
        <time>2025-03-07T20:22:59.730Z</time>
      </trkpt>
      <trkpt lat="46.78375" lon="-0.90483">
        <ele>128.1</ele>
        <time>2025-03-07T20:23:03.767Z</time>
      </trkpt>
      <trkpt lat="46.78374" lon="-0.90481">
        <ele>128.1</ele>
        <time>2025-03-07T20:23:04.030Z</time>
      </trkpt>
      <trkpt lat="46.7837" lon="-0.90465">
        <ele>128.4</ele>
        <time>2025-03-07T20:23:06.387Z</time>
      </trkpt>
      <trkpt lat="46.78367" lon="-0.90454">
        <ele>128.4</ele>
        <time>2025-03-07T20:23:07.644Z</time>
      </trkpt>
      <trkpt lat="46.78363" lon="-0.90441">
        <ele>128.3</ele>
        <time>2025-03-07T20:23:09.020Z</time>
      </trkpt>
      <trkpt lat="46.78354" lon="-0.90414">
        <ele>128.7</ele>
        <time>2025-03-07T20:23:12.900Z</time>
      </trkpt>
      <trkpt lat="46.7834" lon="-0.90379">
        <ele>128.6</ele>
        <time>2025-03-07T20:23:17.059Z</time>
      </trkpt>
      <trkpt lat="46.78326" lon="-0.9035">
        <ele>128.7</ele>
        <time>2025-03-07T20:23:20.976Z</time>
      </trkpt>
      <trkpt lat="46.78309" lon="-0.90322">
        <ele>128.1</ele>
        <time>2025-03-07T20:23:24.207Z</time>
      </trkpt>
      <trkpt lat="46.78292" lon="-0.90298">
        <ele>127.2</ele>
        <time>2025-03-07T20:23:26.869Z</time>
      </trkpt>
      <trkpt lat="46.78262" lon="-0.90258">
        <ele>125.6</ele>
        <time>2025-03-07T20:23:31.397Z</time>
      </trkpt>
      <trkpt lat="46.78243" lon="-0.90233">
        <ele>125.4</ele>
        <time>2025-03-07T20:23:35.083Z</time>
      </trkpt>
      <trkpt lat="46.78229" lon="-0.90216">
        <ele>125.5</ele>
        <time>2025-03-07T20:23:38.059Z</time>
      </trkpt>
      <trkpt lat="46.78221" lon="-0.90207">
        <ele>125.5</ele>
        <time>2025-03-07T20:23:39.624Z</time>
      </trkpt>
      <trkpt lat="46.78213" lon="-0.90199">
        <ele>125.5</ele>
        <time>2025-03-07T20:23:41.126Z</time>
      </trkpt>
      <trkpt lat="46.78205" lon="-0.90191">
        <ele>125.5</ele>
        <time>2025-03-07T20:23:42.629Z</time>
      </trkpt>
      <trkpt lat="46.78197" lon="-0.90185">
        <ele>125.4</ele>
        <time>2025-03-07T20:23:43.887Z</time>
      </trkpt>
      <trkpt lat="46.78188" lon="-0.90179">
        <ele>125.6</ele>
        <time>2025-03-07T20:23:45.770Z</time>
      </trkpt>
      <trkpt lat="46.78177" lon="-0.90172">
        <ele>125.8</ele>
        <time>2025-03-07T20:23:47.968Z</time>
      </trkpt>
      <trkpt lat="46.78171" lon="-0.90168">
        <ele>126</ele>
        <time>2025-03-07T20:23:49.373Z</time>
      </trkpt>
      <trkpt lat="46.78161" lon="-0.90163">
        <ele>126.1</ele>
        <time>2025-03-07T20:23:51.170Z</time>
      </trkpt>
      <trkpt lat="46.78152" lon="-0.90159">
        <ele>126.3</ele>
        <time>2025-03-07T20:23:52.980Z</time>
      </trkpt>
      <trkpt lat="46.78125" lon="-0.90144">
        <ele>126.8</ele>
        <time>2025-03-07T20:23:58.308Z</time>
      </trkpt>
      <trkpt lat="46.78107" lon="-0.90132">
        <ele>127.2</ele>
        <time>2025-03-07T20:24:02.073Z</time>
      </trkpt>
      <trkpt lat="46.78098" lon="-0.90125">
        <ele>127.5</ele>
        <time>2025-03-07T20:24:04.222Z</time>
      </trkpt>
      <trkpt lat="46.78081" lon="-0.90111">
        <ele>127.9</ele>
        <time>2025-03-07T20:24:07.947Z</time>
      </trkpt>
      <trkpt lat="46.78073" lon="-0.90103">
        <ele>128</ele>
        <time>2025-03-07T20:24:09.610Z</time>
      </trkpt>
      <trkpt lat="46.78057" lon="-0.90087">
        <ele>128.7</ele>
        <time>2025-03-07T20:24:14.028Z</time>
      </trkpt>
      <trkpt lat="46.78026" lon="-0.9005">
        <ele>129.2</ele>
        <time>2025-03-07T20:24:21.049Z</time>
      </trkpt>
      <trkpt lat="46.78004" lon="-0.90023">
        <ele>129.3</ele>
        <time>2025-03-07T20:24:25.654Z</time>
      </trkpt>
      <trkpt lat="46.77989" lon="-0.90007">
        <ele>129.4</ele>
        <time>2025-03-07T20:24:28.687Z</time>
      </trkpt>
      <trkpt lat="46.77974" lon="-0.89992">
        <ele>129.1</ele>
        <time>2025-03-07T20:24:31.115Z</time>
      </trkpt>
      <trkpt lat="46.77942" lon="-0.89962">
        <ele>127.2</ele>
        <time>2025-03-07T20:24:35.050Z</time>
      </trkpt>
      <trkpt lat="46.77933" lon="-0.89953">
        <ele>126.9</ele>
        <time>2025-03-07T20:24:36.381Z</time>
      </trkpt>
      <trkpt lat="46.7792" lon="-0.8994">
        <ele>126.2</ele>
        <time>2025-03-07T20:24:38.075Z</time>
      </trkpt>
      <trkpt lat="46.77908" lon="-0.89929">
        <ele>125.5</ele>
        <time>2025-03-07T20:24:39.547Z</time>
      </trkpt>
      <trkpt lat="46.779" lon="-0.89921">
        <ele>124.9</ele>
        <time>2025-03-07T20:24:40.475Z</time>
      </trkpt>
      <trkpt lat="46.77883" lon="-0.89906">
        <ele>123.7</ele>
        <time>2025-03-07T20:24:42.395Z</time>
      </trkpt>
      <trkpt lat="46.77866" lon="-0.8989">
        <ele>122.4</ele>
        <time>2025-03-07T20:24:44.304Z</time>
      </trkpt>
      <trkpt lat="46.77858" lon="-0.89882">
        <ele>122.2</ele>
        <time>2025-03-07T20:24:45.555Z</time>
      </trkpt>
      <trkpt lat="46.77815" lon="-0.89842">
        <ele>119.9</ele>
        <time>2025-03-07T20:24:51.010Z</time>
      </trkpt>
      <trkpt lat="46.77764" lon="-0.89795">
        <ele>115.8</ele>
        <time>2025-03-07T20:24:56.617Z</time>
      </trkpt>
      <trkpt lat="46.77716" lon="-0.89749">
        <ele>112.4</ele>
        <time>2025-03-07T20:25:02.209Z</time>
      </trkpt>
      <trkpt lat="46.77703" lon="-0.89733">
        <ele>111.5</ele>
        <time>2025-03-07T20:25:03.933Z</time>
      </trkpt>
      <trkpt lat="46.77692" lon="-0.89715">
        <ele>110.7</ele>
        <time>2025-03-07T20:25:05.661Z</time>
      </trkpt>
      <trkpt lat="46.77688" lon="-0.89705">
        <ele>110.3</ele>
        <time>2025-03-07T20:25:06.479Z</time>
      </trkpt>
      <trkpt lat="46.77683" lon="-0.89696">
        <ele>109.8</ele>
        <time>2025-03-07T20:25:07.234Z</time>
      </trkpt>
      <trkpt lat="46.7768" lon="-0.89685">
        <ele>109.1</ele>
        <time>2025-03-07T20:25:07.988Z</time>
      </trkpt>
      <trkpt lat="46.77669" lon="-0.89651">
        <ele>107.8</ele>
        <time>2025-03-07T20:25:10.644Z</time>
      </trkpt>
      <trkpt lat="46.77664" lon="-0.89636">
        <ele>107.4</ele>
        <time>2025-03-07T20:25:11.959Z</time>
      </trkpt>
      <trkpt lat="46.77658" lon="-0.89621">
        <ele>106.4</ele>
        <time>2025-03-07T20:25:13.065Z</time>
      </trkpt>
      <trkpt lat="46.77652" lon="-0.89607">
        <ele>106.1</ele>
        <time>2025-03-07T20:25:14.456Z</time>
      </trkpt>
      <trkpt lat="46.77642" lon="-0.89593">
        <ele>107.4</ele>
        <time>2025-03-07T20:25:21.174Z</time>
      </trkpt>
      <trkpt lat="46.77633" lon="-0.89581">
        <ele>109.2</ele>
        <time>2025-03-07T20:25:29.268Z</time>
      </trkpt>
      <trkpt lat="46.77626" lon="-0.89573">
        <ele>109.6</ele>
        <time>2025-03-07T20:25:31.525Z</time>
      </trkpt>
      <trkpt lat="46.77621" lon="-0.8957">
        <ele>110</ele>
        <time>2025-03-07T20:25:33.535Z</time>
      </trkpt>
      <trkpt lat="46.77617" lon="-0.89569">
        <ele>110.2</ele>
        <time>2025-03-07T20:25:34.622Z</time>
      </trkpt>
      <trkpt lat="46.77608" lon="-0.89563">
        <ele>110.9</ele>
        <time>2025-03-07T20:25:38.142Z</time>
      </trkpt>
      <trkpt lat="46.77603" lon="-0.89556">
        <ele>111.3</ele>
        <time>2025-03-07T20:25:40.212Z</time>
      </trkpt>
      <trkpt lat="46.77592" lon="-0.89544">
        <ele>111.8</ele>
        <time>2025-03-07T20:25:43.352Z</time>
      </trkpt>
      <trkpt lat="46.7759" lon="-0.8954">
        <ele>111.9</ele>
        <time>2025-03-07T20:25:44.068Z</time>
      </trkpt>
      <trkpt lat="46.77583" lon="-0.89531">
        <ele>112</ele>
        <time>2025-03-07T20:25:45.674Z</time>
      </trkpt>
      <trkpt lat="46.77567" lon="-0.89511">
        <ele>114.5</ele>
        <time>2025-03-07T20:25:58.890Z</time>
      </trkpt>
      <trkpt lat="46.77534" lon="-0.8948">
        <ele>117</ele>
        <time>2025-03-07T20:26:11.584Z</time>
      </trkpt>
      <trkpt lat="46.775" lon="-0.89453">
        <ele>118</ele>
        <time>2025-03-07T20:26:19.418Z</time>
      </trkpt>
      <trkpt lat="46.77467" lon="-0.8943">
        <ele>118.4</ele>
        <time>2025-03-07T20:26:25.730Z</time>
      </trkpt>
      <trkpt lat="46.77444" lon="-0.89411">
        <ele>119.2</ele>
        <time>2025-03-07T20:26:31.354Z</time>
      </trkpt>
      <trkpt lat="46.77425" lon="-0.89393">
        <ele>119.7</ele>
        <time>2025-03-07T20:26:35.752Z</time>
      </trkpt>
      <trkpt lat="46.77411" lon="-0.89378">
        <ele>119.8</ele>
        <time>2025-03-07T20:26:38.597Z</time>
      </trkpt>
      <trkpt lat="46.77404" lon="-0.89366">
        <ele>119.5</ele>
        <time>2025-03-07T20:26:39.911Z</time>
      </trkpt>
      <trkpt lat="46.77393" lon="-0.89348">
        <ele>119.6</ele>
        <time>2025-03-07T20:26:42.626Z</time>
      </trkpt>
      <trkpt lat="46.77384" lon="-0.89331">
        <ele>119.9</ele>
        <time>2025-03-07T20:26:45.432Z</time>
      </trkpt>
      <trkpt lat="46.77373" lon="-0.89306">
        <ele>120.4</ele>
        <time>2025-03-07T20:26:49.493Z</time>
      </trkpt>
      <trkpt lat="46.77367" lon="-0.89294">
        <ele>120.2</ele>
        <time>2025-03-07T20:26:50.816Z</time>
      </trkpt>
      <trkpt lat="46.77364" lon="-0.89287">
        <ele>120.1</ele>
        <time>2025-03-07T20:26:51.564Z</time>
      </trkpt>
      <trkpt lat="46.77354" lon="-0.89265">
        <ele>120.3</ele>
        <time>2025-03-07T20:26:54.689Z</time>
      </trkpt>
      <trkpt lat="46.77339" lon="-0.89228">
        <ele>121.2</ele>
        <time>2025-03-07T20:27:00.978Z</time>
      </trkpt>
      <trkpt lat="46.77326" lon="-0.89201">
        <ele>121.8</ele>
        <time>2025-03-07T20:27:05.590Z</time>
      </trkpt>
      <trkpt lat="46.77319" lon="-0.8919">
        <ele>122.1</ele>
        <time>2025-03-07T20:27:07.751Z</time>
      </trkpt>
      <trkpt lat="46.77313" lon="-0.8918">
        <ele>122.1</ele>
        <time>2025-03-07T20:27:09.162Z</time>
      </trkpt>
      <trkpt lat="46.77303" lon="-0.89167">
        <ele>121.8</ele>
        <time>2025-03-07T20:27:10.864Z</time>
      </trkpt>
      <trkpt lat="46.77299" lon="-0.89163">
        <ele>121.7</ele>
        <time>2025-03-07T20:27:11.490Z</time>
      </trkpt>
      <trkpt lat="46.7729" lon="-0.89156">
        <ele>121.5</ele>
        <time>2025-03-07T20:27:12.816Z</time>
      </trkpt>
      <trkpt lat="46.77271" lon="-0.89142">
        <ele>121.8</ele>
        <time>2025-03-07T20:27:16.611Z</time>
      </trkpt>
      <trkpt lat="46.77258" lon="-0.89135">
        <ele>122.2</ele>
        <time>2025-03-07T20:27:19.513Z</time>
      </trkpt>
      <trkpt lat="46.77249" lon="-0.89129">
        <ele>122.7</ele>
        <time>2025-03-07T20:27:22.206Z</time>
      </trkpt>
      <trkpt lat="46.77245" lon="-0.89126">
        <ele>122.9</ele>
        <time>2025-03-07T20:27:23.340Z</time>
      </trkpt>
      <trkpt lat="46.77228" lon="-0.89115">
        <ele>123.1</ele>
        <time>2025-03-07T20:27:26.544Z</time>
      </trkpt>
      <trkpt lat="46.77218" lon="-0.89108">
        <ele>123.1</ele>
        <time>2025-03-07T20:27:28.262Z</time>
      </trkpt>
      <trkpt lat="46.77205" lon="-0.89096">
        <ele>123.5</ele>
        <time>2025-03-07T20:27:31.381Z</time>
      </trkpt>
      <trkpt lat="46.77193" lon="-0.89085">
        <ele>123.9</ele>
        <time>2025-03-07T20:27:34.328Z</time>
      </trkpt>
      <trkpt lat="46.77187" lon="-0.89077">
        <ele>123.8</ele>
        <time>2025-03-07T20:27:35.453Z</time>
      </trkpt>
      <trkpt lat="46.77177" lon="-0.89065">
        <ele>123.8</ele>
        <time>2025-03-07T20:27:37.459Z</time>
      </trkpt>
      <trkpt lat="46.77166" lon="-0.8905">
        <ele>124</ele>
        <time>2025-03-07T20:27:40.120Z</time>
      </trkpt>
      <trkpt lat="46.7715" lon="-0.89025">
        <ele>123.5</ele>
        <time>2025-03-07T20:27:43.126Z</time>
      </trkpt>
      <trkpt lat="46.7713" lon="-0.88991">
        <ele>123.7</ele>
        <time>2025-03-07T20:27:48.194Z</time>
      </trkpt>
      <trkpt lat="46.77105" lon="-0.8895">
        <ele>123.6</ele>
        <time>2025-03-07T20:27:53.876Z</time>
      </trkpt>
      <trkpt lat="46.77089" lon="-0.88929">
        <ele>123.2</ele>
        <time>2025-03-07T20:27:56.699Z</time>
      </trkpt>
      <trkpt lat="46.77072" lon="-0.88911">
        <ele>122.8</ele>
        <time>2025-03-07T20:27:59.444Z</time>
      </trkpt>
      <trkpt lat="46.77052" lon="-0.88897">
        <ele>122.6</ele>
        <time>2025-03-07T20:28:02.606Z</time>
      </trkpt>
      <trkpt lat="46.77027" lon="-0.88879">
        <ele>122</ele>
        <time>2025-03-07T20:28:06.176Z</time>
      </trkpt>
      <trkpt lat="46.76999" lon="-0.88854">
        <ele>121</ele>
        <time>2025-03-07T20:28:10.088Z</time>
      </trkpt>
      <trkpt lat="46.76974" lon="-0.88825">
        <ele>121.9</ele>
        <time>2025-03-07T20:28:16.725Z</time>
      </trkpt>
      <trkpt lat="46.76944" lon="-0.88791">
        <ele>123</ele>
        <time>2025-03-07T20:28:24.688Z</time>
      </trkpt>
      <trkpt lat="46.76921" lon="-0.88766">
        <ele>123.8</ele>
        <time>2025-03-07T20:28:30.628Z</time>
      </trkpt>
      <trkpt lat="46.76878" lon="-0.8872">
        <ele>126.4</ele>
        <time>2025-03-07T20:28:44.816Z</time>
      </trkpt>
      <trkpt lat="46.76863" lon="-0.88698">
        <ele>126.9</ele>
        <time>2025-03-07T20:28:49.010Z</time>
      </trkpt>
      <trkpt lat="46.76824" lon="-0.88641">
        <ele>129.3</ele>
        <time>2025-03-07T20:29:02.759Z</time>
      </trkpt>
      <trkpt lat="46.76798" lon="-0.88601">
        <ele>130</ele>
        <time>2025-03-07T20:29:09.817Z</time>
      </trkpt>
      <trkpt lat="46.76779" lon="-0.88571">
        <ele>130.4</ele>
        <time>2025-03-07T20:29:14.818Z</time>
      </trkpt>
      <trkpt lat="46.7676" lon="-0.88539">
        <ele>131</ele>
        <time>2025-03-07T20:29:20.365Z</time>
      </trkpt>
      <trkpt lat="46.76747" lon="-0.88518">
        <ele>131</ele>
        <time>2025-03-07T20:29:23.369Z</time>
      </trkpt>
      <trkpt lat="46.76716" lon="-0.8846">
        <ele>130.8</ele>
        <time>2025-03-07T20:29:30.893Z</time>
      </trkpt>
      <trkpt lat="46.76679" lon="-0.88392">
        <ele>128.6</ele>
        <time>2025-03-07T20:29:37.642Z</time>
      </trkpt>
      <trkpt lat="46.76654" lon="-0.88346">
        <ele>128</ele>
        <time>2025-03-07T20:29:43.088Z</time>
      </trkpt>
      <trkpt lat="46.76633" lon="-0.88309">
        <ele>127.8</ele>
        <time>2025-03-07T20:29:47.907Z</time>
      </trkpt>
      <trkpt lat="46.76607" lon="-0.88263">
        <ele>127</ele>
        <time>2025-03-07T20:29:53.223Z</time>
      </trkpt>
      <trkpt lat="46.7659" lon="-0.88234">
        <ele>127</ele>
        <time>2025-03-07T20:29:57.275Z</time>
      </trkpt>
      <trkpt lat="46.7657" lon="-0.88208">
        <ele>126</ele>
        <time>2025-03-07T20:30:00.306Z</time>
      </trkpt>
      <trkpt lat="46.76552" lon="-0.88188">
        <ele>124.9</ele>
        <time>2025-03-07T20:30:02.668Z</time>
      </trkpt>
      <trkpt lat="46.76528" lon="-0.88167">
        <ele>123</ele>
        <time>2025-03-07T20:30:05.269Z</time>
      </trkpt>
      <trkpt lat="46.76498" lon="-0.8814">
        <ele>121.9</ele>
        <time>2025-03-07T20:30:09.447Z</time>
      </trkpt>
      <trkpt lat="46.76489" lon="-0.88133">
        <ele>120.9</ele>
        <time>2025-03-07T20:30:10.395Z</time>
      </trkpt>
      <trkpt lat="46.76458" lon="-0.88107">
        <ele>117.8</ele>
        <time>2025-03-07T20:30:13.719Z</time>
      </trkpt>
      <trkpt lat="46.76411" lon="-0.88068">
        <ele>113.7</ele>
        <time>2025-03-07T20:30:18.746Z</time>
      </trkpt>
      <trkpt lat="46.76396" lon="-0.88054">
        <ele>112.4</ele>
        <time>2025-03-07T20:30:20.401Z</time>
      </trkpt>
      <trkpt lat="46.76378" lon="-0.88031">
        <ele>111.1</ele>
        <time>2025-03-07T20:30:22.805Z</time>
      </trkpt>
      <trkpt lat="46.76363" lon="-0.88003">
        <ele>110.1</ele>
        <time>2025-03-07T20:30:25.487Z</time>
      </trkpt>
      <trkpt lat="46.76346" lon="-0.87963">
        <ele>109.5</ele>
        <time>2025-03-07T20:30:29.717Z</time>
      </trkpt>
      <trkpt lat="46.7633" lon="-0.87923">
        <ele>108.3</ele>
        <time>2025-03-07T20:30:33.295Z</time>
      </trkpt>
      <trkpt lat="46.76312" lon="-0.8788">
        <ele>107.5</ele>
        <time>2025-03-07T20:30:37.656Z</time>
      </trkpt>
      <trkpt lat="46.76301" lon="-0.87855">
        <ele>106.8</ele>
        <time>2025-03-07T20:30:40.011Z</time>
      </trkpt>
      <trkpt lat="46.76285" lon="-0.87827">
        <ele>105.7</ele>
        <time>2025-03-07T20:30:42.704Z</time>
      </trkpt>
      <trkpt lat="46.7628" lon="-0.87819">
        <ele>105.4</ele>
        <time>2025-03-07T20:30:43.524Z</time>
      </trkpt>
      <trkpt lat="46.76273" lon="-0.87806">
        <ele>105</ele>
        <time>2025-03-07T20:30:44.826Z</time>
      </trkpt>
      <trkpt lat="46.7626" lon="-0.87791">
        <ele>104.3</ele>
        <time>2025-03-07T20:30:46.635Z</time>
      </trkpt>
      <trkpt lat="46.76237" lon="-0.87764">
        <ele>103.3</ele>
        <time>2025-03-07T20:30:50.062Z</time>
      </trkpt>
      <trkpt lat="46.76225" lon="-0.8775">
        <ele>103</ele>
        <time>2025-03-07T20:30:52.062Z</time>
      </trkpt>
      <trkpt lat="46.76213" lon="-0.87736">
        <ele>101.8</ele>
        <time>2025-03-07T20:30:53.491Z</time>
      </trkpt>
      <trkpt lat="46.76203" lon="-0.87722">
        <ele>101</ele>
        <time>2025-03-07T20:30:54.853Z</time>
      </trkpt>
      <trkpt lat="46.76197" lon="-0.87711">
        <ele>101.4</ele>
        <time>2025-03-07T20:30:57.196Z</time>
      </trkpt>
      <trkpt lat="46.76192" lon="-0.87702">
        <ele>101.7</ele>
        <time>2025-03-07T20:30:59.041Z</time>
      </trkpt>
      <trkpt lat="46.76189" lon="-0.87694">
        <ele>101.8</ele>
        <time>2025-03-07T20:31:00.177Z</time>
      </trkpt>
      <trkpt lat="46.76187" lon="-0.87691">
        <ele>101.6</ele>
        <time>2025-03-07T20:31:00.444Z</time>
      </trkpt>
      <trkpt lat="46.76185" lon="-0.87684">
        <ele>101.4</ele>
        <time>2025-03-07T20:31:01.027Z</time>
      </trkpt>
      <trkpt lat="46.76181" lon="-0.87673">
        <ele>101.1</ele>
        <time>2025-03-07T20:31:02.008Z</time>
      </trkpt>
      <trkpt lat="46.76177" lon="-0.87659">
        <ele>101.4</ele>
        <time>2025-03-07T20:31:04.185Z</time>
      </trkpt>
      <trkpt lat="46.76177" lon="-0.87657">
        <ele>101.6</ele>
        <time>2025-03-07T20:31:05.095Z</time>
      </trkpt>
      <trkpt lat="46.76174" lon="-0.87643">
        <ele>102.5</ele>
        <time>2025-03-07T20:31:09.705Z</time>
      </trkpt>
      <trkpt lat="46.76168" lon="-0.8762">
        <ele>104.3</ele>
        <time>2025-03-07T20:31:19.224Z</time>
      </trkpt>
      <trkpt lat="46.76163" lon="-0.87605">
        <ele>105.4</ele>
        <time>2025-03-07T20:31:24.937Z</time>
      </trkpt>
      <trkpt lat="46.76158" lon="-0.87592">
        <ele>106.2</ele>
        <time>2025-03-07T20:31:28.966Z</time>
      </trkpt>
      <trkpt lat="46.76152" lon="-0.87579">
        <ele>107.2</ele>
        <time>2025-03-07T20:31:34.126Z</time>
      </trkpt>
      <trkpt lat="46.76144" lon="-0.87567">
        <ele>107.8</ele>
        <time>2025-03-07T20:31:37.320Z</time>
      </trkpt>
      <trkpt lat="46.76136" lon="-0.87557">
        <ele>108.3</ele>
        <time>2025-03-07T20:31:40.078Z</time>
      </trkpt>
      <trkpt lat="46.76124" lon="-0.87543">
        <ele>110</ele>
        <time>2025-03-07T20:31:49.098Z</time>
      </trkpt>
      <trkpt lat="46.76105" lon="-0.87521">
        <ele>111</ele>
        <time>2025-03-07T20:31:54.975Z</time>
      </trkpt>
      <trkpt lat="46.76094" lon="-0.87507">
        <ele>112.1</ele>
        <time>2025-03-07T20:32:00.505Z</time>
      </trkpt>
      <trkpt lat="46.76087" lon="-0.87495">
        <ele>112.3</ele>
        <time>2025-03-07T20:32:02.522Z</time>
      </trkpt>
      <trkpt lat="46.76078" lon="-0.8748">
        <ele>112.3</ele>
        <time>2025-03-07T20:32:04.639Z</time>
      </trkpt>
      <trkpt lat="46.76066" lon="-0.87456">
        <ele>112.3</ele>
        <time>2025-03-07T20:32:07.793Z</time>
      </trkpt>
      <trkpt lat="46.76058" lon="-0.87442">
        <ele>112.3</ele>
        <time>2025-03-07T20:32:09.729Z</time>
      </trkpt>
      <trkpt lat="46.76042" lon="-0.87413">
        <ele>111.7</ele>
        <time>2025-03-07T20:32:12.942Z</time>
      </trkpt>
      <trkpt lat="46.76019" lon="-0.8737">
        <ele>111.9</ele>
        <time>2025-03-07T20:32:19.042Z</time>
      </trkpt>
      <trkpt lat="46.75998" lon="-0.87334">
        <ele>113</ele>
        <time>2025-03-07T20:32:26.237Z</time>
      </trkpt>
      <trkpt lat="46.75972" lon="-0.87285">
        <ele>114.7</ele>
        <time>2025-03-07T20:32:36.378Z</time>
      </trkpt>
      <trkpt lat="46.75942" lon="-0.87232">
        <ele>116.7</ele>
        <time>2025-03-07T20:32:47.965Z</time>
      </trkpt>
      <trkpt lat="46.75909" lon="-0.87173">
        <ele>119.1</ele>
        <time>2025-03-07T20:33:01.376Z</time>
      </trkpt>
      <trkpt lat="46.75879" lon="-0.87121">
        <ele>121.7</ele>
        <time>2025-03-07T20:33:14.949Z</time>
      </trkpt>
      <trkpt lat="46.75848" lon="-0.87066">
        <ele>123.3</ele>
        <time>2025-03-07T20:33:25.641Z</time>
      </trkpt>
      <trkpt lat="46.75816" lon="-0.8701">
        <ele>124.4</ele>
        <time>2025-03-07T20:33:35.335Z</time>
      </trkpt>
      <trkpt lat="46.75789" lon="-0.86964">
        <ele>125.3</ele>
        <time>2025-03-07T20:33:43.358Z</time>
      </trkpt>
      <trkpt lat="46.75763" lon="-0.86919">
        <ele>126</ele>
        <time>2025-03-07T20:33:50.800Z</time>
      </trkpt>
      <trkpt lat="46.75751" lon="-0.86898">
        <ele>126</ele>
        <time>2025-03-07T20:33:53.703Z</time>
      </trkpt>
      <trkpt lat="46.75726" lon="-0.86855">
        <ele>126</ele>
        <time>2025-03-07T20:33:59.691Z</time>
      </trkpt>
      <trkpt lat="46.75707" lon="-0.86821">
        <ele>125.5</ele>
        <time>2025-03-07T20:34:03.701Z</time>
      </trkpt>
      <trkpt lat="46.75701" lon="-0.86807">
        <ele>125.2</ele>
        <time>2025-03-07T20:34:05.092Z</time>
      </trkpt>
      <trkpt lat="46.75691" lon="-0.86785">
        <ele>124.9</ele>
        <time>2025-03-07T20:34:07.506Z</time>
      </trkpt>
      <trkpt lat="46.75669" lon="-0.86732">
        <ele>124</ele>
        <time>2025-03-07T20:34:12.957Z</time>
      </trkpt>
      <trkpt lat="46.75647" lon="-0.86684">
        <ele>122.3</ele>
        <time>2025-03-07T20:34:17.255Z</time>
      </trkpt>
      <trkpt lat="46.75632" lon="-0.86648">
        <ele>121</ele>
        <time>2025-03-07T20:34:20.346Z</time>
      </trkpt>
      <trkpt lat="46.7562" lon="-0.8662">
        <ele>120.8</ele>
        <time>2025-03-07T20:34:23.577Z</time>
      </trkpt>
      <trkpt lat="46.75609" lon="-0.86596">
        <ele>121</ele>
        <time>2025-03-07T20:34:26.963Z</time>
      </trkpt>
      <trkpt lat="46.75592" lon="-0.86557">
        <ele>121.3</ele>
        <time>2025-03-07T20:34:32.349Z</time>
      </trkpt>
      <trkpt lat="46.75577" lon="-0.86521">
        <ele>121.8</ele>
        <time>2025-03-07T20:34:37.674Z</time>
      </trkpt>
      <trkpt lat="46.75567" lon="-0.86501">
        <ele>121.4</ele>
        <time>2025-03-07T20:34:39.810Z</time>
      </trkpt>
      <trkpt lat="46.75563" lon="-0.86492">
        <ele>121.3</ele>
        <time>2025-03-07T20:34:40.816Z</time>
      </trkpt>
      <trkpt lat="46.75556" lon="-0.86481">
        <ele>121</ele>
        <time>2025-03-07T20:34:42.055Z</time>
      </trkpt>
      <trkpt lat="46.75549" lon="-0.86471">
        <ele>121</ele>
        <time>2025-03-07T20:34:43.572Z</time>
      </trkpt>
      <trkpt lat="46.75543" lon="-0.86465">
        <ele>121</ele>
        <time>2025-03-07T20:34:44.700Z</time>
      </trkpt>
      <trkpt lat="46.75537" lon="-0.86461">
        <ele>120.9</ele>
        <time>2025-03-07T20:34:45.591Z</time>
      </trkpt>
      <trkpt lat="46.75531" lon="-0.86457">
        <ele>120.6</ele>
        <time>2025-03-07T20:34:46.295Z</time>
      </trkpt>
      <trkpt lat="46.75525" lon="-0.86455">
        <ele>120.3</ele>
        <time>2025-03-07T20:34:46.937Z</time>
      </trkpt>
      <trkpt lat="46.75519" lon="-0.86454">
        <ele>120</ele>
        <time>2025-03-07T20:34:47.563Z</time>
      </trkpt>
      <trkpt lat="46.75512" lon="-0.86454">
        <ele>119.8</ele>
        <time>2025-03-07T20:34:48.410Z</time>
      </trkpt>
      <trkpt lat="46.75506" lon="-0.86455">
        <ele>119.6</ele>
        <time>2025-03-07T20:34:49.115Z</time>
      </trkpt>
      <trkpt lat="46.75499" lon="-0.86457">
        <ele>119.4</ele>
        <time>2025-03-07T20:34:49.982Z</time>
      </trkpt>
      <trkpt lat="46.7548" lon="-0.86464">
        <ele>119.2</ele>
        <time>2025-03-07T20:34:52.747Z</time>
      </trkpt>
      <trkpt lat="46.75444" lon="-0.8648">
        <ele>118</ele>
        <time>2025-03-07T20:34:57.184Z</time>
      </trkpt>
      <trkpt lat="46.75419" lon="-0.8649">
        <ele>117.1</ele>
        <time>2025-03-07T20:35:00.175Z</time>
      </trkpt>
      <trkpt lat="46.75411" lon="-0.86492">
        <ele>116.9</ele>
        <time>2025-03-07T20:35:01.188Z</time>
      </trkpt>
      <trkpt lat="46.75399" lon="-0.86494">
        <ele>116.5</ele>
        <time>2025-03-07T20:35:02.599Z</time>
      </trkpt>
      <trkpt lat="46.75389" lon="-0.86494">
        <ele>116.2</ele>
        <time>2025-03-07T20:35:03.796Z</time>
      </trkpt>
      <trkpt lat="46.7538" lon="-0.86494">
        <ele>115.9</ele>
        <time>2025-03-07T20:35:04.845Z</time>
      </trkpt>
      <trkpt lat="46.75371" lon="-0.86492">
        <ele>115.6</ele>
        <time>2025-03-07T20:35:05.910Z</time>
      </trkpt>
      <trkpt lat="46.75359" lon="-0.8649">
        <ele>115.3</ele>
        <time>2025-03-07T20:35:07.415Z</time>
      </trkpt>
      <trkpt lat="46.75351" lon="-0.86487">
        <ele>115.1</ele>
        <time>2025-03-07T20:35:08.450Z</time>
      </trkpt>
      <trkpt lat="46.75343" lon="-0.86482">
        <ele>115</ele>
        <time>2025-03-07T20:35:09.664Z</time>
      </trkpt>
      <trkpt lat="46.75334" lon="-0.86476">
        <ele>114.9</ele>
        <time>2025-03-07T20:35:11.061Z</time>
      </trkpt>
      <trkpt lat="46.75327" lon="-0.86469">
        <ele>114.9</ele>
        <time>2025-03-07T20:35:12.376Z</time>
      </trkpt>
      <trkpt lat="46.75321" lon="-0.86463">
        <ele>114.9</ele>
        <time>2025-03-07T20:35:13.503Z</time>
      </trkpt>
      <trkpt lat="46.75315" lon="-0.86455">
        <ele>115</ele>
        <time>2025-03-07T20:35:14.926Z</time>
      </trkpt>
      <trkpt lat="46.75299" lon="-0.8643">
        <ele>114.8</ele>
        <time>2025-03-07T20:35:18.282Z</time>
      </trkpt>
      <trkpt lat="46.75273" lon="-0.86391">
        <ele>114.8</ele>
        <time>2025-03-07T20:35:24.060Z</time>
      </trkpt>
      <trkpt lat="46.75248" lon="-0.86349">
        <ele>114</ele>
        <time>2025-03-07T20:35:28.963Z</time>
      </trkpt>
      <trkpt lat="46.75217" lon="-0.863">
        <ele>115.2</ele>
        <time>2025-03-07T20:35:38.256Z</time>
      </trkpt>
      <trkpt lat="46.75182" lon="-0.86245">
        <ele>117.2</ele>
        <time>2025-03-07T20:35:50.370Z</time>
      </trkpt>
      <trkpt lat="46.75161" lon="-0.8621">
        <ele>118</ele>
        <time>2025-03-07T20:35:56.769Z</time>
      </trkpt>
      <trkpt lat="46.75148" lon="-0.86191">
        <ele>118.1</ele>
        <time>2025-03-07T20:35:59.774Z</time>
      </trkpt>
      <trkpt lat="46.75139" lon="-0.86177">
        <ele>118.6</ele>
        <time>2025-03-07T20:36:02.840Z</time>
      </trkpt>
      <trkpt lat="46.7513" lon="-0.86167">
        <ele>119.3</ele>
        <time>2025-03-07T20:36:06.411Z</time>
      </trkpt>
      <trkpt lat="46.75123" lon="-0.86159">
        <ele>119.7</ele>
        <time>2025-03-07T20:36:08.667Z</time>
      </trkpt>
      <trkpt lat="46.75105" lon="-0.86141">
        <ele>120.2</ele>
        <time>2025-03-07T20:36:12.943Z</time>
      </trkpt>
      <trkpt lat="46.75096" lon="-0.86133">
        <ele>120.6</ele>
        <time>2025-03-07T20:36:15.398Z</time>
      </trkpt>
      <trkpt lat="46.75082" lon="-0.86123">
        <ele>121</ele>
        <time>2025-03-07T20:36:18.546Z</time>
      </trkpt>
      <trkpt lat="46.75075" lon="-0.86118">
        <ele>121.3</ele>
        <time>2025-03-07T20:36:20.373Z</time>
      </trkpt>
      <trkpt lat="46.75057" lon="-0.86107">
        <ele>122</ele>
        <time>2025-03-07T20:36:24.807Z</time>
      </trkpt>
      <trkpt lat="46.75038" lon="-0.86094">
        <ele>122.4</ele>
        <time>2025-03-07T20:36:28.750Z</time>
      </trkpt>
      <trkpt lat="46.75016" lon="-0.8608">
        <ele>122.9</ele>
        <time>2025-03-07T20:36:33.348Z</time>
      </trkpt>
      <trkpt lat="46.74995" lon="-0.86067">
        <ele>122.9</ele>
        <time>2025-03-07T20:36:36.883Z</time>
      </trkpt>
      <trkpt lat="46.7498" lon="-0.86057">
        <ele>122.3</ele>
        <time>2025-03-07T20:36:38.762Z</time>
      </trkpt>
      <trkpt lat="46.74958" lon="-0.86043">
        <ele>122</ele>
        <time>2025-03-07T20:36:42.080Z</time>
      </trkpt>
      <trkpt lat="46.74936" lon="-0.8603">
        <ele>120.8</ele>
        <time>2025-03-07T20:36:44.527Z</time>
      </trkpt>
      <trkpt lat="46.74916" lon="-0.86018">
        <ele>120.3</ele>
        <time>2025-03-07T20:36:47.260Z</time>
      </trkpt>
      <trkpt lat="46.74899" lon="-0.86006">
        <ele>119.8</ele>
        <time>2025-03-07T20:36:49.582Z</time>
      </trkpt>
      <trkpt lat="46.74886" lon="-0.85995">
        <ele>118.9</ele>
        <time>2025-03-07T20:36:51.040Z</time>
      </trkpt>
      <trkpt lat="46.74877" lon="-0.85987">
        <ele>118.4</ele>
        <time>2025-03-07T20:36:52.149Z</time>
      </trkpt>
      <trkpt lat="46.74868" lon="-0.85977">
        <ele>117.6</ele>
        <time>2025-03-07T20:36:53.201Z</time>
      </trkpt>
      <trkpt lat="46.74856" lon="-0.85963">
        <ele>116.9</ele>
        <time>2025-03-07T20:36:54.840Z</time>
      </trkpt>
      <trkpt lat="46.74845" lon="-0.85948">
        <ele>116.5</ele>
        <time>2025-03-07T20:36:56.690Z</time>
      </trkpt>
      <trkpt lat="46.74835" lon="-0.85934">
        <ele>115.7</ele>
        <time>2025-03-07T20:36:58.052Z</time>
      </trkpt>
      <trkpt lat="46.74826" lon="-0.85922">
        <ele>115</ele>
        <time>2025-03-07T20:36:59.253Z</time>
      </trkpt>
      <trkpt lat="46.74816" lon="-0.85906">
        <ele>114</ele>
        <time>2025-03-07T20:37:00.633Z</time>
      </trkpt>
      <trkpt lat="46.74813" lon="-0.85901">
        <ele>113.6</ele>
        <time>2025-03-07T20:37:01.056Z</time>
      </trkpt>
      <trkpt lat="46.74807" lon="-0.8589">
        <ele>112.3</ele>
        <time>2025-03-07T20:37:01.952Z</time>
      </trkpt>
      <trkpt lat="46.74788" lon="-0.85856">
        <ele>110.8</ele>
        <time>2025-03-07T20:37:05.065Z</time>
      </trkpt>
      <trkpt lat="46.74774" lon="-0.85827">
        <ele>109.8</ele>
        <time>2025-03-07T20:37:07.740Z</time>
      </trkpt>
      <trkpt lat="46.74763" lon="-0.85808">
        <ele>108.5</ele>
        <time>2025-03-07T20:37:09.325Z</time>
      </trkpt>
      <trkpt lat="46.74761" lon="-0.85806">
        <ele>108.2</ele>
        <time>2025-03-07T20:37:09.550Z</time>
      </trkpt>
      <trkpt lat="46.74756" lon="-0.85797">
        <ele>107.5</ele>
        <time>2025-03-07T20:37:10.288Z</time>
      </trkpt>
      <trkpt lat="46.74749" lon="-0.85787">
        <ele>106.3</ele>
        <time>2025-03-07T20:37:11.199Z</time>
      </trkpt>
      <trkpt lat="46.74742" lon="-0.85778">
        <ele>105.7</ele>
        <time>2025-03-07T20:37:12.079Z</time>
      </trkpt>
      <trkpt lat="46.74734" lon="-0.85771">
        <ele>105.4</ele>
        <time>2025-03-07T20:37:13.177Z</time>
      </trkpt>
      <trkpt lat="46.74726" lon="-0.85765">
        <ele>104.8</ele>
        <time>2025-03-07T20:37:14.013Z</time>
      </trkpt>
      <trkpt lat="46.74718" lon="-0.85759">
        <ele>104.2</ele>
        <time>2025-03-07T20:37:14.850Z</time>
      </trkpt>
      <trkpt lat="46.74703" lon="-0.85751">
        <ele>104</ele>
        <time>2025-03-07T20:37:17.057Z</time>
      </trkpt>
      <trkpt lat="46.74686" lon="-0.85742">
        <ele>103.1</ele>
        <time>2025-03-07T20:37:18.931Z</time>
      </trkpt>
      <trkpt lat="46.74677" lon="-0.85736">
        <ele>102.7</ele>
        <time>2025-03-07T20:37:20.026Z</time>
      </trkpt>
      <trkpt lat="46.74671" lon="-0.85731">
        <ele>102.7</ele>
        <time>2025-03-07T20:37:21.096Z</time>
      </trkpt>
      <trkpt lat="46.74666" lon="-0.85725">
        <ele>102.9</ele>
        <time>2025-03-07T20:37:22.484Z</time>
      </trkpt>
      <trkpt lat="46.74664" lon="-0.85722">
        <ele>103</ele>
        <time>2025-03-07T20:37:23.128Z</time>
      </trkpt>
      <trkpt lat="46.74659" lon="-0.85714">
        <ele>103.1</ele>
        <time>2025-03-07T20:37:24.443Z</time>
      </trkpt>
      <trkpt lat="46.74657" lon="-0.8571">
        <ele>103.2</ele>
        <time>2025-03-07T20:37:25.158Z</time>
      </trkpt>
      <trkpt lat="46.74652" lon="-0.85698">
        <ele>103.5</ele>
        <time>2025-03-07T20:37:27.228Z</time>
      </trkpt>
      <trkpt lat="46.7464" lon="-0.8567">
        <ele>104.8</ele>
        <time>2025-03-07T20:37:33.964Z</time>
      </trkpt>
      <trkpt lat="46.74632" lon="-0.85649">
        <ele>106</ele>
        <time>2025-03-07T20:37:39.994Z</time>
      </trkpt>
      <trkpt lat="46.74623" lon="-0.85629">
        <ele>106.7</ele>
        <time>2025-03-07T20:37:44.039Z</time>
      </trkpt>
      <trkpt lat="46.74617" lon="-0.85616">
        <ele>107</ele>
        <time>2025-03-07T20:37:46.265Z</time>
      </trkpt>
      <trkpt lat="46.74609" lon="-0.85602">
        <ele>107.8</ele>
        <time>2025-03-07T20:37:50.324Z</time>
      </trkpt>
      <trkpt lat="46.74595" lon="-0.8558">
        <ele>109.1</ele>
        <time>2025-03-07T20:37:56.933Z</time>
      </trkpt>
      <trkpt lat="46.74571" lon="-0.85541">
        <ele>111.3</ele>
        <time>2025-03-07T20:38:08.177Z</time>
      </trkpt>
      <trkpt lat="46.74554" lon="-0.85515">
        <ele>112.5</ele>
        <time>2025-03-07T20:38:14.727Z</time>
      </trkpt>
      <trkpt lat="46.74551" lon="-0.85507">
        <ele>112.7</ele>
        <time>2025-03-07T20:38:16.084Z</time>
      </trkpt>
      <trkpt lat="46.74548" lon="-0.85498">
        <ele>113.1</ele>
        <time>2025-03-07T20:38:18.150Z</time>
      </trkpt>
      <trkpt lat="46.74547" lon="-0.85489">
        <ele>113.4</ele>
        <time>2025-03-07T20:38:19.797Z</time>
      </trkpt>
      <trkpt lat="46.74547" lon="-0.85479">
        <ele>113.8</ele>
        <time>2025-03-07T20:38:21.862Z</time>
      </trkpt>
      <trkpt lat="46.74549" lon="-0.85454">
        <ele>115.3</ele>
        <time>2025-03-07T20:38:29.508Z</time>
      </trkpt>
      <trkpt lat="46.7455" lon="-0.8544">
        <ele>116.2</ele>
        <time>2025-03-07T20:38:34.153Z</time>
      </trkpt>
      <trkpt lat="46.7455" lon="-0.85431">
        <ele>116.5</ele>
        <time>2025-03-07T20:38:35.792Z</time>
      </trkpt>
      <trkpt lat="46.74548" lon="-0.85419">
        <ele>116.9</ele>
        <time>2025-03-07T20:38:38.002Z</time>
      </trkpt>
      <trkpt lat="46.74545" lon="-0.8541">
        <ele>117.1</ele>
        <time>2025-03-07T20:38:39.443Z</time>
      </trkpt>
      <trkpt lat="46.74537" lon="-0.85391">
        <ele>117.6</ele>
        <time>2025-03-07T20:38:42.789Z</time>
      </trkpt>
      <trkpt lat="46.74527" lon="-0.85372">
        <ele>118</ele>
        <time>2025-03-07T20:38:46.058Z</time>
      </trkpt>
      <trkpt lat="46.74511" lon="-0.85341">
        <ele>118</ele>
        <time>2025-03-07T20:38:50.179Z</time>
      </trkpt>
      <trkpt lat="46.74489" lon="-0.85298">
        <ele>119.3</ele>
        <time>2025-03-07T20:38:58.483Z</time>
      </trkpt>
      <trkpt lat="46.74485" lon="-0.8529">
        <ele>119.6</ele>
        <time>2025-03-07T20:39:00.189Z</time>
      </trkpt>
      <trkpt lat="46.74474" lon="-0.85267">
        <ele>120</ele>
        <time>2025-03-07T20:39:03.870Z</time>
      </trkpt>
      <trkpt lat="46.74468" lon="-0.85256">
        <ele>120</ele>
        <time>2025-03-07T20:39:05.363Z</time>
      </trkpt>
      <trkpt lat="46.74451" lon="-0.85225">
        <ele>120.9</ele>
        <time>2025-03-07T20:39:11.345Z</time>
      </trkpt>
      <trkpt lat="46.74432" lon="-0.85196">
        <ele>121</ele>
        <time>2025-03-07T20:39:15.757Z</time>
      </trkpt>
      <trkpt lat="46.7441" lon="-0.85166">
        <ele>121</ele>
        <time>2025-03-07T20:39:20.423Z</time>
      </trkpt>
      <trkpt lat="46.74391" lon="-0.85139">
        <ele>120.1</ele>
        <time>2025-03-07T20:39:23.502Z</time>
      </trkpt>
      <trkpt lat="46.74372" lon="-0.85112">
        <ele>119.4</ele>
        <time>2025-03-07T20:39:26.766Z</time>
      </trkpt>
      <trkpt lat="46.74353" lon="-0.85086">
        <ele>117.8</ele>
        <time>2025-03-07T20:39:29.268Z</time>
      </trkpt>
      <trkpt lat="46.74333" lon="-0.8506">
        <ele>115.3</ele>
        <time>2025-03-07T20:39:31.758Z</time>
      </trkpt>
      <trkpt lat="46.74321" lon="-0.8504">
        <ele>114.1</ele>
        <time>2025-03-07T20:39:33.461Z</time>
      </trkpt>
      <trkpt lat="46.74304" lon="-0.85017">
        <ele>113.4</ele>
        <time>2025-03-07T20:39:36.230Z</time>
      </trkpt>
      <trkpt lat="46.74289" lon="-0.84998">
        <ele>114.1</ele>
        <time>2025-03-07T20:39:40.710Z</time>
      </trkpt>
      <trkpt lat="46.74275" lon="-0.84986">
        <ele>115.2</ele>
        <time>2025-03-07T20:39:46.256Z</time>
      </trkpt>
      <trkpt lat="46.74258" lon="-0.84976">
        <ele>116</ele>
        <time>2025-03-07T20:39:50.831Z</time>
      </trkpt>
      <trkpt lat="46.74243" lon="-0.84963">
        <ele>117.5</ele>
        <time>2025-03-07T20:39:58.464Z</time>
      </trkpt>
      <trkpt lat="46.7423" lon="-0.84947">
        <ele>118.9</ele>
        <time>2025-03-07T20:40:05.546Z</time>
      </trkpt>
      <trkpt lat="46.74219" lon="-0.84928">
        <ele>119.7</ele>
        <time>2025-03-07T20:40:09.979Z</time>
      </trkpt>
      <trkpt lat="46.74215" lon="-0.84921">
        <ele>120.1</ele>
        <time>2025-03-07T20:40:12.008Z</time>
      </trkpt>
      <trkpt lat="46.74212" lon="-0.84914">
        <ele>120.4</ele>
        <time>2025-03-07T20:40:13.598Z</time>
      </trkpt>
      <trkpt lat="46.74208" lon="-0.84908">
        <ele>120.7</ele>
        <time>2025-03-07T20:40:15.195Z</time>
      </trkpt>
      <trkpt lat="46.74202" lon="-0.84897">
        <ele>120.9</ele>
        <time>2025-03-07T20:40:17.039Z</time>
      </trkpt>
      <trkpt lat="46.74197" lon="-0.84889">
        <ele>121</ele>
        <time>2025-03-07T20:40:18.354Z</time>
      </trkpt>
      <trkpt lat="46.74186" lon="-0.84874">
        <ele>121.6</ele>
        <time>2025-03-07T20:40:21.942Z</time>
      </trkpt>
      <trkpt lat="46.74183" lon="-0.8487">
        <ele>121.7</ele>
        <time>2025-03-07T20:40:22.753Z</time>
      </trkpt>
      <trkpt lat="46.74172" lon="-0.84853">
        <ele>121.3</ele>
        <time>2025-03-07T20:40:24.748Z</time>
      </trkpt>
      <trkpt lat="46.74171" lon="-0.84852">
        <ele>121.3</ele>
        <time>2025-03-07T20:40:24.936Z</time>
      </trkpt>
      <trkpt lat="46.74162" lon="-0.84838">
        <ele>120.3</ele>
        <time>2025-03-07T20:40:26.159Z</time>
      </trkpt>
      <trkpt lat="46.7416" lon="-0.84834">
        <ele>120</ele>
        <time>2025-03-07T20:40:26.475Z</time>
      </trkpt>
      <trkpt lat="46.74159" lon="-0.8483">
        <ele>120</ele>
        <time>2025-03-07T20:40:26.927Z</time>
      </trkpt>
      <trkpt lat="46.74156" lon="-0.84822">
        <ele>119.8</ele>
        <time>2025-03-07T20:40:27.663Z</time>
      </trkpt>
      <trkpt lat="46.74155" lon="-0.84816">
        <ele>119.7</ele>
        <time>2025-03-07T20:40:28.196Z</time>
      </trkpt>
      <trkpt lat="46.74152" lon="-0.84807">
        <ele>119.5</ele>
        <time>2025-03-07T20:40:29.022Z</time>
      </trkpt>
      <trkpt lat="46.74149" lon="-0.84797">
        <ele>119</ele>
        <time>2025-03-07T20:40:29.717Z</time>
      </trkpt>
      <trkpt lat="46.74144" lon="-0.84781">
        <ele>117.7</ele>
        <time>2025-03-07T20:40:30.838Z</time>
      </trkpt>
      <trkpt lat="46.74143" lon="-0.84776">
        <ele>117.4</ele>
        <time>2025-03-07T20:40:31.170Z</time>
      </trkpt>
      <trkpt lat="46.7414" lon="-0.84765">
        <ele>116.6</ele>
        <time>2025-03-07T20:40:31.924Z</time>
      </trkpt>
      <trkpt lat="46.74135" lon="-0.84749">
        <ele>115.6</ele>
        <time>2025-03-07T20:40:33.044Z</time>
      </trkpt>
      <trkpt lat="46.74135" lon="-0.84744">
        <ele>115.4</ele>
        <time>2025-03-07T20:40:33.380Z</time>
      </trkpt>
      <trkpt lat="46.74134" lon="-0.8474">
        <ele>115.2</ele>
        <time>2025-03-07T20:40:33.651Z</time>
      </trkpt>
      <trkpt lat="46.74134" lon="-0.84736">
        <ele>115.1</ele>
        <time>2025-03-07T20:40:33.963Z</time>
      </trkpt>
      <trkpt lat="46.74135" lon="-0.84732">
        <ele>115.1</ele>
        <time>2025-03-07T20:40:34.416Z</time>
      </trkpt>
      <trkpt lat="46.74135" lon="-0.84732">
        <ele>115.1</ele>
        <time>2025-03-07T20:40:34.416Z</time>
      </trkpt>
      <trkpt lat="46.7413" lon="-0.8473">
        <ele>114.8</ele>
        <time>2025-03-07T20:40:34.925Z</time>
      </trkpt>
      <trkpt lat="46.74123" lon="-0.84731">
        <ele>114.4</ele>
        <time>2025-03-07T20:40:35.620Z</time>
      </trkpt>
      <trkpt lat="46.74108" lon="-0.8474">
        <ele>113.1</ele>
        <time>2025-03-07T20:40:37.128Z</time>
      </trkpt>
      <trkpt lat="46.74107" lon="-0.84741">
        <ele>113</ele>
        <time>2025-03-07T20:40:37.241Z</time>
      </trkpt>
      <trkpt lat="46.74097" lon="-0.84749">
        <ele>111.6</ele>
        <time>2025-03-07T20:40:38.301Z</time>
      </trkpt>
      <trkpt lat="46.74084" lon="-0.84754">
        <ele>110.1</ele>
        <time>2025-03-07T20:40:39.551Z</time>
      </trkpt>
      <trkpt lat="46.74064" lon="-0.84761">
        <ele>109</ele>
        <time>2025-03-07T20:40:41.630Z</time>
      </trkpt>
      <trkpt lat="46.74027" lon="-0.84771">
        <ele>107.2</ele>
        <time>2025-03-07T20:40:45.581Z</time>
      </trkpt>
      <trkpt lat="46.73997" lon="-0.84778">
        <ele>105.8</ele>
        <time>2025-03-07T20:40:48.810Z</time>
      </trkpt>
      <trkpt lat="46.73977" lon="-0.84783">
        <ele>104.3</ele>
        <time>2025-03-07T20:40:50.697Z</time>
      </trkpt>
      <trkpt lat="46.73967" lon="-0.84786">
        <ele>103.9</ele>
        <time>2025-03-07T20:40:51.836Z</time>
      </trkpt>
      <trkpt lat="46.73942" lon="-0.8479">
        <ele>103.8</ele>
        <time>2025-03-07T20:40:55.591Z</time>
      </trkpt>
      <trkpt lat="46.73936" lon="-0.84793">
        <ele>103.9</ele>
        <time>2025-03-07T20:40:56.742Z</time>
      </trkpt>
      <trkpt lat="46.7393" lon="-0.84794">
        <ele>103.9</ele>
        <time>2025-03-07T20:40:57.678Z</time>
      </trkpt>
      <trkpt lat="46.73923" lon="-0.84796">
        <ele>103.8</ele>
        <time>2025-03-07T20:40:58.651Z</time>
      </trkpt>
      <trkpt lat="46.73919" lon="-0.84797">
        <ele>103.8</ele>
        <time>2025-03-07T20:40:59.280Z</time>
      </trkpt>
      <trkpt lat="46.73919" lon="-0.84797">
        <ele>103.8</ele>
        <time>2025-03-07T20:40:59.280Z</time>
      </trkpt>
      <trkpt lat="46.73908" lon="-0.84799">
        <ele>104</ele>
        <time>2025-03-07T20:41:01.340Z</time>
      </trkpt>
      <trkpt lat="46.739" lon="-0.84801">
        <ele>104.3</ele>
        <time>2025-03-07T20:41:03.209Z</time>
      </trkpt>
      <trkpt lat="46.73888" lon="-0.84803">
        <ele>104.9</ele>
        <time>2025-03-07T20:41:06.460Z</time>
      </trkpt>
      <trkpt lat="46.73879" lon="-0.84803">
        <ele>105.5</ele>
        <time>2025-03-07T20:41:09.490Z</time>
      </trkpt>
      <trkpt lat="46.73872" lon="-0.84802">
        <ele>106</ele>
        <time>2025-03-07T20:41:12.004Z</time>
      </trkpt>
      <trkpt lat="46.73868" lon="-0.848">
        <ele>106.1</ele>
        <time>2025-03-07T20:41:12.839Z</time>
      </trkpt>
      <trkpt lat="46.73865" lon="-0.84799">
        <ele>106.2</ele>
        <time>2025-03-07T20:41:13.511Z</time>
      </trkpt>
      <trkpt lat="46.73859" lon="-0.84795">
        <ele>106.7</ele>
        <time>2025-03-07T20:41:16.025Z</time>
      </trkpt>
      <trkpt lat="46.73855" lon="-0.84792">
        <ele>107.3</ele>
        <time>2025-03-07T20:41:19.012Z</time>
      </trkpt>
      <trkpt lat="46.73852" lon="-0.8479">
        <ele>107.9</ele>
        <time>2025-03-07T20:41:21.202Z</time>
      </trkpt>
      <trkpt lat="46.7385" lon="-0.84787">
        <ele>108.2</ele>
        <time>2025-03-07T20:41:22.784Z</time>
      </trkpt>
      <trkpt lat="46.73846" lon="-0.84782">
        <ele>108.9</ele>
        <time>2025-03-07T20:41:26.281Z</time>
      </trkpt>
      <trkpt lat="46.7384" lon="-0.84773">
        <ele>109.8</ele>
        <time>2025-03-07T20:41:31.027Z</time>
      </trkpt>
      <trkpt lat="46.73836" lon="-0.84765">
        <ele>110</ele>
        <time>2025-03-07T20:41:32.458Z</time>
      </trkpt>
      <trkpt lat="46.73831" lon="-0.84756">
        <ele>110.4</ele>
        <time>2025-03-07T20:41:34.615Z</time>
      </trkpt>
      <trkpt lat="46.73825" lon="-0.84744">
        <ele>111.1</ele>
        <time>2025-03-07T20:41:38.140Z</time>
      </trkpt>
      <trkpt lat="46.73819" lon="-0.84731">
        <ele>111.9</ele>
        <time>2025-03-07T20:41:42.161Z</time>
      </trkpt>
      <trkpt lat="46.73802" lon="-0.8469">
        <ele>114.8</ele>
        <time>2025-03-07T20:41:56.980Z</time>
      </trkpt>
      <trkpt lat="46.73789" lon="-0.84664">
        <ele>116.3</ele>
        <time>2025-03-07T20:42:04.541Z</time>
      </trkpt>
      <trkpt lat="46.73778" lon="-0.84648">
        <ele>116.9</ele>
        <time>2025-03-07T20:42:08.188Z</time>
      </trkpt>
      <trkpt lat="46.73775" lon="-0.84645">
        <ele>117</ele>
        <time>2025-03-07T20:42:08.938Z</time>
      </trkpt>
      <trkpt lat="46.73766" lon="-0.84637">
        <ele>117.1</ele>
        <time>2025-03-07T20:42:10.730Z</time>
      </trkpt>
      <trkpt lat="46.73755" lon="-0.84636">
        <ele>118.2</ele>
        <time>2025-03-07T20:42:16.484Z</time>
      </trkpt>
      <trkpt lat="46.73749" lon="-0.84636">
        <ele>118.7</ele>
        <time>2025-03-07T20:42:19.017Z</time>
      </trkpt>
      <trkpt lat="46.73743" lon="-0.84637">
        <ele>119</ele>
        <time>2025-03-07T20:42:20.643Z</time>
      </trkpt>
      <trkpt lat="46.73729" lon="-0.84642">
        <ele>120.5</ele>
        <time>2025-03-07T20:42:28.547Z</time>
      </trkpt>
      <trkpt lat="46.73718" lon="-0.84652">
        <ele>122.9</ele>
        <time>2025-03-07T20:42:37.155Z</time>
      </trkpt>
      <trkpt lat="46.73702" lon="-0.84667">
        <ele>124.1</ele>
        <time>2025-03-07T20:42:43.256Z</time>
      </trkpt>
      <trkpt lat="46.73691" lon="-0.84674">
        <ele>124.3</ele>
        <time>2025-03-07T20:42:45.455Z</time>
      </trkpt>
      <trkpt lat="46.73684" lon="-0.84676">
        <ele>124.4</ele>
        <time>2025-03-07T20:42:46.726Z</time>
      </trkpt>
      <trkpt lat="46.73682" lon="-0.84676">
        <ele>124.4</ele>
        <time>2025-03-07T20:42:47.036Z</time>
      </trkpt>
      <trkpt lat="46.73676" lon="-0.84674">
        <ele>124.1</ele>
        <time>2025-03-07T20:42:47.678Z</time>
      </trkpt>
      <trkpt lat="46.73671" lon="-0.84671">
        <ele>124</ele>
        <time>2025-03-07T20:42:48.388Z</time>
      </trkpt>
      <trkpt lat="46.73668" lon="-0.84667">
        <ele>124</ele>
        <time>2025-03-07T20:42:49.018Z</time>
      </trkpt>
      <trkpt lat="46.73663" lon="-0.8466">
        <ele>124.8</ele>
        <time>2025-03-07T20:42:53.261Z</time>
      </trkpt>
      <trkpt lat="46.7366" lon="-0.84655">
        <ele>125.5</ele>
        <time>2025-03-07T20:42:56.286Z</time>
      </trkpt>
      <trkpt lat="46.73654" lon="-0.84631">
        <ele>127.4</ele>
        <time>2025-03-07T20:43:06.352Z</time>
      </trkpt>
      <trkpt lat="46.73652" lon="-0.8462">
        <ele>128</ele>
        <time>2025-03-07T20:43:09.371Z</time>
      </trkpt>
      <trkpt lat="46.73649" lon="-0.84609">
        <ele>128.4</ele>
        <time>2025-03-07T20:43:11.545Z</time>
      </trkpt>
      <trkpt lat="46.73647" lon="-0.84603">
        <ele>128.2</ele>
        <time>2025-03-07T20:43:12.039Z</time>
      </trkpt>
      <trkpt lat="46.73645" lon="-0.84597">
        <ele>128.1</ele>
        <time>2025-03-07T20:43:12.623Z</time>
      </trkpt>
      <trkpt lat="46.73643" lon="-0.84593">
        <ele>128.1</ele>
        <time>2025-03-07T20:43:13.149Z</time>
      </trkpt>
      <trkpt lat="46.73641" lon="-0.84589">
        <ele>128.1</ele>
        <time>2025-03-07T20:43:13.675Z</time>
      </trkpt>
      <trkpt lat="46.73638" lon="-0.84582">
        <ele>128</ele>
        <time>2025-03-07T20:43:14.423Z</time>
      </trkpt>
      <trkpt lat="46.73633" lon="-0.84576">
        <ele>128.3</ele>
        <time>2025-03-07T20:43:16.094Z</time>
      </trkpt>
      <trkpt lat="46.73626" lon="-0.84567">
        <ele>128.7</ele>
        <time>2025-03-07T20:43:18.401Z</time>
      </trkpt>
      <trkpt lat="46.73617" lon="-0.84558">
        <ele>129.8</ele>
        <time>2025-03-07T20:43:24.165Z</time>
      </trkpt>
      <trkpt lat="46.73594" lon="-0.84544">
        <ele>132.8</ele>
        <time>2025-03-07T20:43:39.978Z</time>
      </trkpt>
      <trkpt lat="46.73567" lon="-0.84532">
        <ele>134.6</ele>
        <time>2025-03-07T20:43:49.116Z</time>
      </trkpt>
      <trkpt lat="46.73543" lon="-0.84523">
        <ele>135.5</ele>
        <time>2025-03-07T20:43:54.776Z</time>
      </trkpt>
      <trkpt lat="46.73534" lon="-0.84519">
        <ele>135.8</ele>
        <time>2025-03-07T20:43:56.816Z</time>
      </trkpt>
      <trkpt lat="46.73526" lon="-0.84514">
        <ele>136.2</ele>
        <time>2025-03-07T20:43:59.052Z</time>
      </trkpt>
      <trkpt lat="46.73519" lon="-0.84509">
        <ele>136.7</ele>
        <time>2025-03-07T20:44:01.589Z</time>
      </trkpt>
      <trkpt lat="46.73512" lon="-0.84504">
        <ele>137.1</ele>
        <time>2025-03-07T20:44:03.731Z</time>
      </trkpt>
      <trkpt lat="46.73506" lon="-0.84496">
        <ele>136.9</ele>
        <time>2025-03-07T20:44:04.746Z</time>
      </trkpt>
      <trkpt lat="46.73484" lon="-0.84468">
        <ele>137.5</ele>
        <time>2025-03-07T20:44:10.321Z</time>
      </trkpt>
      <trkpt lat="46.7346" lon="-0.84436">
        <ele>140.4</ele>
        <time>2025-03-07T20:44:25.166Z</time>
      </trkpt>
      <trkpt lat="46.73443" lon="-0.84413">
        <ele>142</ele>
        <time>2025-03-07T20:44:33.222Z</time>
      </trkpt>
      <trkpt lat="46.73439" lon="-0.84407">
        <ele>142.3</ele>
        <time>2025-03-07T20:44:34.819Z</time>
      </trkpt>
      <trkpt lat="46.73416" lon="-0.84377">
        <ele>144.2</ele>
        <time>2025-03-07T20:44:44.520Z</time>
      </trkpt>
      <trkpt lat="46.73404" lon="-0.84363">
        <ele>144.9</ele>
        <time>2025-03-07T20:44:48.448Z</time>
      </trkpt>
      <trkpt lat="46.73391" lon="-0.8435">
        <ele>145.5</ele>
        <time>2025-03-07T20:44:52.124Z</time>
      </trkpt>
      <trkpt lat="46.73386" lon="-0.84346">
        <ele>145.7</ele>
        <time>2025-03-07T20:44:53.407Z</time>
      </trkpt>
      <trkpt lat="46.73379" lon="-0.84343">
        <ele>146.3</ele>
        <time>2025-03-07T20:44:56.442Z</time>
      </trkpt>
      <trkpt lat="46.73372" lon="-0.84341">
        <ele>147.1</ele>
        <time>2025-03-07T20:45:00.689Z</time>
      </trkpt>
      <trkpt lat="46.73367" lon="-0.84342">
        <ele>147.8</ele>
        <time>2025-03-07T20:45:04.041Z</time>
      </trkpt>
      <trkpt lat="46.73361" lon="-0.84344">
        <ele>148.8</ele>
        <time>2025-03-07T20:45:08.128Z</time>
      </trkpt>
      <trkpt lat="46.73356" lon="-0.84347">
        <ele>149.6</ele>
        <time>2025-03-07T20:45:11.719Z</time>
      </trkpt>
      <trkpt lat="46.73351" lon="-0.84352">
        <ele>150.4</ele>
        <time>2025-03-07T20:45:15.739Z</time>
      </trkpt>
      <trkpt lat="46.73347" lon="-0.84356">
        <ele>150.9</ele>
        <time>2025-03-07T20:45:18.370Z</time>
      </trkpt>
      <trkpt lat="46.73335" lon="-0.84372">
        <ele>152.3</ele>
        <time>2025-03-07T20:45:25.496Z</time>
      </trkpt>
      <trkpt lat="46.73328" lon="-0.84386">
        <ele>153.3</ele>
        <time>2025-03-07T20:45:30.569Z</time>
      </trkpt>
      <trkpt lat="46.73324" lon="-0.84394">
        <ele>153.8</ele>
        <time>2025-03-07T20:45:33.081Z</time>
      </trkpt>
      <trkpt lat="46.7332" lon="-0.84403">
        <ele>154.2</ele>
        <time>2025-03-07T20:45:35.185Z</time>
      </trkpt>
      <trkpt lat="46.73315" lon="-0.8442">
        <ele>154.6</ele>
        <time>2025-03-07T20:45:37.923Z</time>
      </trkpt>
      <trkpt lat="46.73313" lon="-0.84443">
        <ele>154</ele>
        <time>2025-03-07T20:45:39.716Z</time>
      </trkpt>
      <trkpt lat="46.73308" lon="-0.84481">
        <ele>153.1</ele>
        <time>2025-03-07T20:45:42.795Z</time>
      </trkpt>
      <trkpt lat="46.73301" lon="-0.84531">
        <ele>151.9</ele>
        <time>2025-03-07T20:45:46.843Z</time>
      </trkpt>
      <trkpt lat="46.73294" lon="-0.84572">
        <ele>150.8</ele>
        <time>2025-03-07T20:45:50.105Z</time>
      </trkpt>
      <trkpt lat="46.73293" lon="-0.84579">
        <ele>150.6</ele>
        <time>2025-03-07T20:45:50.646Z</time>
      </trkpt>
      <trkpt lat="46.73282" lon="-0.84631">
        <ele>148.4</ele>
        <time>2025-03-07T20:45:54.284Z</time>
      </trkpt>
      <trkpt lat="46.73272" lon="-0.84684">
        <ele>147.2</ele>
        <time>2025-03-07T20:45:58.728Z</time>
      </trkpt>
      <trkpt lat="46.73263" lon="-0.84731">
        <ele>145.8</ele>
        <time>2025-03-07T20:46:02.390Z</time>
      </trkpt>
      <trkpt lat="46.73252" lon="-0.84763">
        <ele>144.6</ele>
        <time>2025-03-07T20:46:04.948Z</time>
      </trkpt>
      <trkpt lat="46.73238" lon="-0.84797">
        <ele>143.6</ele>
        <time>2025-03-07T20:46:08.037Z</time>
      </trkpt>
      <trkpt lat="46.73216" lon="-0.84852">
        <ele>141.8</ele>
        <time>2025-03-07T20:46:12.837Z</time>
      </trkpt>
      <trkpt lat="46.73187" lon="-0.84928">
        <ele>139.7</ele>
        <time>2025-03-07T20:46:19.691Z</time>
      </trkpt>
      <trkpt lat="46.73162" lon="-0.8499">
        <ele>137.7</ele>
        <time>2025-03-07T20:46:25.141Z</time>
      </trkpt>
      <trkpt lat="46.73144" lon="-0.85036">
        <ele>136.4</ele>
        <time>2025-03-07T20:46:29.296Z</time>
      </trkpt>
      <trkpt lat="46.7313" lon="-0.85058">
        <ele>136.6</ele>
        <time>2025-03-07T20:46:32.804Z</time>
      </trkpt>
      <trkpt lat="46.73127" lon="-0.85062">
        <ele>136.4</ele>
        <time>2025-03-07T20:46:33.227Z</time>
      </trkpt>
      <trkpt lat="46.73123" lon="-0.85065">
        <ele>136.3</ele>
        <time>2025-03-07T20:46:33.799Z</time>
      </trkpt>
      <trkpt lat="46.73106" lon="-0.85077">
        <ele>136</ele>
        <time>2025-03-07T20:46:36.335Z</time>
      </trkpt>
      <trkpt lat="46.7308" lon="-0.85091">
        <ele>135.9</ele>
        <time>2025-03-07T20:46:40.486Z</time>
      </trkpt>
      <trkpt lat="46.73043" lon="-0.85112">
        <ele>135</ele>
        <time>2025-03-07T20:46:45.523Z</time>
      </trkpt>
      <trkpt lat="46.73002" lon="-0.85134">
        <ele>134.1</ele>
        <time>2025-03-07T20:46:51.159Z</time>
      </trkpt>
      <trkpt lat="46.72962" lon="-0.85147">
        <ele>132.6</ele>
        <time>2025-03-07T20:46:55.822Z</time>
      </trkpt>
      <trkpt lat="46.72929" lon="-0.85154">
        <ele>131.4</ele>
        <time>2025-03-07T20:46:59.634Z</time>
      </trkpt>
      <trkpt lat="46.72892" lon="-0.85153">
        <ele>129.2</ele>
        <time>2025-03-07T20:47:03.233Z</time>
      </trkpt>
      <trkpt lat="46.72856" lon="-0.85147">
        <ele>127.7</ele>
        <time>2025-03-07T20:47:07.213Z</time>
      </trkpt>
      <trkpt lat="46.72809" lon="-0.85139">
        <ele>126</ele>
        <time>2025-03-07T20:47:12.625Z</time>
      </trkpt>
      <trkpt lat="46.72728" lon="-0.85127">
        <ele>125</ele>
        <time>2025-03-07T20:47:23.903Z</time>
      </trkpt>
      <trkpt lat="46.72683" lon="-0.85121">
        <ele>125.2</ele>
        <time>2025-03-07T20:47:31.211Z</time>
      </trkpt>
      <trkpt lat="46.72643" lon="-0.85115">
        <ele>124</ele>
        <time>2025-03-07T20:47:36.028Z</time>
      </trkpt>
      <trkpt lat="46.72604" lon="-0.85113">
        <ele>123</ele>
        <time>2025-03-07T20:47:40.861Z</time>
      </trkpt>
      <trkpt lat="46.72574" lon="-0.85117">
        <ele>122.9</ele>
        <time>2025-03-07T20:47:45.386Z</time>
      </trkpt>
      <trkpt lat="46.72545" lon="-0.85129">
        <ele>122</ele>
        <time>2025-03-07T20:47:48.996Z</time>
      </trkpt>
      <trkpt lat="46.72507" lon="-0.85147">
        <ele>120.8</ele>
        <time>2025-03-07T20:47:53.775Z</time>
      </trkpt>
      <trkpt lat="46.72474" lon="-0.85166">
        <ele>120</ele>
        <time>2025-03-07T20:47:58.280Z</time>
      </trkpt>
      <trkpt lat="46.72453" lon="-0.85185">
        <ele>119.3</ele>
        <time>2025-03-07T20:48:01.276Z</time>
      </trkpt>
      <trkpt lat="46.7243" lon="-0.85207">
        <ele>118.5</ele>
        <time>2025-03-07T20:48:04.590Z</time>
      </trkpt>
      <trkpt lat="46.72406" lon="-0.85228">
        <ele>117.9</ele>
        <time>2025-03-07T20:48:08.176Z</time>
      </trkpt>
      <trkpt lat="46.72392" lon="-0.85236">
        <ele>117.9</ele>
        <time>2025-03-07T20:48:10.506Z</time>
      </trkpt>
      <trkpt lat="46.72366" lon="-0.85249">
        <ele>118</ele>
        <time>2025-03-07T20:48:14.917Z</time>
      </trkpt>
      <trkpt lat="46.72334" lon="-0.8526">
        <ele>119</ele>
        <time>2025-03-07T20:48:21.926Z</time>
      </trkpt>
      <trkpt lat="46.72299" lon="-0.85274">
        <ele>120.2</ele>
        <time>2025-03-07T20:48:29.904Z</time>
      </trkpt>
      <trkpt lat="46.72286" lon="-0.85282">
        <ele>120.7</ele>
        <time>2025-03-07T20:48:33.094Z</time>
      </trkpt>
      <trkpt lat="46.72286" lon="-0.85282">
        <ele>120.7</ele>
        <time>2025-03-07T20:48:33.094Z</time>
      </trkpt>
      <trkpt lat="46.72267" lon="-0.8529">
        <ele>121.2</ele>
        <time>2025-03-07T20:48:37.072Z</time>
      </trkpt>
      <trkpt lat="46.72243" lon="-0.853">
        <ele>121.5</ele>
        <time>2025-03-07T20:48:41.428Z</time>
      </trkpt>
      <trkpt lat="46.72218" lon="-0.8531">
        <ele>122.3</ele>
        <time>2025-03-07T20:48:46.983Z</time>
      </trkpt>
      <trkpt lat="46.72195" lon="-0.85316">
        <ele>123.6</ele>
        <time>2025-03-07T20:48:53.775Z</time>
      </trkpt>
      <trkpt lat="46.72164" lon="-0.85315">
        <ele>125.1</ele>
        <time>2025-03-07T20:49:01.987Z</time>
      </trkpt>
      <trkpt lat="46.72135" lon="-0.85309">
        <ele>126</ele>
        <time>2025-03-07T20:49:08.254Z</time>
      </trkpt>
      <trkpt lat="46.72105" lon="-0.85302">
        <ele>126.1</ele>
        <time>2025-03-07T20:49:13.113Z</time>
      </trkpt>
      <trkpt lat="46.72063" lon="-0.85293">
        <ele>126.5</ele>
        <time>2025-03-07T20:49:20.328Z</time>
      </trkpt>
      <trkpt lat="46.72034" lon="-0.85287">
        <ele>126.1</ele>
        <time>2025-03-07T20:49:24.337Z</time>
      </trkpt>
      <trkpt lat="46.71985" lon="-0.85275">
        <ele>125.5</ele>
        <time>2025-03-07T20:49:31.232Z</time>
      </trkpt>
      <trkpt lat="46.71948" lon="-0.85266">
        <ele>124.5</ele>
        <time>2025-03-07T20:49:35.840Z</time>
      </trkpt>
      <trkpt lat="46.71931" lon="-0.85262">
        <ele>124.1</ele>
        <time>2025-03-07T20:49:38.014Z</time>
      </trkpt>
      <trkpt lat="46.7193" lon="-0.85262">
        <ele>124</ele>
        <time>2025-03-07T20:49:38.107Z</time>
      </trkpt>
      <trkpt lat="46.71884" lon="-0.85252">
        <ele>122.9</ele>
        <time>2025-03-07T20:49:43.960Z</time>
      </trkpt>
      <trkpt lat="46.71848" lon="-0.85244">
        <ele>122.7</ele>
        <time>2025-03-07T20:49:49.321Z</time>
      </trkpt>
      <trkpt lat="46.71809" lon="-0.85234">
        <ele>122.6</ele>
        <time>2025-03-07T20:49:55.313Z</time>
      </trkpt>
      <trkpt lat="46.71796" lon="-0.85232">
        <ele>122.5</ele>
        <time>2025-03-07T20:49:57.200Z</time>
      </trkpt>
      <trkpt lat="46.71769" lon="-0.8523">
        <ele>122.2</ele>
        <time>2025-03-07T20:50:00.984Z</time>
      </trkpt>
      <trkpt lat="46.71734" lon="-0.85233">
        <ele>121.6</ele>
        <time>2025-03-07T20:50:05.643Z</time>
      </trkpt>
      <trkpt lat="46.71701" lon="-0.85237">
        <ele>120.7</ele>
        <time>2025-03-07T20:50:09.693Z</time>
      </trkpt>
      <trkpt lat="46.71666" lon="-0.85241">
        <ele>119.3</ele>
        <time>2025-03-07T20:50:13.593Z</time>
      </trkpt>
      <trkpt lat="46.71632" lon="-0.85251">
        <ele>118.5</ele>
        <time>2025-03-07T20:50:17.978Z</time>
      </trkpt>
      <trkpt lat="46.71595" lon="-0.85269">
        <ele>116.4</ele>
        <time>2025-03-07T20:50:21.911Z</time>
      </trkpt>
      <trkpt lat="46.71567" lon="-0.85285">
        <ele>115.2</ele>
        <time>2025-03-07T20:50:25.251Z</time>
      </trkpt>
      <trkpt lat="46.7154" lon="-0.853">
        <ele>114.1</ele>
        <time>2025-03-07T20:50:28.503Z</time>
      </trkpt>
      <trkpt lat="46.71528" lon="-0.85308">
        <ele>114</ele>
        <time>2025-03-07T20:50:30.409Z</time>
      </trkpt>
      <trkpt lat="46.71504" lon="-0.85322">
        <ele>114.5</ele>
        <time>2025-03-07T20:50:35.281Z</time>
      </trkpt>
      <trkpt lat="46.71488" lon="-0.85334">
        <ele>115.4</ele>
        <time>2025-03-07T20:50:40.146Z</time>
      </trkpt>
      <trkpt lat="46.71485" lon="-0.85337">
        <ele>115.5</ele>
        <time>2025-03-07T20:50:40.896Z</time>
      </trkpt>
      <trkpt lat="46.71478" lon="-0.85343">
        <ele>115.8</ele>
        <time>2025-03-07T20:50:42.765Z</time>
      </trkpt>
      <trkpt lat="46.7147" lon="-0.85348">
        <ele>116</ele>
        <time>2025-03-07T20:50:44.471Z</time>
      </trkpt>
      <trkpt lat="46.71465" lon="-0.85351">
        <ele>116</ele>
        <time>2025-03-07T20:50:45.309Z</time>
      </trkpt>
      <trkpt lat="46.71459" lon="-0.85354">
        <ele>116</ele>
        <time>2025-03-07T20:50:46.292Z</time>
      </trkpt>
      <trkpt lat="46.71449" lon="-0.85359">
        <ele>116</ele>
        <time>2025-03-07T20:50:47.930Z</time>
      </trkpt>
      <trkpt lat="46.71444" lon="-0.85361">
        <ele>116</ele>
        <time>2025-03-07T20:50:48.734Z</time>
      </trkpt>
      <trkpt lat="46.71411" lon="-0.85372">
        <ele>117</ele>
        <time>2025-03-07T20:50:55.879Z</time>
      </trkpt>
      <trkpt lat="46.71388" lon="-0.85377">
        <ele>117</ele>
        <time>2025-03-07T20:50:59.482Z</time>
      </trkpt>
      <trkpt lat="46.71367" lon="-0.85381">
        <ele>117.6</ele>
        <time>2025-03-07T20:51:03.891Z</time>
      </trkpt>
      <trkpt lat="46.71353" lon="-0.85382">
        <ele>117.8</ele>
        <time>2025-03-07T20:51:06.395Z</time>
      </trkpt>
      <trkpt lat="46.7134" lon="-0.85382">
        <ele>117.8</ele>
        <time>2025-03-07T20:51:08.409Z</time>
      </trkpt>
      <trkpt lat="46.71317" lon="-0.8538">
        <ele>117.7</ele>
        <time>2025-03-07T20:51:11.838Z</time>
      </trkpt>
      <trkpt lat="46.71293" lon="-0.8538">
        <ele>117.7</ele>
        <time>2025-03-07T20:51:15.557Z</time>
      </trkpt>
      <trkpt lat="46.71269" lon="-0.85382">
        <ele>117.8</ele>
        <time>2025-03-07T20:51:19.435Z</time>
      </trkpt>
      <trkpt lat="46.71253" lon="-0.85383">
        <ele>118</ele>
        <time>2025-03-07T20:51:22.243Z</time>
      </trkpt>
      <trkpt lat="46.71227" lon="-0.85388">
        <ele>118.8</ele>
        <time>2025-03-07T20:51:27.840Z</time>
      </trkpt>
      <trkpt lat="46.71188" lon="-0.85397">
        <ele>119.2</ele>
        <time>2025-03-07T20:51:34.599Z</time>
      </trkpt>
      <trkpt lat="46.71169" lon="-0.85403">
        <ele>119.9</ele>
        <time>2025-03-07T20:51:39.023Z</time>
      </trkpt>
      <trkpt lat="46.71155" lon="-0.85407">
        <ele>120.3</ele>
        <time>2025-03-07T20:51:41.983Z</time>
      </trkpt>
      <trkpt lat="46.71143" lon="-0.85413">
        <ele>120.7</ele>
        <time>2025-03-07T20:51:44.723Z</time>
      </trkpt>
      <trkpt lat="46.71124" lon="-0.85421">
        <ele>121.1</ele>
        <time>2025-03-07T20:51:48.486Z</time>
      </trkpt>
      <trkpt lat="46.71108" lon="-0.85429">
        <ele>121.5</ele>
        <time>2025-03-07T20:51:51.827Z</time>
      </trkpt>
      <trkpt lat="46.71089" lon="-0.8544">
        <ele>122</ele>
        <time>2025-03-07T20:51:55.902Z</time>
      </trkpt>
      <trkpt lat="46.71066" lon="-0.85454">
        <ele>122.8</ele>
        <time>2025-03-07T20:52:01.320Z</time>
      </trkpt>
      <trkpt lat="46.71041" lon="-0.85468">
        <ele>123.4</ele>
        <time>2025-03-07T20:52:06.538Z</time>
      </trkpt>
      <trkpt lat="46.71036" lon="-0.8547">
        <ele>123.6</ele>
        <time>2025-03-07T20:52:07.755Z</time>
      </trkpt>
      <trkpt lat="46.71019" lon="-0.85476">
        <ele>124</ele>
        <time>2025-03-07T20:52:11.180Z</time>
      </trkpt>
      <trkpt lat="46.70995" lon="-0.8548">
        <ele>124.1</ele>
        <time>2025-03-07T20:52:15.076Z</time>
      </trkpt>
      <trkpt lat="46.70908" lon="-0.85488">
        <ele>125.7</ele>
        <time>2025-03-07T20:52:31.334Z</time>
      </trkpt>
      <trkpt lat="46.70825" lon="-0.85497">
        <ele>128</ele>
        <time>2025-03-07T20:52:48.524Z</time>
      </trkpt>
      <trkpt lat="46.70772" lon="-0.85501">
        <ele>129.2</ele>
        <time>2025-03-07T20:52:58.889Z</time>
      </trkpt>
      <trkpt lat="46.70717" lon="-0.85508">
        <ele>130.1</ele>
        <time>2025-03-07T20:53:08.964Z</time>
      </trkpt>
      <trkpt lat="46.70679" lon="-0.8551">
        <ele>130.8</ele>
        <time>2025-03-07T20:53:16.059Z</time>
      </trkpt>
      <trkpt lat="46.70665" lon="-0.8551">
        <ele>131</ele>
        <time>2025-03-07T20:53:18.561Z</time>
      </trkpt>
      <trkpt lat="46.70665" lon="-0.8551">
        <ele>131</ele>
        <time>2025-03-07T20:53:18.561Z</time>
      </trkpt>
      <trkpt lat="46.70662" lon="-0.85509">
        <ele>131</ele>
        <time>2025-03-07T20:53:19.038Z</time>
      </trkpt>
      <trkpt lat="46.70657" lon="-0.85502">
        <ele>131</ele>
        <time>2025-03-07T20:53:20.112Z</time>
      </trkpt>
      <trkpt lat="46.70652" lon="-0.85497">
        <ele>131</ele>
        <time>2025-03-07T20:53:21.051Z</time>
      </trkpt>
      <trkpt lat="46.70643" lon="-0.85491">
        <ele>131</ele>
        <time>2025-03-07T20:53:22.585Z</time>
      </trkpt>
      <trkpt lat="46.70635" lon="-0.85486">
        <ele>130.9</ele>
        <time>2025-03-07T20:53:23.799Z</time>
      </trkpt>
      <trkpt lat="46.70626" lon="-0.85482">
        <ele>130.5</ele>
        <time>2025-03-07T20:53:24.824Z</time>
      </trkpt>
      <trkpt lat="46.70618" lon="-0.85476">
        <ele>130.2</ele>
        <time>2025-03-07T20:53:25.873Z</time>
      </trkpt>
      <trkpt lat="46.7061" lon="-0.8547">
        <ele>130</ele>
        <time>2025-03-07T20:53:27.019Z</time>
      </trkpt>
      <trkpt lat="46.70607" lon="-0.85467">
        <ele>129.9</ele>
        <time>2025-03-07T20:53:27.462Z</time>
      </trkpt>
      <trkpt lat="46.70603" lon="-0.8546">
        <ele>129.8</ele>
        <time>2025-03-07T20:53:28.301Z</time>
      </trkpt>
      <trkpt lat="46.70595" lon="-0.85447">
        <ele>129.9</ele>
        <time>2025-03-07T20:53:30.314Z</time>
      </trkpt>
      <trkpt lat="46.70593" lon="-0.85441">
        <ele>130</ele>
        <time>2025-03-07T20:53:31.201Z</time>
      </trkpt>
      <trkpt lat="46.70586" lon="-0.85422">
        <ele>130</ele>
        <time>2025-03-07T20:53:33.493Z</time>
      </trkpt>
      <trkpt lat="46.70578" lon="-0.85397">
        <ele>129.2</ele>
        <time>2025-03-07T20:53:35.558Z</time>
      </trkpt>
      <trkpt lat="46.70573" lon="-0.85377">
        <ele>128.8</ele>
        <time>2025-03-07T20:53:37.340Z</time>
      </trkpt>
      <trkpt lat="46.70573" lon="-0.85377">
        <ele>128.8</ele>
        <time>2025-03-07T20:53:37.340Z</time>
      </trkpt>
      <trkpt lat="46.70573" lon="-0.85368">
        <ele>128.7</ele>
        <time>2025-03-07T20:53:38.167Z</time>
      </trkpt>
      <trkpt lat="46.70573" lon="-0.85353">
        <ele>128.7</ele>
        <time>2025-03-07T20:53:39.761Z</time>
      </trkpt>
      <trkpt lat="46.70574" lon="-0.85325">
        <ele>128.9</ele>
        <time>2025-03-07T20:53:43.061Z</time>
      </trkpt>
      <trkpt lat="46.70573" lon="-0.8529">
        <ele>128.6</ele>
        <time>2025-03-07T20:53:46.383Z</time>
      </trkpt>
      <trkpt lat="46.70571" lon="-0.85269">
        <ele>128.6</ele>
        <time>2025-03-07T20:53:48.636Z</time>
      </trkpt>
      <trkpt lat="46.70566" lon="-0.85256">
        <ele>128.4</ele>
        <time>2025-03-07T20:53:49.966Z</time>
      </trkpt>
      <trkpt lat="46.70557" lon="-0.85236">
        <ele>128.1</ele>
        <time>2025-03-07T20:53:52.124Z</time>
      </trkpt>
      <trkpt lat="46.70539" lon="-0.85212">
        <ele>128</ele>
        <time>2025-03-07T20:53:55.761Z</time>
      </trkpt>
      <trkpt lat="46.7052" lon="-0.85191">
        <ele>128</ele>
        <time>2025-03-07T20:53:59.456Z</time>
      </trkpt>
      <trkpt lat="46.70501" lon="-0.85176">
        <ele>128</ele>
        <time>2025-03-07T20:54:02.804Z</time>
      </trkpt>
      <trkpt lat="46.70476" lon="-0.8516">
        <ele>127.1</ele>
        <time>2025-03-07T20:54:05.997Z</time>
      </trkpt>
      <trkpt lat="46.7045" lon="-0.85145">
        <ele>126.2</ele>
        <time>2025-03-07T20:54:09.286Z</time>
      </trkpt>
      <trkpt lat="46.70406" lon="-0.85122">
        <ele>124.6</ele>
        <time>2025-03-07T20:54:14.700Z</time>
      </trkpt>
      <trkpt lat="46.70366" lon="-0.851">
        <ele>123.6</ele>
        <time>2025-03-07T20:54:20.091Z</time>
      </trkpt>
      <trkpt lat="46.70306" lon="-0.85066">
        <ele>120</ele>
        <time>2025-03-07T20:54:26.494Z</time>
      </trkpt>
      <trkpt lat="46.70266" lon="-0.85044">
        <ele>118.6</ele>
        <time>2025-03-07T20:54:31.502Z</time>
      </trkpt>
      <trkpt lat="46.70225" lon="-0.85023">
        <ele>117.8</ele>
        <time>2025-03-07T20:54:37.213Z</time>
      </trkpt>
      <trkpt lat="46.70212" lon="-0.85018">
        <ele>117.4</ele>
        <time>2025-03-07T20:54:38.824Z</time>
      </trkpt>
      <trkpt lat="46.70212" lon="-0.85018">
        <ele>117.4</ele>
        <time>2025-03-07T20:54:38.824Z</time>
      </trkpt>
      <trkpt lat="46.70201" lon="-0.84983">
        <ele>116.5</ele>
        <time>2025-03-07T20:54:41.886Z</time>
      </trkpt>
      <trkpt lat="46.70179" lon="-0.84917">
        <ele>115</ele>
        <time>2025-03-07T20:54:47.916Z</time>
      </trkpt>
      <trkpt lat="46.70167" lon="-0.84881">
        <ele>114.7</ele>
        <time>2025-03-07T20:54:51.764Z</time>
      </trkpt>
      <trkpt lat="46.70163" lon="-0.84856">
        <ele>114</ele>
        <time>2025-03-07T20:54:53.721Z</time>
      </trkpt>
      <trkpt lat="46.70162" lon="-0.84824">
        <ele>113.6</ele>
        <time>2025-03-07T20:54:56.613Z</time>
      </trkpt>
      <trkpt lat="46.70162" lon="-0.84798">
        <ele>112.7</ele>
        <time>2025-03-07T20:54:58.452Z</time>
      </trkpt>
      <trkpt lat="46.70163" lon="-0.84789">
        <ele>112.4</ele>
        <time>2025-03-07T20:54:59.108Z</time>
      </trkpt>
      <trkpt lat="46.70165" lon="-0.84718">
        <ele>110.9</ele>
        <time>2025-03-07T20:55:04.903Z</time>
      </trkpt>
      <trkpt lat="46.70169" lon="-0.84666">
        <ele>110</ele>
        <time>2025-03-07T20:55:09.367Z</time>
      </trkpt>
      <trkpt lat="46.7017" lon="-0.84656">
        <ele>109.6</ele>
        <time>2025-03-07T20:55:10.049Z</time>
      </trkpt>
      <trkpt lat="46.70174" lon="-0.84626">
        <ele>108.5</ele>
        <time>2025-03-07T20:55:12.181Z</time>
      </trkpt>
      <trkpt lat="46.70178" lon="-0.84601">
        <ele>107.6</ele>
        <time>2025-03-07T20:55:13.989Z</time>
      </trkpt>
      <trkpt lat="46.70179" lon="-0.8458">
        <ele>106.8</ele>
        <time>2025-03-07T20:55:15.429Z</time>
      </trkpt>
      <trkpt lat="46.70178" lon="-0.84572">
        <ele>106.4</ele>
        <time>2025-03-07T20:55:15.948Z</time>
      </trkpt>
      <trkpt lat="46.70177" lon="-0.84567">
        <ele>106</ele>
        <time>2025-03-07T20:55:16.280Z</time>
      </trkpt>
      <trkpt lat="46.70174" lon="-0.84559">
        <ele>105.5</ele>
        <time>2025-03-07T20:55:16.862Z</time>
      </trkpt>
      <trkpt lat="46.70167" lon="-0.84549">
        <ele>105</ele>
        <time>2025-03-07T20:55:17.868Z</time>
      </trkpt>
      <trkpt lat="46.70161" lon="-0.84541">
        <ele>105</ele>
        <time>2025-03-07T20:55:19.128Z</time>
      </trkpt>
      <trkpt lat="46.70149" lon="-0.84528">
        <ele>105</ele>
        <time>2025-03-07T20:55:21.445Z</time>
      </trkpt>
      <trkpt lat="46.70149" lon="-0.84528">
        <ele>105</ele>
        <time>2025-03-07T20:55:21.445Z</time>
      </trkpt>
      <trkpt lat="46.70148" lon="-0.84491">
        <ele>106.3</ele>
        <time>2025-03-07T20:55:28.415Z</time>
      </trkpt>
      <trkpt lat="46.70149" lon="-0.84447">
        <ele>108.9</ele>
        <time>2025-03-07T20:55:41.648Z</time>
      </trkpt>
      <trkpt lat="46.70148" lon="-0.84387">
        <ele>108.6</ele>
        <time>2025-03-07T20:55:47.609Z</time>
      </trkpt>
      <trkpt lat="46.70145" lon="-0.84344">
        <ele>108.6</ele>
        <time>2025-03-07T20:55:52.203Z</time>
      </trkpt>
      <trkpt lat="46.70139" lon="-0.84285">
        <ele>108.3</ele>
        <time>2025-03-07T20:55:58.125Z</time>
      </trkpt>
      <trkpt lat="46.70132" lon="-0.84231">
        <ele>109.5</ele>
        <time>2025-03-07T20:56:06.293Z</time>
      </trkpt>
      <trkpt lat="46.7012" lon="-0.84138">
        <ele>110</ele>
        <time>2025-03-07T20:56:17.135Z</time>
      </trkpt>
      <trkpt lat="46.7011" lon="-0.84053">
        <ele>111.1</ele>
        <time>2025-03-07T20:56:28.194Z</time>
      </trkpt>
      <trkpt lat="46.701" lon="-0.8397">
        <ele>111.4</ele>
        <time>2025-03-07T20:56:37.611Z</time>
      </trkpt>
      <trkpt lat="46.70093" lon="-0.83921">
        <ele>111.7</ele>
        <time>2025-03-07T20:56:43.406Z</time>
      </trkpt>
      <trkpt lat="46.70088" lon="-0.83878">
        <ele>113.2</ele>
        <time>2025-03-07T20:56:51.507Z</time>
      </trkpt>
      <trkpt lat="46.70088" lon="-0.83876">
        <ele>113.3</ele>
        <time>2025-03-07T20:56:52.009Z</time>
      </trkpt>
      <trkpt lat="46.70082" lon="-0.83825">
        <ele>115</ele>
        <time>2025-03-07T20:57:01.352Z</time>
      </trkpt>
      <trkpt lat="46.70077" lon="-0.83785">
        <ele>115.8</ele>
        <time>2025-03-07T20:57:07.180Z</time>
      </trkpt>
      <trkpt lat="46.70077" lon="-0.83785">
        <ele>115.8</ele>
        <time>2025-03-07T20:57:07.180Z</time>
      </trkpt>
      <trkpt lat="46.7007" lon="-0.83728">
        <ele>116.5</ele>
        <time>2025-03-07T20:57:14.529Z</time>
      </trkpt>
      <trkpt lat="46.70062" lon="-0.83654">
        <ele>117.8</ele>
        <time>2025-03-07T20:57:24.867Z</time>
      </trkpt>
      <trkpt lat="46.70057" lon="-0.83625">
        <ele>117.9</ele>
        <time>2025-03-07T20:57:28.198Z</time>
      </trkpt>
      <trkpt lat="46.7004" lon="-0.83567">
        <ele>118.6</ele>
        <time>2025-03-07T20:57:36.082Z</time>
      </trkpt>
      <trkpt lat="46.70023" lon="-0.83513">
        <ele>119.1</ele>
        <time>2025-03-07T20:57:43.212Z</time>
      </trkpt>
      <trkpt lat="46.70007" lon="-0.83462">
        <ele>118.7</ele>
        <time>2025-03-07T20:57:48.629Z</time>
      </trkpt>
      <trkpt lat="46.69991" lon="-0.83413">
        <ele>119.2</ele>
        <time>2025-03-07T20:57:55.220Z</time>
      </trkpt>
      <trkpt lat="46.69991" lon="-0.83413">
        <ele>119.2</ele>
        <time>2025-03-07T20:57:55.220Z</time>
      </trkpt>
      <trkpt lat="46.70009" lon="-0.83394">
        <ele>117.5</ele>
        <time>2025-03-07T20:57:57.286Z</time>
      </trkpt>
      <trkpt lat="46.70036" lon="-0.83365">
        <ele>115.4</ele>
        <time>2025-03-07T20:58:00.483Z</time>
      </trkpt>
      <trkpt lat="46.70059" lon="-0.83341">
        <ele>113.8</ele>
        <time>2025-03-07T20:58:03.285Z</time>
      </trkpt>
      <trkpt lat="46.70084" lon="-0.83312">
        <ele>112</ele>
        <time>2025-03-07T20:58:06.454Z</time>
      </trkpt>
      <trkpt lat="46.70108" lon="-0.83287">
        <ele>113</ele>
        <time>2025-03-07T20:58:13.001Z</time>
      </trkpt>
      <trkpt lat="46.7012" lon="-0.83272">
        <ele>113.5</ele>
        <time>2025-03-07T20:58:16.419Z</time>
      </trkpt>
      <trkpt lat="46.70131" lon="-0.83255">
        <ele>113.9</ele>
        <time>2025-03-07T20:58:19.631Z</time>
      </trkpt>
      <trkpt lat="46.70147" lon="-0.83226">
        <ele>114.9</ele>
        <time>2025-03-07T20:58:25.665Z</time>
      </trkpt>
      <trkpt lat="46.70153" lon="-0.83213">
        <ele>115.2</ele>
        <time>2025-03-07T20:58:27.891Z</time>
      </trkpt>
      <trkpt lat="46.70156" lon="-0.83204">
        <ele>115.4</ele>
        <time>2025-03-07T20:58:29.333Z</time>
      </trkpt>
      <trkpt lat="46.70158" lon="-0.83198">
        <ele>115.6</ele>
        <time>2025-03-07T20:58:30.476Z</time>
      </trkpt>
      <trkpt lat="46.70164" lon="-0.83169">
        <ele>116</ele>
        <time>2025-03-07T20:58:34.388Z</time>
      </trkpt>
      <trkpt lat="46.70168" lon="-0.8314">
        <ele>117</ele>
        <time>2025-03-07T20:58:39.823Z</time>
      </trkpt>
      <trkpt lat="46.70176" lon="-0.83107">
        <ele>118</ele>
        <time>2025-03-07T20:58:45.671Z</time>
      </trkpt>
      <trkpt lat="46.70184" lon="-0.83078">
        <ele>118.7</ele>
        <time>2025-03-07T20:58:50.361Z</time>
      </trkpt>
      <trkpt lat="46.70194" lon="-0.83051">
        <ele>119.2</ele>
        <time>2025-03-07T20:58:54.523Z</time>
      </trkpt>
      <trkpt lat="46.70207" lon="-0.83024">
        <ele>120.1</ele>
        <time>2025-03-07T20:58:59.910Z</time>
      </trkpt>
      <trkpt lat="46.70227" lon="-0.82988">
        <ele>121</ele>
        <time>2025-03-07T20:59:06.524Z</time>
      </trkpt>
      <trkpt lat="46.70249" lon="-0.82945">
        <ele>121.9</ele>
        <time>2025-03-07T20:59:13.857Z</time>
      </trkpt>
      <trkpt lat="46.70259" lon="-0.82927">
        <ele>122</ele>
        <time>2025-03-07T20:59:16.474Z</time>
      </trkpt>
      <trkpt lat="46.7027" lon="-0.82907">
        <ele>122</ele>
        <time>2025-03-07T20:59:19.199Z</time>
      </trkpt>
      <trkpt lat="46.70291" lon="-0.82875">
        <ele>122</ele>
        <time>2025-03-07T20:59:23.906Z</time>
      </trkpt>
      <trkpt lat="46.70326" lon="-0.8283">
        <ele>122.7</ele>
        <time>2025-03-07T20:59:32.305Z</time>
      </trkpt>
      <trkpt lat="46.70355" lon="-0.82793">
        <ele>123</ele>
        <time>2025-03-07T20:59:38.748Z</time>
      </trkpt>
      <trkpt lat="46.70407" lon="-0.8273">
        <ele>124</ele>
        <time>2025-03-07T20:59:50.891Z</time>
      </trkpt>
      <trkpt lat="46.70418" lon="-0.82717">
        <ele>124.2</ele>
        <time>2025-03-07T20:59:53.416Z</time>
      </trkpt>
      <trkpt lat="46.70449" lon="-0.82677">
        <ele>125.1</ele>
        <time>2025-03-07T21:00:01.424Z</time>
      </trkpt>
      <trkpt lat="46.70492" lon="-0.82625">
        <ele>126</ele>
        <time>2025-03-07T21:00:11.597Z</time>
      </trkpt>
      <trkpt lat="46.70536" lon="-0.82569">
        <ele>127.7</ele>
        <time>2025-03-07T21:00:23.863Z</time>
      </trkpt>
      <trkpt lat="46.70577" lon="-0.82519">
        <ele>129.8</ele>
        <time>2025-03-07T21:00:36.514Z</time>
      </trkpt>
      <trkpt lat="46.70607" lon="-0.82483">
        <ele>131.5</ele>
        <time>2025-03-07T21:00:46.225Z</time>
      </trkpt>
      <trkpt lat="46.70637" lon="-0.82447">
        <ele>133.8</ele>
        <time>2025-03-07T21:00:58.061Z</time>
      </trkpt>
      <trkpt lat="46.70679" lon="-0.82393">
        <ele>137.3</ele>
        <time>2025-03-07T21:01:15.885Z</time>
      </trkpt>
      <trkpt lat="46.70706" lon="-0.8236">
        <ele>139</ele>
        <time>2025-03-07T21:01:25.200Z</time>
      </trkpt>
      <trkpt lat="46.70735" lon="-0.82325">
        <ele>140.8</ele>
        <time>2025-03-07T21:01:35.099Z</time>
      </trkpt>
      <trkpt lat="46.70755" lon="-0.823">
        <ele>142.4</ele>
        <time>2025-03-07T21:01:43.289Z</time>
      </trkpt>
      <trkpt lat="46.70782" lon="-0.82267">
        <ele>144.4</ele>
        <time>2025-03-07T21:01:53.683Z</time>
      </trkpt>
      <trkpt lat="46.7082" lon="-0.8222">
        <ele>146.6</ele>
        <time>2025-03-07T21:02:06.200Z</time>
      </trkpt>
      <trkpt lat="46.70854" lon="-0.82177">
        <ele>149.4</ele>
        <time>2025-03-07T21:02:20.470Z</time>
      </trkpt>
      <trkpt lat="46.70878" lon="-0.82147">
        <ele>151.3</ele>
        <time>2025-03-07T21:02:30.216Z</time>
      </trkpt>
      <trkpt lat="46.70897" lon="-0.82118">
        <ele>153</ele>
        <time>2025-03-07T21:02:38.890Z</time>
      </trkpt>
      <trkpt lat="46.70913" lon="-0.82089">
        <ele>154.7</ele>
        <time>2025-03-07T21:02:47.474Z</time>
      </trkpt>
      <trkpt lat="46.70925" lon="-0.82053">
        <ele>156.7</ele>
        <time>2025-03-07T21:02:57.525Z</time>
      </trkpt>
      <trkpt lat="46.70931" lon="-0.82028">
        <ele>158</ele>
        <time>2025-03-07T21:03:04.059Z</time>
      </trkpt>
      <trkpt lat="46.70935" lon="-0.82008">
        <ele>158.8</ele>
        <time>2025-03-07T21:03:08.232Z</time>
      </trkpt>
      <trkpt lat="46.70948" lon="-0.81967">
        <ele>160.4</ele>
        <time>2025-03-07T21:03:16.785Z</time>
      </trkpt>
      <trkpt lat="46.70957" lon="-0.8195">
        <ele>161.3</ele>
        <time>2025-03-07T21:03:21.386Z</time>
      </trkpt>
      <trkpt lat="46.70974" lon="-0.81915">
        <ele>163.2</ele>
        <time>2025-03-07T21:03:31.015Z</time>
      </trkpt>
      <trkpt lat="46.70981" lon="-0.81903">
        <ele>164</ele>
        <time>2025-03-07T21:03:35.035Z</time>
      </trkpt>
      <trkpt lat="46.71001" lon="-0.81862">
        <ele>165</ele>
        <time>2025-03-07T21:03:42.271Z</time>
      </trkpt>
      <trkpt lat="46.71019" lon="-0.81826">
        <ele>166.7</ele>
        <time>2025-03-07T21:03:51.153Z</time>
      </trkpt>
      <trkpt lat="46.71034" lon="-0.818">
        <ele>167.4</ele>
        <time>2025-03-07T21:03:56.099Z</time>
      </trkpt>
      <trkpt lat="46.71054" lon="-0.81772">
        <ele>168.2</ele>
        <time>2025-03-07T21:04:01.905Z</time>
      </trkpt>
      <trkpt lat="46.71065" lon="-0.8176">
        <ele>168.9</ele>
        <time>2025-03-07T21:04:05.665Z</time>
      </trkpt>
      <trkpt lat="46.71089" lon="-0.81743">
        <ele>169.4</ele>
        <time>2025-03-07T21:04:10.661Z</time>
      </trkpt>
      <trkpt lat="46.71116" lon="-0.81723">
        <ele>170.2</ele>
        <time>2025-03-07T21:04:16.831Z</time>
      </trkpt>
      <trkpt lat="46.71141" lon="-0.81706">
        <ele>170.3</ele>
        <time>2025-03-07T21:04:21.257Z</time>
      </trkpt>
      <trkpt lat="46.71213" lon="-0.81644">
        <ele>166.8</ele>
        <time>2025-03-07T21:04:30.412Z</time>
      </trkpt>
      <trkpt lat="46.71264" lon="-0.81598">
        <ele>163.5</ele>
        <time>2025-03-07T21:04:36.412Z</time>
      </trkpt>
      <trkpt lat="46.71326" lon="-0.81541">
        <ele>159.4</ele>
        <time>2025-03-07T21:04:43.701Z</time>
      </trkpt>
      <trkpt lat="46.71341" lon="-0.81525">
        <ele>158.8</ele>
        <time>2025-03-07T21:04:45.886Z</time>
      </trkpt>
      <trkpt lat="46.71352" lon="-0.81512">
        <ele>158.7</ele>
        <time>2025-03-07T21:04:47.940Z</time>
      </trkpt>
      <trkpt lat="46.71373" lon="-0.81465">
        <ele>158.7</ele>
        <time>2025-03-07T21:04:53.901Z</time>
      </trkpt>
      <trkpt lat="46.71375" lon="-0.81459">
        <ele>158.7</ele>
        <time>2025-03-07T21:04:54.610Z</time>
      </trkpt>
      <trkpt lat="46.71379" lon="-0.81454">
        <ele>158.8</ele>
        <time>2025-03-07T21:04:55.599Z</time>
      </trkpt>
      <trkpt lat="46.71384" lon="-0.81449">
        <ele>158.9</ele>
        <time>2025-03-07T21:04:56.707Z</time>
      </trkpt>
      <trkpt lat="46.7139" lon="-0.81442">
        <ele>159</ele>
        <time>2025-03-07T21:04:58.062Z</time>
      </trkpt>
      <trkpt lat="46.71394" lon="-0.81438">
        <ele>158.9</ele>
        <time>2025-03-07T21:04:58.688Z</time>
      </trkpt>
      <trkpt lat="46.71395" lon="-0.81435">
        <ele>158.9</ele>
        <time>2025-03-07T21:04:59.042Z</time>
      </trkpt>
      <trkpt lat="46.71398" lon="-0.8143">
        <ele>159</ele>
        <time>2025-03-07T21:04:59.926Z</time>
      </trkpt>
      <trkpt lat="46.71398" lon="-0.8143">
        <ele>159</ele>
        <time>2025-03-07T21:04:59.926Z</time>
      </trkpt>
      <trkpt lat="46.71397" lon="-0.81428">
        <ele>159.1</ele>
        <time>2025-03-07T21:05:00.441Z</time>
      </trkpt>
      <trkpt lat="46.71397" lon="-0.81425">
        <ele>159.1</ele>
        <time>2025-03-07T21:05:00.760Z</time>
      </trkpt>
      <trkpt lat="46.71398" lon="-0.81422">
        <ele>159.2</ele>
        <time>2025-03-07T21:05:01.331Z</time>
      </trkpt>
      <trkpt lat="46.71398" lon="-0.81419">
        <ele>159.3</ele>
        <time>2025-03-07T21:05:01.877Z</time>
      </trkpt>
      <trkpt lat="46.71398" lon="-0.81416">
        <ele>159.3</ele>
        <time>2025-03-07T21:05:02.196Z</time>
      </trkpt>
      <trkpt lat="46.71399" lon="-0.81413">
        <ele>159.3</ele>
        <time>2025-03-07T21:05:02.551Z</time>
      </trkpt>
      <trkpt lat="46.71399" lon="-0.81412">
        <ele>159.2</ele>
        <time>2025-03-07T21:05:02.614Z</time>
      </trkpt>
      <trkpt lat="46.714" lon="-0.81409">
        <ele>159.2</ele>
        <time>2025-03-07T21:05:02.969Z</time>
      </trkpt>
      <trkpt lat="46.714" lon="-0.81408">
        <ele>159.2</ele>
        <time>2025-03-07T21:05:03.075Z</time>
      </trkpt>
      <trkpt lat="46.71401" lon="-0.81406">
        <ele>159.1</ele>
        <time>2025-03-07T21:05:03.241Z</time>
      </trkpt>
      <trkpt lat="46.71402" lon="-0.81404">
        <ele>159</ele>
        <time>2025-03-07T21:05:03.406Z</time>
      </trkpt>
      <trkpt lat="46.71403" lon="-0.81402">
        <ele>159</ele>
        <time>2025-03-07T21:05:03.669Z</time>
      </trkpt>
      <trkpt lat="46.71404" lon="-0.81401">
        <ele>158.9</ele>
        <time>2025-03-07T21:05:03.782Z</time>
      </trkpt>
      <trkpt lat="46.71406" lon="-0.814">
        <ele>158.9</ele>
        <time>2025-03-07T21:05:04.110Z</time>
      </trkpt>
      <trkpt lat="46.71407" lon="-0.81398">
        <ele>158.8</ele>
        <time>2025-03-07T21:05:04.275Z</time>
      </trkpt>
      <trkpt lat="46.7143" lon="-0.81395">
        <ele>157.7</ele>
        <time>2025-03-07T21:05:06.703Z</time>
      </trkpt>
      <trkpt lat="46.71438" lon="-0.81391">
        <ele>157.3</ele>
        <time>2025-03-07T21:05:07.594Z</time>
      </trkpt>
      <trkpt lat="46.71441" lon="-0.81389">
        <ele>157.1</ele>
        <time>2025-03-07T21:05:07.913Z</time>
      </trkpt>
      <trkpt lat="46.71446" lon="-0.81384">
        <ele>156.9</ele>
        <time>2025-03-07T21:05:08.622Z</time>
      </trkpt>
      <trkpt lat="46.71452" lon="-0.81373">
        <ele>156.7</ele>
        <time>2025-03-07T21:05:09.864Z</time>
      </trkpt>
      <trkpt lat="46.71454" lon="-0.8137">
        <ele>156.7</ele>
        <time>2025-03-07T21:05:10.308Z</time>
      </trkpt>
      <trkpt lat="46.71456" lon="-0.81369">
        <ele>156.6</ele>
        <time>2025-03-07T21:05:10.531Z</time>
      </trkpt>
      <trkpt lat="46.71457" lon="-0.81368">
        <ele>156.5</ele>
        <time>2025-03-07T21:05:10.644Z</time>
      </trkpt>
      <trkpt lat="46.71496" lon="-0.81327">
        <ele>155.1</ele>
        <time>2025-03-07T21:05:16.435Z</time>
      </trkpt>
      <trkpt lat="46.7152" lon="-0.81297">
        <ele>154.1</ele>
        <time>2025-03-07T21:05:20.169Z</time>
      </trkpt>
      <trkpt lat="46.7156" lon="-0.81238">
        <ele>152.7</ele>
        <time>2025-03-07T21:05:27.273Z</time>
      </trkpt>
      <trkpt lat="46.71596" lon="-0.81185">
        <ele>150.1</ele>
        <time>2025-03-07T21:05:32.535Z</time>
      </trkpt>
      <trkpt lat="46.7162" lon="-0.81143">
        <ele>146.5</ele>
        <time>2025-03-07T21:05:36.021Z</time>
      </trkpt>
      <trkpt lat="46.71651" lon="-0.81087">
        <ele>142.7</ele>
        <time>2025-03-07T21:05:40.609Z</time>
      </trkpt>
      <trkpt lat="46.71688" lon="-0.81019">
        <ele>135.4</ele>
        <time>2025-03-07T21:05:46.143Z</time>
      </trkpt>
      <trkpt lat="46.71716" lon="-0.80966">
        <ele>131.4</ele>
        <time>2025-03-07T21:05:50.409Z</time>
      </trkpt>
      <trkpt lat="46.71745" lon="-0.80912">
        <ele>128.4</ele>
        <time>2025-03-07T21:05:54.860Z</time>
      </trkpt>
      <trkpt lat="46.7177" lon="-0.80863">
        <ele>127.3</ele>
        <time>2025-03-07T21:06:00.020Z</time>
      </trkpt>
      <trkpt lat="46.71783" lon="-0.80835">
        <ele>126</ele>
        <time>2025-03-07T21:06:02.323Z</time>
      </trkpt>
      <trkpt lat="46.71784" lon="-0.80833">
        <ele>126</ele>
        <time>2025-03-07T21:06:02.586Z</time>
      </trkpt>
      <trkpt lat="46.71806" lon="-0.80781">
        <ele>125.9</ele>
        <time>2025-03-07T21:06:08.934Z</time>
      </trkpt>
      <trkpt lat="46.71822" lon="-0.80741">
        <ele>124.5</ele>
        <time>2025-03-07T21:06:12.356Z</time>
      </trkpt>
      <trkpt lat="46.71851" lon="-0.8067">
        <ele>125.2</ele>
        <time>2025-03-07T21:06:22.278Z</time>
      </trkpt>
      <trkpt lat="46.71873" lon="-0.80634">
        <ele>128.1</ele>
        <time>2025-03-07T21:06:37.081Z</time>
      </trkpt>
      <trkpt lat="46.71878" lon="-0.80624">
        <ele>129</ele>
        <time>2025-03-07T21:06:41.837Z</time>
      </trkpt>
      <trkpt lat="46.7189" lon="-0.80602">
        <ele>130.8</ele>
        <time>2025-03-07T21:06:51.130Z</time>
      </trkpt>
      <trkpt lat="46.71905" lon="-0.80577">
        <ele>133.2</ele>
        <time>2025-03-07T21:07:03.800Z</time>
      </trkpt>
      <trkpt lat="46.71922" lon="-0.80548">
        <ele>134.6</ele>
        <time>2025-03-07T21:07:11.198Z</time>
      </trkpt>
      <trkpt lat="46.71935" lon="-0.80524">
        <ele>136.5</ele>
        <time>2025-03-07T21:07:20.952Z</time>
      </trkpt>
      <trkpt lat="46.71939" lon="-0.80516">
        <ele>136.6</ele>
        <time>2025-03-07T21:07:22.170Z</time>
      </trkpt>
      <trkpt lat="46.71959" lon="-0.80472">
        <ele>139</ele>
        <time>2025-03-07T21:07:34.295Z</time>
      </trkpt>
      <trkpt lat="46.71976" lon="-0.80435">
        <ele>140</ele>
        <time>2025-03-07T21:07:40.983Z</time>
      </trkpt>
      <trkpt lat="46.71983" lon="-0.80422">
        <ele>141.5</ele>
        <time>2025-03-07T21:07:48.503Z</time>
      </trkpt>
      <trkpt lat="46.71987" lon="-0.80414">
        <ele>142.1</ele>
        <time>2025-03-07T21:07:51.570Z</time>
      </trkpt>
      <trkpt lat="46.71997" lon="-0.80393">
        <ele>142.1</ele>
        <time>2025-03-07T21:07:54.286Z</time>
      </trkpt>
      <trkpt lat="46.72001" lon="-0.80382">
        <ele>142.4</ele>
        <time>2025-03-07T21:07:56.209Z</time>
      </trkpt>
      <trkpt lat="46.72003" lon="-0.80372">
        <ele>142.9</ele>
        <time>2025-03-07T21:07:58.724Z</time>
      </trkpt>
      <trkpt lat="46.72005" lon="-0.80361">
        <ele>143.5</ele>
        <time>2025-03-07T21:08:01.743Z</time>
      </trkpt>
      <trkpt lat="46.72006" lon="-0.80352">
        <ele>143.6</ele>
        <time>2025-03-07T21:08:02.880Z</time>
      </trkpt>
      <trkpt lat="46.72006" lon="-0.80339">
        <ele>143.6</ele>
        <time>2025-03-07T21:08:04.261Z</time>
      </trkpt>
      <trkpt lat="46.72007" lon="-0.80308">
        <ele>144.2</ele>
        <time>2025-03-07T21:08:08.683Z</time>
      </trkpt>
      <trkpt lat="46.72007" lon="-0.80307">
        <ele>144.2</ele>
        <time>2025-03-07T21:08:08.790Z</time>
      </trkpt>
      <trkpt lat="46.72006" lon="-0.80296">
        <ele>144.1</ele>
        <time>2025-03-07T21:08:09.836Z</time>
      </trkpt>
      <trkpt lat="46.72004" lon="-0.80287">
        <ele>144</ele>
        <time>2025-03-07T21:08:10.710Z</time>
      </trkpt>
      <trkpt lat="46.71992" lon="-0.8026">
        <ele>143.4</ele>
        <time>2025-03-07T21:08:13.408Z</time>
      </trkpt>
      <trkpt lat="46.71977" lon="-0.80224">
        <ele>143.8</ele>
        <time>2025-03-07T21:08:18.545Z</time>
      </trkpt>
      <trkpt lat="46.71955" lon="-0.80191">
        <ele>143.3</ele>
        <time>2025-03-07T21:08:22.783Z</time>
      </trkpt>
      <trkpt lat="46.71944" lon="-0.80153">
        <ele>143</ele>
        <time>2025-03-07T21:08:26.759Z</time>
      </trkpt>
      <trkpt lat="46.72047" lon="-0.80184">
        <ele>140.7</ele>
        <time>2025-03-07T21:08:40.187Z</time>
      </trkpt>
      <trkpt lat="46.72064" lon="-0.80192">
        <ele>139.9</ele>
        <time>2025-03-07T21:08:42.103Z</time>
      </trkpt>
      <trkpt lat="46.72072" lon="-0.80203">
        <ele>139.3</ele>
        <time>2025-03-07T21:08:43.206Z</time>
      </trkpt>
      <trkpt lat="46.72093" lon="-0.80245">
        <ele>138.3</ele>
        <time>2025-03-07T21:08:47.535Z</time>
      </trkpt>
      <trkpt lat="46.72116" lon="-0.8028">
        <ele>136.7</ele>
        <time>2025-03-07T21:08:51.018Z</time>
      </trkpt>
      <trkpt lat="46.72145" lon="-0.80302">
        <ele>136.2</ele>
        <time>2025-03-07T21:08:55.429Z</time>
      </trkpt>
      <trkpt lat="46.72166" lon="-0.8031">
        <ele>135.6</ele>
        <time>2025-03-07T21:08:58.074Z</time>
      </trkpt>
      <trkpt lat="46.72226" lon="-0.80324">
        <ele>133.6</ele>
        <time>2025-03-07T21:09:05.183Z</time>
      </trkpt>
      <trkpt lat="46.72284" lon="-0.80331">
        <ele>129</ele>
        <time>2025-03-07T21:09:10.594Z</time>
      </trkpt>
      <trkpt lat="46.7233" lon="-0.8033">
        <ele>124.7</ele>
        <time>2025-03-07T21:09:14.872Z</time>
      </trkpt>
      <trkpt lat="46.72398" lon="-0.80329">
        <ele>120.1</ele>
        <time>2025-03-07T21:09:21.195Z</time>
      </trkpt>
      <trkpt lat="46.72442" lon="-0.80334">
        <ele>119.1</ele>
        <time>2025-03-07T21:09:26.794Z</time>
      </trkpt>
      <trkpt lat="46.72491" lon="-0.80347">
        <ele>120.9</ele>
        <time>2025-03-07T21:09:38.146Z</time>
      </trkpt>
      <trkpt lat="46.72543" lon="-0.80369">
        <ele>125.3</ele>
        <time>2025-03-07T21:10:00.374Z</time>
      </trkpt>
      <trkpt lat="46.72618" lon="-0.80406">
        <ele>130.7</ele>
        <time>2025-03-07T21:10:27.585Z</time>
      </trkpt>
      <trkpt lat="46.72694" lon="-0.80444">
        <ele>133</ele>
        <time>2025-03-07T21:10:44.367Z</time>
      </trkpt>
      <trkpt lat="46.72744" lon="-0.80467">
        <ele>133.8</ele>
        <time>2025-03-07T21:10:53.829Z</time>
      </trkpt>
      <trkpt lat="46.72792" lon="-0.80483">
        <ele>135.3</ele>
        <time>2025-03-07T21:11:04.332Z</time>
      </trkpt>
      <trkpt lat="46.72849" lon="-0.80503">
        <ele>134.8</ele>
        <time>2025-03-07T21:11:12.728Z</time>
      </trkpt>
      <trkpt lat="46.72894" lon="-0.8052">
        <ele>133.4</ele>
        <time>2025-03-07T21:11:18.285Z</time>
      </trkpt>
      <trkpt lat="46.72957" lon="-0.80554">
        <ele>135.8</ele>
        <time>2025-03-07T21:11:33.521Z</time>
      </trkpt>
      <trkpt lat="46.73025" lon="-0.8059">
        <ele>140.8</ele>
        <time>2025-03-07T21:11:58.693Z</time>
      </trkpt>
      <trkpt lat="46.73061" lon="-0.80604">
        <ele>142.4</ele>
        <time>2025-03-07T21:12:07.913Z</time>
      </trkpt>
      <trkpt lat="46.73085" lon="-0.80603">
        <ele>144.2</ele>
        <time>2025-03-07T21:12:16.960Z</time>
      </trkpt>
      <trkpt lat="46.731" lon="-0.80592">
        <ele>145.4</ele>
        <time>2025-03-07T21:12:22.992Z</time>
      </trkpt>
      <trkpt lat="46.73121" lon="-0.80575">
        <ele>146.4</ele>
        <time>2025-03-07T21:12:28.841Z</time>
      </trkpt>
      <trkpt lat="46.73141" lon="-0.80564">
        <ele>147.3</ele>
        <time>2025-03-07T21:12:34.077Z</time>
      </trkpt>
      <trkpt lat="46.73165" lon="-0.80567">
        <ele>147.4</ele>
        <time>2025-03-07T21:12:37.962Z</time>
      </trkpt>
      <trkpt lat="46.73176" lon="-0.80568">
        <ele>147.9</ele>
        <time>2025-03-07T21:12:40.773Z</time>
      </trkpt>
      <trkpt lat="46.73184" lon="-0.80554">
        <ele>147.6</ele>
        <time>2025-03-07T21:12:42.340Z</time>
      </trkpt>
      <trkpt lat="46.73198" lon="-0.80551">
        <ele>147.9</ele>
        <time>2025-03-07T21:12:45.061Z</time>
      </trkpt>
      <trkpt lat="46.73209" lon="-0.80558">
        <ele>148.1</ele>
        <time>2025-03-07T21:12:47.260Z</time>
      </trkpt>
      <trkpt lat="46.73217" lon="-0.80567">
        <ele>148.5</ele>
        <time>2025-03-07T21:12:49.660Z</time>
      </trkpt>
      <trkpt lat="46.73221" lon="-0.80588">
        <ele>149</ele>
        <time>2025-03-07T21:12:52.959Z</time>
      </trkpt>
      <trkpt lat="46.73216" lon="-0.8061">
        <ele>149</ele>
        <time>2025-03-07T21:12:55.421Z</time>
      </trkpt>
      <trkpt lat="46.73211" lon="-0.80621">
        <ele>148.8</ele>
        <time>2025-03-07T21:12:56.574Z</time>
      </trkpt>
      <trkpt lat="46.73212" lon="-0.80637">
        <ele>148.6</ele>
        <time>2025-03-07T21:12:58.024Z</time>
      </trkpt>
      <trkpt lat="46.73219" lon="-0.8066">
        <ele>148.9</ele>
        <time>2025-03-07T21:13:01.208Z</time>
      </trkpt>
      <trkpt lat="46.73233" lon="-0.80677">
        <ele>148.6</ele>
        <time>2025-03-07T21:13:03.642Z</time>
      </trkpt>
      <trkpt lat="46.73248" lon="-0.80681">
        <ele>148.5</ele>
        <time>2025-03-07T21:13:05.865Z</time>
      </trkpt>
      <trkpt lat="46.73264" lon="-0.8068">
        <ele>148.5</ele>
        <time>2025-03-07T21:13:08.347Z</time>
      </trkpt>
      <trkpt lat="46.73285" lon="-0.80665">
        <ele>149</ele>
        <time>2025-03-07T21:13:12.852Z</time>
      </trkpt>
      <trkpt lat="46.73314" lon="-0.80658">
        <ele>149.9</ele>
        <time>2025-03-07T21:13:19.134Z</time>
      </trkpt>
      <trkpt lat="46.73436" lon="-0.80669">
        <ele>152.1</ele>
        <time>2025-03-07T21:13:41.844Z</time>
      </trkpt>
      <trkpt lat="46.73495" lon="-0.80665">
        <ele>152.8</ele>
        <time>2025-03-07T21:13:52.134Z</time>
      </trkpt>
      <trkpt lat="46.73535" lon="-0.8066">
        <ele>153</ele>
        <time>2025-03-07T21:13:58.662Z</time>
      </trkpt>
      <trkpt lat="46.73564" lon="-0.8066">
        <ele>153</ele>
        <time>2025-03-07T21:14:03.157Z</time>
      </trkpt>
      <trkpt lat="46.73583" lon="-0.80661">
        <ele>153</ele>
        <time>2025-03-07T21:14:06.103Z</time>
      </trkpt>
      <trkpt lat="46.73615" lon="-0.80675">
        <ele>153.1</ele>
        <time>2025-03-07T21:14:11.431Z</time>
      </trkpt>
      <trkpt lat="46.73647" lon="-0.8069">
        <ele>152.8</ele>
        <time>2025-03-07T21:14:16.228Z</time>
      </trkpt>
      <trkpt lat="46.73692" lon="-0.80728">
        <ele>151.5</ele>
        <time>2025-03-07T21:14:22.699Z</time>
      </trkpt>
      <trkpt lat="46.73766" lon="-0.80793">
        <ele>147.8</ele>
        <time>2025-03-07T21:14:32.091Z</time>
      </trkpt>
      <trkpt lat="46.73792" lon="-0.80814">
        <ele>146.1</ele>
        <time>2025-03-07T21:14:35.023Z</time>
      </trkpt>
      <trkpt lat="46.7382" lon="-0.80837">
        <ele>145.1</ele>
        <time>2025-03-07T21:14:38.834Z</time>
      </trkpt>
      <trkpt lat="46.73859" lon="-0.80857">
        <ele>143.1</ele>
        <time>2025-03-07T21:14:43.158Z</time>
      </trkpt>
      <trkpt lat="46.73898" lon="-0.80866">
        <ele>141.4</ele>
        <time>2025-03-07T21:14:47.445Z</time>
      </trkpt>
      <trkpt lat="46.73934" lon="-0.8087">
        <ele>139.2</ele>
        <time>2025-03-07T21:14:50.923Z</time>
      </trkpt>
      <trkpt lat="46.73974" lon="-0.80879">
        <ele>136.2</ele>
        <time>2025-03-07T21:14:54.686Z</time>
      </trkpt>
      <trkpt lat="46.74006" lon="-0.80891">
        <ele>133.9</ele>
        <time>2025-03-07T21:14:57.758Z</time>
      </trkpt>
      <trkpt lat="46.74049" lon="-0.80915">
        <ele>131.3</ele>
        <time>2025-03-07T21:15:02.321Z</time>
      </trkpt>
      <trkpt lat="46.74086" lon="-0.80937">
        <ele>129</ele>
        <time>2025-03-07T21:15:06.253Z</time>
      </trkpt>
      <trkpt lat="46.74103" lon="-0.80949">
        <ele>127.6</ele>
        <time>2025-03-07T21:15:08.009Z</time>
      </trkpt>
      <trkpt lat="46.74132" lon="-0.80976">
        <ele>130.1</ele>
        <time>2025-03-07T21:15:20.572Z</time>
      </trkpt>
      <trkpt lat="46.74158" lon="-0.81009">
        <ele>132</ele>
        <time>2025-03-07T21:15:30.525Z</time>
      </trkpt>
      <trkpt lat="46.74191" lon="-0.81055">
        <ele>133.7</ele>
        <time>2025-03-07T21:15:41.066Z</time>
      </trkpt>
      <trkpt lat="46.74228" lon="-0.81113">
        <ele>137.3</ele>
        <time>2025-03-07T21:15:59.253Z</time>
      </trkpt>
      <trkpt lat="46.74262" lon="-0.81166">
        <ele>139.3</ele>
        <time>2025-03-07T21:16:11.159Z</time>
      </trkpt>
      <trkpt lat="46.743" lon="-0.81211">
        <ele>142.4</ele>
        <time>2025-03-07T21:16:26.913Z</time>
      </trkpt>
      <trkpt lat="46.74348" lon="-0.81259">
        <ele>144.4</ele>
        <time>2025-03-07T21:16:39.902Z</time>
      </trkpt>
      <trkpt lat="46.74385" lon="-0.81284">
        <ele>144.2</ele>
        <time>2025-03-07T21:16:45.937Z</time>
      </trkpt>
      <trkpt lat="46.74412" lon="-0.81299">
        <ele>144.1</ele>
        <time>2025-03-07T21:16:50.271Z</time>
      </trkpt>
      <trkpt lat="46.74467" lon="-0.81329">
        <ele>143.1</ele>
        <time>2025-03-07T21:16:58.078Z</time>
      </trkpt>
      <trkpt lat="46.74543" lon="-0.81369">
        <ele>144.1</ele>
        <time>2025-03-07T21:17:12.230Z</time>
      </trkpt>
      <trkpt lat="46.7457" lon="-0.81383">
        <ele>145.7</ele>
        <time>2025-03-07T21:17:20.582Z</time>
      </trkpt>
      <trkpt lat="46.74607" lon="-0.81395">
        <ele>147.8</ele>
        <time>2025-03-07T21:17:31.567Z</time>
      </trkpt>
      <trkpt lat="46.74617" lon="-0.8139">
        <ele>148.2</ele>
        <time>2025-03-07T21:17:34.026Z</time>
      </trkpt>
      <trkpt lat="46.74624" lon="-0.81394">
        <ele>148.5</ele>
        <time>2025-03-07T21:17:35.819Z</time>
      </trkpt>
      <trkpt lat="46.74629" lon="-0.81401">
        <ele>148.7</ele>
        <time>2025-03-07T21:17:37.270Z</time>
      </trkpt>
      <trkpt lat="46.74631" lon="-0.8141">
        <ele>148.7</ele>
        <time>2025-03-07T21:17:38.275Z</time>
      </trkpt>
      <trkpt lat="46.74649" lon="-0.81423">
        <ele>149.4</ele>
        <time>2025-03-07T21:17:42.783Z</time>
      </trkpt>
      <trkpt lat="46.74661" lon="-0.81431">
        <ele>149.8</ele>
        <time>2025-03-07T21:17:45.593Z</time>
      </trkpt>
      <trkpt lat="46.74704" lon="-0.81454">
        <ele>151.3</ele>
        <time>2025-03-07T21:17:55.624Z</time>
      </trkpt>
      <trkpt lat="46.74768" lon="-0.81488">
        <ele>153.6</ele>
        <time>2025-03-07T21:18:10.720Z</time>
      </trkpt>
      <trkpt lat="46.74832" lon="-0.81518">
        <ele>156.9</ele>
        <time>2025-03-07T21:18:28.684Z</time>
      </trkpt>
      <trkpt lat="46.74908" lon="-0.8156">
        <ele>158.9</ele>
        <time>2025-03-07T21:18:44.909Z</time>
      </trkpt>
      <trkpt lat="46.74947" lon="-0.81578">
        <ele>160</ele>
        <time>2025-03-07T21:18:53.287Z</time>
      </trkpt>
      <trkpt lat="46.74989" lon="-0.81603">
        <ele>160.2</ele>
        <time>2025-03-07T21:19:00.621Z</time>
      </trkpt>
      <trkpt lat="46.75033" lon="-0.81625">
        <ele>159.5</ele>
        <time>2025-03-07T21:19:06.911Z</time>
      </trkpt>
      <trkpt lat="46.75082" lon="-0.81652">
        <ele>159</ele>
        <time>2025-03-07T21:19:14.344Z</time>
      </trkpt>
      <trkpt lat="46.75125" lon="-0.81671">
        <ele>160.3</ele>
        <time>2025-03-07T21:19:23.761Z</time>
      </trkpt>
      <trkpt lat="46.75171" lon="-0.81695">
        <ele>162</ele>
        <time>2025-03-07T21:19:34.721Z</time>
      </trkpt>
      <trkpt lat="46.75279" lon="-0.81753">
        <ele>163</ele>
        <time>2025-03-07T21:19:54.137Z</time>
      </trkpt>
      <trkpt lat="46.7535" lon="-0.8179">
        <ele>163.4</ele>
        <time>2025-03-07T21:20:06.435Z</time>
      </trkpt>
      <trkpt lat="46.75402" lon="-0.81817">
        <ele>164.8</ele>
        <time>2025-03-07T21:20:17.548Z</time>
      </trkpt>
      <trkpt lat="46.75469" lon="-0.81852">
        <ele>164.1</ele>
        <time>2025-03-07T21:20:27.621Z</time>
      </trkpt>
      <trkpt lat="46.7555" lon="-0.81893">
        <ele>161.2</ele>
        <time>2025-03-07T21:20:37.581Z</time>
      </trkpt>
      <trkpt lat="46.75598" lon="-0.81918">
        <ele>159</ele>
        <time>2025-03-07T21:20:43.109Z</time>
      </trkpt>
      <trkpt lat="46.75653" lon="-0.81952">
        <ele>157.3</ele>
        <time>2025-03-07T21:20:50.342Z</time>
      </trkpt>
      <trkpt lat="46.75707" lon="-0.81989">
        <ele>154.6</ele>
        <time>2025-03-07T21:20:56.719Z</time>
      </trkpt>
      <trkpt lat="46.75759" lon="-0.82025">
        <ele>152.5</ele>
        <time>2025-03-07T21:21:03.273Z</time>
      </trkpt>
      <trkpt lat="46.75809" lon="-0.82063">
        <ele>149.5</ele>
        <time>2025-03-07T21:21:08.980Z</time>
      </trkpt>
      <trkpt lat="46.75846" lon="-0.8209">
        <ele>146.9</ele>
        <time>2025-03-07T21:21:12.918Z</time>
      </trkpt>
      <trkpt lat="46.7589" lon="-0.82122">
        <ele>143.9</ele>
        <time>2025-03-07T21:21:17.651Z</time>
      </trkpt>
      <trkpt lat="46.75924" lon="-0.82144">
        <ele>142.5</ele>
        <time>2025-03-07T21:21:21.850Z</time>
      </trkpt>
      <trkpt lat="46.76033" lon="-0.82215">
        <ele>146.7</ele>
        <time>2025-03-07T21:21:48.751Z</time>
      </trkpt>
      <trkpt lat="46.76075" lon="-0.82241">
        <ele>147.7</ele>
        <time>2025-03-07T21:21:57.594Z</time>
      </trkpt>
      <trkpt lat="46.76128" lon="-0.82283">
        <ele>149.6</ele>
        <time>2025-03-07T21:22:10.613Z</time>
      </trkpt>
      <trkpt lat="46.76158" lon="-0.82308">
        <ele>150.7</ele>
        <time>2025-03-07T21:22:18.100Z</time>
      </trkpt>
      <trkpt lat="46.76193" lon="-0.82346">
        <ele>152</ele>
        <time>2025-03-07T21:22:27.334Z</time>
      </trkpt>
      <trkpt lat="46.76211" lon="-0.82372">
        <ele>151.6</ele>
        <time>2025-03-07T21:22:30.736Z</time>
      </trkpt>
      <trkpt lat="46.76243" lon="-0.82424">
        <ele>149.1</ele>
        <time>2025-03-07T21:22:35.617Z</time>
      </trkpt>
      <trkpt lat="46.76276" lon="-0.82488">
        <ele>146.5</ele>
        <time>2025-03-07T21:22:41.397Z</time>
      </trkpt>
      <trkpt lat="46.76305" lon="-0.82542">
        <ele>144</ele>
        <time>2025-03-07T21:22:46.157Z</time>
      </trkpt>
      <trkpt lat="46.76324" lon="-0.82571">
        <ele>143.1</ele>
        <time>2025-03-07T21:22:49.377Z</time>
      </trkpt>
      <trkpt lat="46.76342" lon="-0.82586">
        <ele>143.1</ele>
        <time>2025-03-07T21:22:52.589Z</time>
      </trkpt>
      <trkpt lat="46.76368" lon="-0.82599">
        <ele>142.7</ele>
        <time>2025-03-07T21:22:56.321Z</time>
      </trkpt>
      <trkpt lat="46.76403" lon="-0.82609">
        <ele>143.2</ele>
        <time>2025-03-07T21:23:02.676Z</time>
      </trkpt>
      <trkpt lat="46.76441" lon="-0.82611">
        <ele>142.2</ele>
        <time>2025-03-07T21:23:07.360Z</time>
      </trkpt>
      <trkpt lat="46.76486" lon="-0.82603">
        <ele>141.5</ele>
        <time>2025-03-07T21:23:13.469Z</time>
      </trkpt>
      <trkpt lat="46.76528" lon="-0.82589">
        <ele>145.2</ele>
        <time>2025-03-07T21:23:32.293Z</time>
      </trkpt>
      <trkpt lat="46.76562" lon="-0.82574">
        <ele>146.9</ele>
        <time>2025-03-07T21:23:41.639Z</time>
      </trkpt>
      <trkpt lat="46.76585" lon="-0.82557">
        <ele>149.2</ele>
        <time>2025-03-07T21:23:53.413Z</time>
      </trkpt>
      <trkpt lat="46.7661" lon="-0.82545">
        <ele>151.1</ele>
        <time>2025-03-07T21:24:02.961Z</time>
      </trkpt>
      <trkpt lat="46.76627" lon="-0.82537">
        <ele>152</ele>
        <time>2025-03-07T21:24:07.814Z</time>
      </trkpt>
      <trkpt lat="46.76636" lon="-0.82526">
        <ele>152.7</ele>
        <time>2025-03-07T21:24:11.410Z</time>
      </trkpt>
      <trkpt lat="46.76644" lon="-0.82506">
        <ele>154.1</ele>
        <time>2025-03-07T21:24:18.564Z</time>
      </trkpt>
      <trkpt lat="46.76659" lon="-0.82499">
        <ele>154.7</ele>
        <time>2025-03-07T21:24:22.238Z</time>
      </trkpt>
      <trkpt lat="46.76672" lon="-0.82507">
        <ele>155.6</ele>
        <time>2025-03-07T21:24:26.807Z</time>
      </trkpt>
      <trkpt lat="46.76681" lon="-0.82527">
        <ele>156.5</ele>
        <time>2025-03-07T21:24:31.527Z</time>
      </trkpt>
      <trkpt lat="46.76679" lon="-0.82543">
        <ele>156.1</ele>
        <time>2025-03-07T21:24:32.801Z</time>
      </trkpt>
      <trkpt lat="46.76693" lon="-0.82563">
        <ele>156.9</ele>
        <time>2025-03-07T21:24:37.526Z</time>
      </trkpt>
      <trkpt lat="46.76701" lon="-0.82574">
        <ele>157.3</ele>
        <time>2025-03-07T21:24:40.038Z</time>
      </trkpt>
      <trkpt lat="46.76726" lon="-0.82587">
        <ele>158.4</ele>
        <time>2025-03-07T21:24:46.486Z</time>
      </trkpt>
      <trkpt lat="46.76754" lon="-0.82608">
        <ele>159.5</ele>
        <time>2025-03-07T21:24:53.561Z</time>
      </trkpt>
      <trkpt lat="46.76784" lon="-0.82637">
        <ele>159.3</ele>
        <time>2025-03-07T21:24:58.854Z</time>
      </trkpt>
      <trkpt lat="46.76808" lon="-0.82666">
        <ele>158.1</ele>
        <time>2025-03-07T21:25:02.349Z</time>
      </trkpt>
      <trkpt lat="46.76839" lon="-0.82707">
        <ele>155</ele>
        <time>2025-03-07T21:25:06.239Z</time>
      </trkpt>
      <trkpt lat="46.76882" lon="-0.82772">
        <ele>151</ele>
        <time>2025-03-07T21:25:12.067Z</time>
      </trkpt>
      <trkpt lat="46.76945" lon="-0.82863">
        <ele>148.8</ele>
        <time>2025-03-07T21:25:23.114Z</time>
      </trkpt>
      <trkpt lat="46.76991" lon="-0.82924">
        <ele>147.8</ele>
        <time>2025-03-07T21:25:31.443Z</time>
      </trkpt>
      <trkpt lat="46.77039" lon="-0.82982">
        <ele>148.3</ele>
        <time>2025-03-07T21:25:41.885Z</time>
      </trkpt>
      <trkpt lat="46.77073" lon="-0.83018">
        <ele>147.8</ele>
        <time>2025-03-07T21:25:47.722Z</time>
      </trkpt>
      <trkpt lat="46.77108" lon="-0.83052">
        <ele>146.2</ele>
        <time>2025-03-07T21:25:52.454Z</time>
      </trkpt>
      <trkpt lat="46.77139" lon="-0.8307">
        <ele>145</ele>
        <time>2025-03-07T21:25:56.268Z</time>
      </trkpt>
      <trkpt lat="46.772" lon="-0.83101">
        <ele>144.4</ele>
        <time>2025-03-07T21:26:05.456Z</time>
      </trkpt>
      <trkpt lat="46.77257" lon="-0.83128">
        <ele>144.2</ele>
        <time>2025-03-07T21:26:14.455Z</time>
      </trkpt>
      <trkpt lat="46.77291" lon="-0.8314">
        <ele>146</ele>
        <time>2025-03-07T21:26:24.089Z</time>
      </trkpt>
      <trkpt lat="46.77304" lon="-0.83133">
        <ele>146.7</ele>
        <time>2025-03-07T21:26:27.860Z</time>
      </trkpt>
      <trkpt lat="46.77315" lon="-0.83122">
        <ele>146.6</ele>
        <time>2025-03-07T21:26:29.787Z</time>
      </trkpt>
      <trkpt lat="46.77327" lon="-0.83128">
        <ele>146.9</ele>
        <time>2025-03-07T21:26:32.293Z</time>
      </trkpt>
      <trkpt lat="46.77338" lon="-0.83139">
        <ele>147.8</ele>
        <time>2025-03-07T21:26:36.832Z</time>
      </trkpt>
      <trkpt lat="46.7734" lon="-0.83157">
        <ele>148.1</ele>
        <time>2025-03-07T21:26:39.309Z</time>
      </trkpt>
      <trkpt lat="46.7734" lon="-0.83173">
        <ele>147.9</ele>
        <time>2025-03-07T21:26:40.751Z</time>
      </trkpt>
      <trkpt lat="46.77353" lon="-0.83198">
        <ele>147.7</ele>
        <time>2025-03-07T21:26:43.809Z</time>
      </trkpt>
      <trkpt lat="46.77358" lon="-0.8321">
        <ele>148.4</ele>
        <time>2025-03-07T21:26:47.326Z</time>
      </trkpt>
      <trkpt lat="46.77371" lon="-0.83225">
        <ele>148.9</ele>
        <time>2025-03-07T21:26:50.849Z</time>
      </trkpt>
      <trkpt lat="46.77393" lon="-0.83247">
        <ele>149.7</ele>
        <time>2025-03-07T21:26:56.507Z</time>
      </trkpt>
      <trkpt lat="46.77417" lon="-0.83267">
        <ele>150.3</ele>
        <time>2025-03-07T21:27:01.851Z</time>
      </trkpt>
      <trkpt lat="46.7744" lon="-0.83284">
        <ele>151.2</ele>
        <time>2025-03-07T21:27:07.642Z</time>
      </trkpt>
      <trkpt lat="46.77464" lon="-0.83298">
        <ele>152.6</ele>
        <time>2025-03-07T21:27:15.014Z</time>
      </trkpt>
      <trkpt lat="46.77491" lon="-0.83313">
        <ele>154.5</ele>
        <time>2025-03-07T21:27:24.621Z</time>
      </trkpt>
      <trkpt lat="46.77518" lon="-0.83329">
        <ele>155.1</ele>
        <time>2025-03-07T21:27:30.188Z</time>
      </trkpt>
      <trkpt lat="46.77545" lon="-0.83352">
        <ele>157.8</ele>
        <time>2025-03-07T21:27:43.936Z</time>
      </trkpt>
      <trkpt lat="46.77566" lon="-0.83382">
        <ele>160.1</ele>
        <time>2025-03-07T21:27:55.519Z</time>
      </trkpt>
      <trkpt lat="46.77582" lon="-0.83416">
        <ele>159.3</ele>
        <time>2025-03-07T21:27:58.944Z</time>
      </trkpt>
      <trkpt lat="46.77605" lon="-0.83464">
        <ele>160.5</ele>
        <time>2025-03-07T21:28:07.448Z</time>
      </trkpt>
      <trkpt lat="46.77616" lon="-0.83492">
        <ele>161.2</ele>
        <time>2025-03-07T21:28:12.229Z</time>
      </trkpt>
      <trkpt lat="46.77626" lon="-0.83514">
        <ele>162.9</ele>
        <time>2025-03-07T21:28:21.017Z</time>
      </trkpt>
      <trkpt lat="46.77643" lon="-0.83537">
        <ele>163.6</ele>
        <time>2025-03-07T21:28:25.946Z</time>
      </trkpt>
      <trkpt lat="46.77662" lon="-0.83559">
        <ele>164.8</ele>
        <time>2025-03-07T21:28:32.459Z</time>
      </trkpt>
      <trkpt lat="46.77686" lon="-0.83588">
        <ele>166.8</ele>
        <time>2025-03-07T21:28:42.603Z</time>
      </trkpt>
      <trkpt lat="46.77698" lon="-0.83601">
        <ele>167.6</ele>
        <time>2025-03-07T21:28:46.830Z</time>
      </trkpt>
      <trkpt lat="46.77709" lon="-0.83614">
        <ele>168.3</ele>
        <time>2025-03-07T21:28:50.629Z</time>
      </trkpt>
      <trkpt lat="46.77722" lon="-0.83626">
        <ele>169.2</ele>
        <time>2025-03-07T21:28:55.273Z</time>
      </trkpt>
      <trkpt lat="46.77736" lon="-0.83637">
        <ele>170.2</ele>
        <time>2025-03-07T21:29:00.360Z</time>
      </trkpt>
      <trkpt lat="46.77746" lon="-0.83645">
        <ele>170.8</ele>
        <time>2025-03-07T21:29:03.548Z</time>
      </trkpt>
      <trkpt lat="46.77748" lon="-0.83647">
        <ele>170.9</ele>
        <time>2025-03-07T21:29:04.135Z</time>
      </trkpt>
      <trkpt lat="46.77759" lon="-0.83653">
        <ele>171.2</ele>
        <time>2025-03-07T21:29:06.505Z</time>
      </trkpt>
      <trkpt lat="46.77781" lon="-0.83665">
        <ele>172.7</ele>
        <time>2025-03-07T21:29:14.118Z</time>
      </trkpt>
      <trkpt lat="46.77806" lon="-0.83676">
        <ele>174.7</ele>
        <time>2025-03-07T21:29:24.178Z</time>
      </trkpt>
      <trkpt lat="46.77821" lon="-0.83683">
        <ele>175.4</ele>
        <time>2025-03-07T21:29:28.148Z</time>
      </trkpt>
      <trkpt lat="46.77834" lon="-0.8369">
        <ele>176.2</ele>
        <time>2025-03-07T21:29:32.289Z</time>
      </trkpt>
      <trkpt lat="46.77838" lon="-0.83688">
        <ele>176</ele>
        <time>2025-03-07T21:29:32.734Z</time>
      </trkpt>
      <trkpt lat="46.77843" lon="-0.83692">
        <ele>176.9</ele>
        <time>2025-03-07T21:29:36.521Z</time>
      </trkpt>
      <trkpt lat="46.77849" lon="-0.83697">
        <ele>177.7</ele>
        <time>2025-03-07T21:29:40.763Z</time>
      </trkpt>
      <trkpt lat="46.77854" lon="-0.83701">
        <ele>178</ele>
        <time>2025-03-07T21:29:42.357Z</time>
      </trkpt>
      <trkpt lat="46.7786" lon="-0.83708">
        <ele>178.5</ele>
        <time>2025-03-07T21:29:44.889Z</time>
      </trkpt>
      <trkpt lat="46.77863" lon="-0.83712">
        <ele>178.6</ele>
        <time>2025-03-07T21:29:45.700Z</time>
      </trkpt>
      <trkpt lat="46.77868" lon="-0.8372">
        <ele>178.9</ele>
        <time>2025-03-07T21:29:47.480Z</time>
      </trkpt>
      <trkpt lat="46.77873" lon="-0.83729">
        <ele>179.4</ele>
        <time>2025-03-07T21:29:50.023Z</time>
      </trkpt>
      <trkpt lat="46.77877" lon="-0.83741">
        <ele>180</ele>
        <time>2025-03-07T21:29:53.058Z</time>
      </trkpt>
      <trkpt lat="46.7788" lon="-0.83751">
        <ele>180.4</ele>
        <time>2025-03-07T21:29:55.172Z</time>
      </trkpt>
      <trkpt lat="46.77883" lon="-0.83764">
        <ele>181.2</ele>
        <time>2025-03-07T21:29:59.237Z</time>
      </trkpt>
      <trkpt lat="46.77884" lon="-0.83774">
        <ele>181.9</ele>
        <time>2025-03-07T21:30:02.907Z</time>
      </trkpt>
      <trkpt lat="46.77884" lon="-0.83779">
        <ele>182.2</ele>
        <time>2025-03-07T21:30:04.438Z</time>
      </trkpt>
      <trkpt lat="46.77886" lon="-0.83791">
        <ele>182.6</ele>
        <time>2025-03-07T21:30:06.648Z</time>
      </trkpt>
      <trkpt lat="46.77889" lon="-0.83809">
        <ele>183.2</ele>
        <time>2025-03-07T21:30:09.962Z</time>
      </trkpt>
      <trkpt lat="46.77894" lon="-0.83832">
        <ele>184.4</ele>
        <time>2025-03-07T21:30:15.992Z</time>
      </trkpt>
      <trkpt lat="46.77899" lon="-0.83851">
        <ele>184.8</ele>
        <time>2025-03-07T21:30:18.906Z</time>
      </trkpt>
      <trkpt lat="46.77906" lon="-0.83873">
        <ele>185.3</ele>
        <time>2025-03-07T21:30:22.435Z</time>
      </trkpt>
      <trkpt lat="46.7791" lon="-0.83883">
        <ele>185.7</ele>
        <time>2025-03-07T21:30:24.591Z</time>
      </trkpt>
      <trkpt lat="46.77913" lon="-0.83888">
        <ele>185.9</ele>
        <time>2025-03-07T21:30:25.731Z</time>
      </trkpt>
      <trkpt lat="46.77916" lon="-0.83892">
        <ele>186.2</ele>
        <time>2025-03-07T21:30:27.239Z</time>
      </trkpt>
      <trkpt lat="46.77919" lon="-0.83896">
        <ele>186.6</ele>
        <time>2025-03-07T21:30:29.326Z</time>
      </trkpt>
      <trkpt lat="46.77923" lon="-0.83901">
        <ele>187.1</ele>
        <time>2025-03-07T21:30:31.915Z</time>
      </trkpt>
      <trkpt lat="46.77928" lon="-0.83905">
        <ele>187.6</ele>
        <time>2025-03-07T21:30:34.468Z</time>
      </trkpt>
      <trkpt lat="46.77933" lon="-0.83908">
        <ele>188</ele>
        <time>2025-03-07T21:30:36.478Z</time>
      </trkpt>
      <trkpt lat="46.7794" lon="-0.83911">
        <ele>188.4</ele>
        <time>2025-03-07T21:30:38.576Z</time>
      </trkpt>
      <trkpt lat="46.77945" lon="-0.83912">
        <ele>188.7</ele>
        <time>2025-03-07T21:30:40.119Z</time>
      </trkpt>
      <trkpt lat="46.77949" lon="-0.83912">
        <ele>189</ele>
        <time>2025-03-07T21:30:41.627Z</time>
      </trkpt>
      <trkpt lat="46.77958" lon="-0.8391">
        <ele>189.5</ele>
        <time>2025-03-07T21:30:44.249Z</time>
      </trkpt>
      <trkpt lat="46.7797" lon="-0.83907">
        <ele>190.1</ele>
        <time>2025-03-07T21:30:47.510Z</time>
      </trkpt>
      <trkpt lat="46.77982" lon="-0.83903">
        <ele>190.9</ele>
        <time>2025-03-07T21:30:51.561Z</time>
      </trkpt>
      <trkpt lat="46.78" lon="-0.83894">
        <ele>192.2</ele>
        <time>2025-03-07T21:30:58.111Z</time>
      </trkpt>
      <trkpt lat="46.78012" lon="-0.83891">
        <ele>192.5</ele>
        <time>2025-03-07T21:31:00.543Z</time>
      </trkpt>
      <trkpt lat="46.78033" lon="-0.83891">
        <ele>193.4</ele>
        <time>2025-03-07T21:31:05.734Z</time>
      </trkpt>
      <trkpt lat="46.78046" lon="-0.83891">
        <ele>193.9</ele>
        <time>2025-03-07T21:31:08.780Z</time>
      </trkpt>
      <trkpt lat="46.78058" lon="-0.83894">
        <ele>194.7</ele>
        <time>2025-03-07T21:31:12.826Z</time>
      </trkpt>
      <trkpt lat="46.78075" lon="-0.83898">
        <ele>196.2</ele>
        <time>2025-03-07T21:31:20.474Z</time>
      </trkpt>
      <trkpt lat="46.78083" lon="-0.83901">
        <ele>196.9</ele>
        <time>2025-03-07T21:31:24.028Z</time>
      </trkpt>
      <trkpt lat="46.78088" lon="-0.83905">
        <ele>197.4</ele>
        <time>2025-03-07T21:31:26.581Z</time>
      </trkpt>
      <trkpt lat="46.78092" lon="-0.83911">
        <ele>198</ele>
        <time>2025-03-07T21:31:29.745Z</time>
      </trkpt>
      <trkpt lat="46.78092" lon="-0.83911">
        <ele>198</ele>
        <time>2025-03-07T21:31:29.745Z</time>
      </trkpt>
      <trkpt lat="46.78116" lon="-0.8389">
        <ele>198.4</ele>
        <time>2025-03-07T21:31:34.744Z</time>
      </trkpt>
      <trkpt lat="46.78132" lon="-0.83875">
        <ele>199.1</ele>
        <time>2025-03-07T21:31:39.113Z</time>
      </trkpt>
      <trkpt lat="46.78139" lon="-0.83866">
        <ele>200</ele>
        <time>2025-03-07T21:31:43.790Z</time>
      </trkpt>
      <trkpt lat="46.78145" lon="-0.83858">
        <ele>200.4</ele>
        <time>2025-03-07T21:31:45.965Z</time>
      </trkpt>
      <trkpt lat="46.78148" lon="-0.83851">
        <ele>200.4</ele>
        <time>2025-03-07T21:31:46.841Z</time>
      </trkpt>
      <trkpt lat="46.78152" lon="-0.83836">
        <ele>200.5</ele>
        <time>2025-03-07T21:31:48.708Z</time>
      </trkpt>
      <trkpt lat="46.78152" lon="-0.83836">
        <ele>200.5</ele>
        <time>2025-03-07T21:31:48.708Z</time>
      </trkpt>
      <trkpt lat="46.78165" lon="-0.83843">
        <ele>201.8</ele>
        <time>2025-03-07T21:31:55.426Z</time>
      </trkpt>
      <trkpt lat="46.78177" lon="-0.83848">
        <ele>203.5</ele>
        <time>2025-03-07T21:32:03.714Z</time>
      </trkpt>
      <trkpt lat="46.78186" lon="-0.83855">
        <ele>204.4</ele>
        <time>2025-03-07T21:32:08.312Z</time>
      </trkpt>
      <trkpt lat="46.78194" lon="-0.83865">
        <ele>204.7</ele>
        <time>2025-03-07T21:32:10.509Z</time>
      </trkpt>
      <trkpt lat="46.78204" lon="-0.8388">
        <ele>204.8</ele>
        <time>2025-03-07T21:32:12.886Z</time>
      </trkpt>
      <trkpt lat="46.78225" lon="-0.83913">
        <ele>204.5</ele>
        <time>2025-03-07T21:32:17.257Z</time>
      </trkpt>
      <trkpt lat="46.78241" lon="-0.83942">
        <ele>203.2</ele>
        <time>2025-03-07T21:32:19.878Z</time>
      </trkpt>
      <trkpt lat="46.78259" lon="-0.83972">
        <ele>203.3</ele>
        <time>2025-03-07T21:32:24.263Z</time>
      </trkpt>
      <trkpt lat="46.78278" lon="-0.84003">
        <ele>202.7</ele>
        <time>2025-03-07T21:32:27.925Z</time>
      </trkpt>
      <trkpt lat="46.78295" lon="-0.84032">
        <ele>203.3</ele>
        <time>2025-03-07T21:32:33.049Z</time>
      </trkpt>
      <trkpt lat="46.7831" lon="-0.84058">
        <ele>202.8</ele>
        <time>2025-03-07T21:32:36.031Z</time>
      </trkpt>
      <trkpt lat="46.78326" lon="-0.84086">
        <ele>203.1</ele>
        <time>2025-03-07T21:32:40.389Z</time>
      </trkpt>
      <trkpt lat="46.78332" lon="-0.84096">
        <ele>202.9</ele>
        <time>2025-03-07T21:32:41.551Z</time>
      </trkpt>
      <trkpt lat="46.78339" lon="-0.84109">
        <ele>202.3</ele>
        <time>2025-03-07T21:32:42.699Z</time>
      </trkpt>
      <trkpt lat="46.78349" lon="-0.8413">
        <ele>201.5</ele>
        <time>2025-03-07T21:32:44.566Z</time>
      </trkpt>
      <trkpt lat="46.78357" lon="-0.84149">
        <ele>201.7</ele>
        <time>2025-03-07T21:32:47.261Z</time>
      </trkpt>
      <trkpt lat="46.78364" lon="-0.84169">
        <ele>202.4</ele>
        <time>2025-03-07T21:32:51.191Z</time>
      </trkpt>
      <trkpt lat="46.78371" lon="-0.84192">
        <ele>202</ele>
        <time>2025-03-07T21:32:53.367Z</time>
      </trkpt>
      <trkpt lat="46.78377" lon="-0.84215">
        <ele>201.7</ele>
        <time>2025-03-07T21:32:55.594Z</time>
      </trkpt>
      <trkpt lat="46.78385" lon="-0.84242">
        <ele>201</ele>
        <time>2025-03-07T21:32:57.918Z</time>
      </trkpt>
      <trkpt lat="46.78389" lon="-0.84257">
        <ele>200.5</ele>
        <time>2025-03-07T21:32:59.095Z</time>
      </trkpt>
      <trkpt lat="46.78394" lon="-0.84276">
        <ele>200.2</ele>
        <time>2025-03-07T21:33:00.880Z</time>
      </trkpt>
      <trkpt lat="46.78402" lon="-0.84308">
        <ele>200</ele>
        <time>2025-03-07T21:33:04.219Z</time>
      </trkpt>
      <trkpt lat="46.78411" lon="-0.84333">
        <ele>199.6</ele>
        <time>2025-03-07T21:33:06.713Z</time>
      </trkpt>
      <trkpt lat="46.78419" lon="-0.84354">
        <ele>200</ele>
        <time>2025-03-07T21:33:09.988Z</time>
      </trkpt>
      <trkpt lat="46.78429" lon="-0.84374">
        <ele>200.1</ele>
        <time>2025-03-07T21:33:12.770Z</time>
      </trkpt>
      <trkpt lat="46.78438" lon="-0.84389">
        <ele>199.8</ele>
        <time>2025-03-07T21:33:14.512Z</time>
      </trkpt>
      <trkpt lat="46.78447" lon="-0.84402">
        <ele>200</ele>
        <time>2025-03-07T21:33:16.810Z</time>
      </trkpt>
      <trkpt lat="46.78459" lon="-0.84418">
        <ele>200.5</ele>
        <time>2025-03-07T21:33:20.288Z</time>
      </trkpt>
      <trkpt lat="46.78474" lon="-0.84438">
        <ele>200.1</ele>
        <time>2025-03-07T21:33:22.929Z</time>
      </trkpt>
      <trkpt lat="46.78492" lon="-0.84463">
        <ele>199.8</ele>
        <time>2025-03-07T21:33:26.376Z</time>
      </trkpt>
      <trkpt lat="46.78509" lon="-0.84485">
        <ele>199.4</ele>
        <time>2025-03-07T21:33:29.381Z</time>
      </trkpt>
      <trkpt lat="46.78516" lon="-0.84494">
        <ele>199.3</ele>
        <time>2025-03-07T21:33:30.691Z</time>
      </trkpt>
      <trkpt lat="46.78536" lon="-0.84521">
        <ele>199.4</ele>
        <time>2025-03-07T21:33:35.064Z</time>
      </trkpt>
      <trkpt lat="46.78557" lon="-0.84546">
        <ele>200.5</ele>
        <time>2025-03-07T21:33:41.579Z</time>
      </trkpt>
      <trkpt lat="46.78575" lon="-0.84569">
        <ele>200.8</ele>
        <time>2025-03-07T21:33:45.776Z</time>
      </trkpt>
      <trkpt lat="46.78596" lon="-0.84594">
        <ele>201.7</ele>
        <time>2025-03-07T21:33:51.742Z</time>
      </trkpt>
      <trkpt lat="46.78612" lon="-0.84612">
        <ele>202</ele>
        <time>2025-03-07T21:33:55.372Z</time>
      </trkpt>
      <trkpt lat="46.78627" lon="-0.8463">
        <ele>202.2</ele>
        <time>2025-03-07T21:33:58.702Z</time>
      </trkpt>
      <trkpt lat="46.78645" lon="-0.84646">
        <ele>203.1</ele>
        <time>2025-03-07T21:34:03.901Z</time>
      </trkpt>
      <trkpt lat="46.78664" lon="-0.84661">
        <ele>203.5</ele>
        <time>2025-03-07T21:34:07.937Z</time>
      </trkpt>
      <trkpt lat="46.7868" lon="-0.84671">
        <ele>203.9</ele>
        <time>2025-03-07T21:34:11.350Z</time>
      </trkpt>
      <trkpt lat="46.78695" lon="-0.84681">
        <ele>204.5</ele>
        <time>2025-03-07T21:34:15.119Z</time>
      </trkpt>
      <trkpt lat="46.78711" lon="-0.84689">
        <ele>205.4</ele>
        <time>2025-03-07T21:34:19.883Z</time>
      </trkpt>
      <trkpt lat="46.78728" lon="-0.84697">
        <ele>206.1</ele>
        <time>2025-03-07T21:34:24.106Z</time>
      </trkpt>
      <trkpt lat="46.78747" lon="-0.84705">
        <ele>206.6</ele>
        <time>2025-03-07T21:34:28.084Z</time>
      </trkpt>
      <trkpt lat="46.78765" lon="-0.84712">
        <ele>207.5</ele>
        <time>2025-03-07T21:34:33.013Z</time>
      </trkpt>
      <trkpt lat="46.78782" lon="-0.84716">
        <ele>208.9</ele>
        <time>2025-03-07T21:34:40.086Z</time>
      </trkpt>
      <trkpt lat="46.78796" lon="-0.8472">
        <ele>210.1</ele>
        <time>2025-03-07T21:34:46.173Z</time>
      </trkpt>
      <trkpt lat="46.78811" lon="-0.84721">
        <ele>211.3</ele>
        <time>2025-03-07T21:34:52.226Z</time>
      </trkpt>
      <trkpt lat="46.78824" lon="-0.8472">
        <ele>211.9</ele>
        <time>2025-03-07T21:34:55.576Z</time>
      </trkpt>
      <trkpt lat="46.78838" lon="-0.8472">
        <ele>212.4</ele>
        <time>2025-03-07T21:34:58.751Z</time>
      </trkpt>
      <trkpt lat="46.78852" lon="-0.84719">
        <ele>212.9</ele>
        <time>2025-03-07T21:35:01.928Z</time>
      </trkpt>
      <trkpt lat="46.78869" lon="-0.84718">
        <ele>213.7</ele>
        <time>2025-03-07T21:35:06.357Z</time>
      </trkpt>
      <trkpt lat="46.7888" lon="-0.84718">
        <ele>214.4</ele>
        <time>2025-03-07T21:35:09.912Z</time>
      </trkpt>
      <trkpt lat="46.78889" lon="-0.84719">
        <ele>214.9</ele>
        <time>2025-03-07T21:35:12.528Z</time>
      </trkpt>
      <trkpt lat="46.78899" lon="-0.84721">
        <ele>215.7</ele>
        <time>2025-03-07T21:35:16.560Z</time>
      </trkpt>
      <trkpt lat="46.7891" lon="-0.84725">
        <ele>216.2</ele>
        <time>2025-03-07T21:35:19.406Z</time>
      </trkpt>
      <trkpt lat="46.7892" lon="-0.84727">
        <ele>217.1</ele>
        <time>2025-03-07T21:35:24.013Z</time>
      </trkpt>
      <trkpt lat="46.78933" lon="-0.84733">
        <ele>218.3</ele>
        <time>2025-03-07T21:35:30.142Z</time>
      </trkpt>
      <trkpt lat="46.78941" lon="-0.84739">
        <ele>218.8</ele>
        <time>2025-03-07T21:35:32.755Z</time>
      </trkpt>
      <trkpt lat="46.7895" lon="-0.84745">
        <ele>219.3</ele>
        <time>2025-03-07T21:35:35.448Z</time>
      </trkpt>
      <trkpt lat="46.78958" lon="-0.84751">
        <ele>219.8</ele>
        <time>2025-03-07T21:35:38.061Z</time>
      </trkpt>
      <trkpt lat="46.78965" lon="-0.84757">
        <ele>220.2</ele>
        <time>2025-03-07T21:35:40.235Z</time>
      </trkpt>
      <trkpt lat="46.78973" lon="-0.84765">
        <ele>220.5</ele>
        <time>2025-03-07T21:35:42.315Z</time>
      </trkpt>
      <trkpt lat="46.7898" lon="-0.84771">
        <ele>220.9</ele>
        <time>2025-03-07T21:35:44.489Z</time>
      </trkpt>
      <trkpt lat="46.78987" lon="-0.84778">
        <ele>221.1</ele>
        <time>2025-03-07T21:35:46.163Z</time>
      </trkpt>
      <trkpt lat="46.78994" lon="-0.84785">
        <ele>221.3</ele>
        <time>2025-03-07T21:35:47.838Z</time>
      </trkpt>
      <trkpt lat="46.79001" lon="-0.84792">
        <ele>221.6</ele>
        <time>2025-03-07T21:35:49.754Z</time>
      </trkpt>
      <trkpt lat="46.79007" lon="-0.84799">
        <ele>221.9</ele>
        <time>2025-03-07T21:35:51.567Z</time>
      </trkpt>
      <trkpt lat="46.79014" lon="-0.84806">
        <ele>222.5</ele>
        <time>2025-03-07T21:35:54.584Z</time>
      </trkpt>
      <trkpt lat="46.79021" lon="-0.84814">
        <ele>222.9</ele>
        <time>2025-03-07T21:35:56.840Z</time>
      </trkpt>
      <trkpt lat="46.79026" lon="-0.84822">
        <ele>222.9</ele>
        <time>2025-03-07T21:35:57.989Z</time>
      </trkpt>
      <trkpt lat="46.79032" lon="-0.8483">
        <ele>223.3</ele>
        <time>2025-03-07T21:36:00.164Z</time>
      </trkpt>
      <trkpt lat="46.79037" lon="-0.84839">
        <ele>223.5</ele>
        <time>2025-03-07T21:36:01.759Z</time>
      </trkpt>
      <trkpt lat="46.79042" lon="-0.84847">
        <ele>224.1</ele>
        <time>2025-03-07T21:36:04.789Z</time>
      </trkpt>
      <trkpt lat="46.79046" lon="-0.84856">
        <ele>224.6</ele>
        <time>2025-03-07T21:36:07.309Z</time>
      </trkpt>
      <trkpt lat="46.7905" lon="-0.84864">
        <ele>225.2</ele>
        <time>2025-03-07T21:36:10.376Z</time>
      </trkpt>
      <trkpt lat="46.79053" lon="-0.84872">
        <ele>225.5</ele>
        <time>2025-03-07T21:36:12.023Z</time>
      </trkpt>
      <trkpt lat="46.79056" lon="-0.84881">
        <ele>225.7</ele>
        <time>2025-03-07T21:36:13.463Z</time>
      </trkpt>
      <trkpt lat="46.79058" lon="-0.84891">
        <ele>225.7</ele>
        <time>2025-03-07T21:36:14.569Z</time>
      </trkpt>
      <trkpt lat="46.7906" lon="-0.84902">
        <ele>226</ele>
        <time>2025-03-07T21:36:16.396Z</time>
      </trkpt>
      <trkpt lat="46.79062" lon="-0.84916">
        <ele>226.1</ele>
        <time>2025-03-07T21:36:18.073Z</time>
      </trkpt>
      <trkpt lat="46.79063" lon="-0.84938">
        <ele>226.2</ele>
        <time>2025-03-07T21:36:20.568Z</time>
      </trkpt>
      <trkpt lat="46.79066" lon="-0.84981">
        <ele>226.9</ele>
        <time>2025-03-07T21:36:26.414Z</time>
      </trkpt>
      <trkpt lat="46.79067" lon="-0.84996">
        <ele>227.7</ele>
        <time>2025-03-07T21:36:30.441Z</time>
      </trkpt>
      <trkpt lat="46.79069" lon="-0.85009">
        <ele>228.2</ele>
        <time>2025-03-07T21:36:33.064Z</time>
      </trkpt>
      <trkpt lat="46.7907" lon="-0.85022">
        <ele>228.3</ele>
        <time>2025-03-07T21:36:34.614Z</time>
      </trkpt>
      <trkpt lat="46.79073" lon="-0.85033">
        <ele>228.8</ele>
        <time>2025-03-07T21:36:37.166Z</time>
      </trkpt>
      <trkpt lat="46.79075" lon="-0.85044">
        <ele>228.8</ele>
        <time>2025-03-07T21:36:38.374Z</time>
      </trkpt>
      <trkpt lat="46.79079" lon="-0.85056">
        <ele>229.6</ele>
        <time>2025-03-07T21:36:42.456Z</time>
      </trkpt>
      <trkpt lat="46.79083" lon="-0.85068">
        <ele>230</ele>
        <time>2025-03-07T21:36:44.741Z</time>
      </trkpt>
      <trkpt lat="46.79087" lon="-0.8508">
        <ele>230</ele>
        <time>2025-03-07T21:36:46.157Z</time>
      </trkpt>
      <trkpt lat="46.79093" lon="-0.85092">
        <ele>230.3</ele>
        <time>2025-03-07T21:36:48.303Z</time>
      </trkpt>
      <trkpt lat="46.79099" lon="-0.85103">
        <ele>230.7</ele>
        <time>2025-03-07T21:36:50.645Z</time>
      </trkpt>
      <trkpt lat="46.79106" lon="-0.85115">
        <ele>231.3</ele>
        <time>2025-03-07T21:36:53.781Z</time>
      </trkpt>
      <trkpt lat="46.79112" lon="-0.85124">
        <ele>231.8</ele>
        <time>2025-03-07T21:36:56.364Z</time>
      </trkpt>
      <trkpt lat="46.79118" lon="-0.85132">
        <ele>231.9</ele>
        <time>2025-03-07T21:36:57.786Z</time>
      </trkpt>
      <trkpt lat="46.79124" lon="-0.85138">
        <ele>232.4</ele>
        <time>2025-03-07T21:37:00.305Z</time>
      </trkpt>
      <trkpt lat="46.79132" lon="-0.85145">
        <ele>232.9</ele>
        <time>2025-03-07T21:37:02.945Z</time>
      </trkpt>
      <trkpt lat="46.79139" lon="-0.85151">
        <ele>233.3</ele>
        <time>2025-03-07T21:37:05.120Z</time>
      </trkpt>
      <trkpt lat="46.79146" lon="-0.85156">
        <ele>233.6</ele>
        <time>2025-03-07T21:37:06.946Z</time>
      </trkpt>
      <trkpt lat="46.79154" lon="-0.8516">
        <ele>234.4</ele>
        <time>2025-03-07T21:37:11.087Z</time>
      </trkpt>
      <trkpt lat="46.79162" lon="-0.85163">
        <ele>235.5</ele>
        <time>2025-03-07T21:37:16.572Z</time>
      </trkpt>
      <trkpt lat="46.7917" lon="-0.85165">
        <ele>236.5</ele>
        <time>2025-03-07T21:37:21.805Z</time>
      </trkpt>
      <trkpt lat="46.79177" lon="-0.85166">
        <ele>237.2</ele>
        <time>2025-03-07T21:37:25.465Z</time>
      </trkpt>
      <trkpt lat="46.79185" lon="-0.85166">
        <ele>238</ele>
        <time>2025-03-07T21:37:29.651Z</time>
      </trkpt>
      <trkpt lat="46.79187" lon="-0.85166">
        <ele>238.2</ele>
        <time>2025-03-07T21:37:30.697Z</time>
      </trkpt>
      <trkpt lat="46.79193" lon="-0.85166">
        <ele>238.9</ele>
        <time>2025-03-07T21:37:34.407Z</time>
      </trkpt>
      <trkpt lat="46.79194" lon="-0.85166">
        <ele>239</ele>
        <time>2025-03-07T21:37:34.931Z</time>
      </trkpt>
      <trkpt lat="46.79195" lon="-0.85166">
        <ele>239.1</ele>
        <time>2025-03-07T21:37:35.454Z</time>
      </trkpt>
      <trkpt lat="46.792" lon="-0.85164">
        <ele>239.6</ele>
        <time>2025-03-07T21:37:38.052Z</time>
      </trkpt>
      <trkpt lat="46.79211" lon="-0.85162">
        <ele>240.5</ele>
        <time>2025-03-07T21:37:42.598Z</time>
      </trkpt>
      <trkpt lat="46.79218" lon="-0.85159">
        <ele>241.2</ele>
        <time>2025-03-07T21:37:46.231Z</time>
      </trkpt>
      <trkpt lat="46.79227" lon="-0.85155">
        <ele>242.4</ele>
        <time>2025-03-07T21:37:52.410Z</time>
      </trkpt>
      <trkpt lat="46.79234" lon="-0.8515">
        <ele>243.4</ele>
        <time>2025-03-07T21:37:57.539Z</time>
      </trkpt>
      <trkpt lat="46.79242" lon="-0.85145">
        <ele>244.3</ele>
        <time>2025-03-07T21:38:02.277Z</time>
      </trkpt>
      <trkpt lat="46.79249" lon="-0.85139">
        <ele>244.9</ele>
        <time>2025-03-07T21:38:05.292Z</time>
      </trkpt>
      <trkpt lat="46.79257" lon="-0.85132">
        <ele>245.6</ele>
        <time>2025-03-07T21:38:08.811Z</time>
      </trkpt>
      <trkpt lat="46.79265" lon="-0.85126">
        <ele>246</ele>
        <time>2025-03-07T21:38:11.079Z</time>
      </trkpt>
      <trkpt lat="46.79274" lon="-0.85116">
        <ele>246.1</ele>
        <time>2025-03-07T21:38:12.990Z</time>
      </trkpt>
      <trkpt lat="46.79283" lon="-0.85106">
        <ele>246.3</ele>
        <time>2025-03-07T21:38:15.084Z</time>
      </trkpt>
      <trkpt lat="46.79293" lon="-0.85095">
        <ele>246.5</ele>
        <time>2025-03-07T21:38:17.360Z</time>
      </trkpt>
      <trkpt lat="46.7931" lon="-0.85077">
        <ele>246</ele>
        <time>2025-03-07T21:38:19.999Z</time>
      </trkpt>
      <trkpt lat="46.79318" lon="-0.85069">
        <ele>245.8</ele>
        <time>2025-03-07T21:38:21.250Z</time>
      </trkpt>
      <trkpt lat="46.79324" lon="-0.85064">
        <ele>245.5</ele>
        <time>2025-03-07T21:38:21.998Z</time>
      </trkpt>
      <trkpt lat="46.79333" lon="-0.85059">
        <ele>245.1</ele>
        <time>2025-03-07T21:38:23.055Z</time>
      </trkpt>
      <trkpt lat="46.7934" lon="-0.85054">
        <ele>244.7</ele>
        <time>2025-03-07T21:38:23.853Z</time>
      </trkpt>
      <trkpt lat="46.79348" lon="-0.8505">
        <ele>244.2</ele>
        <time>2025-03-07T21:38:24.677Z</time>
      </trkpt>
      <trkpt lat="46.79356" lon="-0.85047">
        <ele>243.6</ele>
        <time>2025-03-07T21:38:25.445Z</time>
      </trkpt>
      <trkpt lat="46.79365" lon="-0.85044">
        <ele>243.1</ele>
        <time>2025-03-07T21:38:26.374Z</time>
      </trkpt>
      <trkpt lat="46.79375" lon="-0.85041">
        <ele>242.7</ele>
        <time>2025-03-07T21:38:27.514Z</time>
      </trkpt>
      <trkpt lat="46.79384" lon="-0.8504">
        <ele>242.6</ele>
        <time>2025-03-07T21:38:28.778Z</time>
      </trkpt>
      <trkpt lat="46.79389" lon="-0.8504">
        <ele>242.6</ele>
        <time>2025-03-07T21:38:29.552Z</time>
      </trkpt>
      <trkpt lat="46.79391" lon="-0.85039">
        <ele>242.5</ele>
        <time>2025-03-07T21:38:29.775Z</time>
      </trkpt>
      <trkpt lat="46.79395" lon="-0.85039">
        <ele>242.2</ele>
        <time>2025-03-07T21:38:30.147Z</time>
      </trkpt>
      <trkpt lat="46.79406" lon="-0.8504">
        <ele>241.5</ele>
        <time>2025-03-07T21:38:31.192Z</time>
      </trkpt>
      <trkpt lat="46.79429" lon="-0.8504">
        <ele>240.3</ele>
        <time>2025-03-07T21:38:33.537Z</time>
      </trkpt>
      <trkpt lat="46.79439" lon="-0.85042">
        <ele>239.7</ele>
        <time>2025-03-07T21:38:34.518Z</time>
      </trkpt>
      <trkpt lat="46.7945" lon="-0.85043">
        <ele>239.2</ele>
        <time>2025-03-07T21:38:35.696Z</time>
      </trkpt>
      <trkpt lat="46.79459" lon="-0.85044">
        <ele>238.8</ele>
        <time>2025-03-07T21:38:36.667Z</time>
      </trkpt>
      <trkpt lat="46.79468" lon="-0.85046">
        <ele>238.4</ele>
        <time>2025-03-07T21:38:37.649Z</time>
      </trkpt>
      <trkpt lat="46.79477" lon="-0.85048">
        <ele>238.1</ele>
        <time>2025-03-07T21:38:38.714Z</time>
      </trkpt>
      <trkpt lat="46.79484" lon="-0.8505">
        <ele>237.8</ele>
        <time>2025-03-07T21:38:39.494Z</time>
      </trkpt>
      <trkpt lat="46.79492" lon="-0.85054">
        <ele>237.3</ele>
        <time>2025-03-07T21:38:40.318Z</time>
      </trkpt>
      <trkpt lat="46.795" lon="-0.85058">
        <ele>236.7</ele>
        <time>2025-03-07T21:38:41.104Z</time>
      </trkpt>
      <trkpt lat="46.79508" lon="-0.85062">
        <ele>236.4</ele>
        <time>2025-03-07T21:38:42.074Z</time>
      </trkpt>
      <trkpt lat="46.79517" lon="-0.85068">
        <ele>236.2</ele>
        <time>2025-03-07T21:38:43.355Z</time>
      </trkpt>
      <trkpt lat="46.79524" lon="-0.85074">
        <ele>236.2</ele>
        <time>2025-03-07T21:38:44.612Z</time>
      </trkpt>
      <trkpt lat="46.79532" lon="-0.85081">
        <ele>236.2</ele>
        <time>2025-03-07T21:38:46.058Z</time>
      </trkpt>
      <trkpt lat="46.7954" lon="-0.85089">
        <ele>235.9</ele>
        <time>2025-03-07T21:38:47.209Z</time>
      </trkpt>
      <trkpt lat="46.79548" lon="-0.85098">
        <ele>235.5</ele>
        <time>2025-03-07T21:38:48.333Z</time>
      </trkpt>
      <trkpt lat="46.79554" lon="-0.85106">
        <ele>235.3</ele>
        <time>2025-03-07T21:38:49.347Z</time>
      </trkpt>
      <trkpt lat="46.79559" lon="-0.85113">
        <ele>235.1</ele>
        <time>2025-03-07T21:38:50.183Z</time>
      </trkpt>
      <trkpt lat="46.79562" lon="-0.85119">
        <ele>235</ele>
        <time>2025-03-07T21:38:50.845Z</time>
      </trkpt>
      <trkpt lat="46.79568" lon="-0.85129">
        <ele>234.9</ele>
        <time>2025-03-07T21:38:52.120Z</time>
      </trkpt>
      <trkpt lat="46.79573" lon="-0.8514">
        <ele>234.8</ele>
        <time>2025-03-07T21:38:53.386Z</time>
      </trkpt>
      <trkpt lat="46.79577" lon="-0.8515">
        <ele>234.5</ele>
        <time>2025-03-07T21:38:54.280Z</time>
      </trkpt>
      <trkpt lat="46.79581" lon="-0.8516">
        <ele>234.2</ele>
        <time>2025-03-07T21:38:55.174Z</time>
      </trkpt>
      <trkpt lat="46.79585" lon="-0.85173">
        <ele>233.8</ele>
        <time>2025-03-07T21:38:56.249Z</time>
      </trkpt>
      <trkpt lat="46.79592" lon="-0.852">
        <ele>233.2</ele>
        <time>2025-03-07T21:38:58.607Z</time>
      </trkpt>
      <trkpt lat="46.796" lon="-0.85229">
        <ele>232.6</ele>
        <time>2025-03-07T21:39:01.208Z</time>
      </trkpt>
      <trkpt lat="46.79607" lon="-0.85258">
        <ele>232</ele>
        <time>2025-03-07T21:39:03.756Z</time>
      </trkpt>
      <trkpt lat="46.79611" lon="-0.8527">
        <ele>231.6</ele>
        <time>2025-03-07T21:39:04.743Z</time>
      </trkpt>
      <trkpt lat="46.79615" lon="-0.85283">
        <ele>231.3</ele>
        <time>2025-03-07T21:39:05.904Z</time>
      </trkpt>
      <trkpt lat="46.79619" lon="-0.85296">
        <ele>231.1</ele>
        <time>2025-03-07T21:39:07.164Z</time>
      </trkpt>
      <trkpt lat="46.79623" lon="-0.85308">
        <ele>231</ele>
        <time>2025-03-07T21:39:08.444Z</time>
      </trkpt>
      <trkpt lat="46.79627" lon="-0.85319">
        <ele>230.8</ele>
        <time>2025-03-07T21:39:09.519Z</time>
      </trkpt>
      <trkpt lat="46.79632" lon="-0.85329">
        <ele>230.6</ele>
        <time>2025-03-07T21:39:10.587Z</time>
      </trkpt>
      <trkpt lat="46.79637" lon="-0.85341">
        <ele>230</ele>
        <time>2025-03-07T21:39:11.505Z</time>
      </trkpt>
      <trkpt lat="46.79642" lon="-0.85352">
        <ele>229.5</ele>
        <time>2025-03-07T21:39:12.407Z</time>
      </trkpt>
      <trkpt lat="46.79648" lon="-0.85362">
        <ele>229.2</ele>
        <time>2025-03-07T21:39:13.472Z</time>
      </trkpt>
      <trkpt lat="46.79652" lon="-0.8537">
        <ele>229.1</ele>
        <time>2025-03-07T21:39:14.392Z</time>
      </trkpt>
      <trkpt lat="46.79656" lon="-0.85377">
        <ele>229</ele>
        <time>2025-03-07T21:39:15.229Z</time>
      </trkpt>
      <trkpt lat="46.79664" lon="-0.85391">
        <ele>228.5</ele>
        <time>2025-03-07T21:39:16.614Z</time>
      </trkpt>
      <trkpt lat="46.7968" lon="-0.85412">
        <ele>227.2</ele>
        <time>2025-03-07T21:39:18.692Z</time>
      </trkpt>
      <trkpt lat="46.79704" lon="-0.85433">
        <ele>225.6</ele>
        <time>2025-03-07T21:39:21.452Z</time>
      </trkpt>
      <trkpt lat="46.79737" lon="-0.85458">
        <ele>223.1</ele>
        <time>2025-03-07T21:39:24.909Z</time>
      </trkpt>
      <trkpt lat="46.79764" lon="-0.85476">
        <ele>221.3</ele>
        <time>2025-03-07T21:39:27.773Z</time>
      </trkpt>
      <trkpt lat="46.79788" lon="-0.85487">
        <ele>220</ele>
        <time>2025-03-07T21:39:30.346Z</time>
      </trkpt>
      <trkpt lat="46.79804" lon="-0.8549">
        <ele>219.8</ele>
        <time>2025-03-07T21:39:32.579Z</time>
      </trkpt>
      <trkpt lat="46.79813" lon="-0.8549">
        <ele>218.9</ele>
        <time>2025-03-07T21:39:33.415Z</time>
      </trkpt>
      <trkpt lat="46.79823" lon="-0.85489">
        <ele>217.8</ele>
        <time>2025-03-07T21:39:34.347Z</time>
      </trkpt>
      <trkpt lat="46.79833" lon="-0.85484">
        <ele>217.3</ele>
        <time>2025-03-07T21:39:35.461Z</time>
      </trkpt>
      <trkpt lat="46.79859" lon="-0.85465">
        <ele>217</ele>
        <time>2025-03-07T21:39:39.559Z</time>
      </trkpt>
      <trkpt lat="46.79879" lon="-0.85449">
        <ele>216.6</ele>
        <time>2025-03-07T21:39:42.577Z</time>
      </trkpt>
      <trkpt lat="46.79887" lon="-0.85445">
        <ele>216.1</ele>
        <time>2025-03-07T21:39:43.401Z</time>
      </trkpt>
      <trkpt lat="46.799" lon="-0.8544">
        <ele>215.1</ele>
        <time>2025-03-07T21:39:44.651Z</time>
      </trkpt>
      <trkpt lat="46.7992" lon="-0.85435">
        <ele>213.5</ele>
        <time>2025-03-07T21:39:46.538Z</time>
      </trkpt>
      <trkpt lat="46.79925" lon="-0.85434">
        <ele>213.3</ele>
        <time>2025-03-07T21:39:47.099Z</time>
      </trkpt>
      <trkpt lat="46.79947" lon="-0.85434">
        <ele>212.2</ele>
        <time>2025-03-07T21:39:49.375Z</time>
      </trkpt>
      <trkpt lat="46.79963" lon="-0.85435">
        <ele>211.4</ele>
        <time>2025-03-07T21:39:51.033Z</time>
      </trkpt>
      <trkpt lat="46.8" lon="-0.85444">
        <ele>209</ele>
        <time>2025-03-07T21:39:54.579Z</time>
      </trkpt>
      <trkpt lat="46.80016" lon="-0.8545">
        <ele>207.6</ele>
        <time>2025-03-07T21:39:56.115Z</time>
      </trkpt>
      <trkpt lat="46.80031" lon="-0.85458">
        <ele>206.4</ele>
        <time>2025-03-07T21:39:57.599Z</time>
      </trkpt>
      <trkpt lat="46.8005" lon="-0.85471">
        <ele>206</ele>
        <time>2025-03-07T21:40:00.342Z</time>
      </trkpt>
      <trkpt lat="46.80065" lon="-0.85483">
        <ele>205.4</ele>
        <time>2025-03-07T21:40:02.310Z</time>
      </trkpt>
      <trkpt lat="46.80085" lon="-0.855">
        <ele>205.1</ele>
        <time>2025-03-07T21:40:05.496Z</time>
      </trkpt>
      <trkpt lat="46.80111" lon="-0.85525">
        <ele>205.1</ele>
        <time>2025-03-07T21:40:10.320Z</time>
      </trkpt>
      <trkpt lat="46.80126" lon="-0.85542">
        <ele>204.3</ele>
        <time>2025-03-07T21:40:12.394Z</time>
      </trkpt>
      <trkpt lat="46.80138" lon="-0.85558">
        <ele>203.8</ele>
        <time>2025-03-07T21:40:14.326Z</time>
      </trkpt>
      <trkpt lat="46.80155" lon="-0.85577">
        <ele>203.8</ele>
        <time>2025-03-07T21:40:17.643Z</time>
      </trkpt>
      <trkpt lat="46.80187" lon="-0.85602">
        <ele>203.1</ele>
        <time>2025-03-07T21:40:22.377Z</time>
      </trkpt>
      <trkpt lat="46.80202" lon="-0.85609">
        <ele>203.3</ele>
        <time>2025-03-07T21:40:25.145Z</time>
      </trkpt>
      <trkpt lat="46.80228" lon="-0.8562">
        <ele>203.6</ele>
        <time>2025-03-07T21:40:29.824Z</time>
      </trkpt>
      <trkpt lat="46.8026" lon="-0.85631">
        <ele>203.8</ele>
        <time>2025-03-07T21:40:35.228Z</time>
      </trkpt>
      <trkpt lat="46.8029" lon="-0.85642">
        <ele>204.9</ele>
        <time>2025-03-07T21:40:42.230Z</time>
      </trkpt>
      <trkpt lat="46.80306" lon="-0.85647">
        <ele>206</ele>
        <time>2025-03-07T21:40:47.780Z</time>
      </trkpt>
      <trkpt lat="46.80346" lon="-0.85657">
        <ele>207.5</ele>
        <time>2025-03-07T21:40:57.120Z</time>
      </trkpt>
      <trkpt lat="46.80373" lon="-0.85663">
        <ele>208.4</ele>
        <time>2025-03-07T21:41:03.116Z</time>
      </trkpt>
      <trkpt lat="46.804" lon="-0.85668">
        <ele>209</ele>
        <time>2025-03-07T21:41:08.399Z</time>
      </trkpt>
      <trkpt lat="46.80418" lon="-0.85671">
        <ele>209</ele>
        <time>2025-03-07T21:41:11.206Z</time>
      </trkpt>
      <trkpt lat="46.80435" lon="-0.85675">
        <ele>209.5</ele>
        <time>2025-03-07T21:41:14.820Z</time>
      </trkpt>
      <trkpt lat="46.80451" lon="-0.85678">
        <ele>209.9</ele>
        <time>2025-03-07T21:41:18.047Z</time>
      </trkpt>
      <trkpt lat="46.80503" lon="-0.85691">
        <ele>212.1</ele>
        <time>2025-03-07T21:41:30.905Z</time>
      </trkpt>
      <trkpt lat="46.80538" lon="-0.85702">
        <ele>213.5</ele>
        <time>2025-03-07T21:41:39.360Z</time>
      </trkpt>
      <trkpt lat="46.8059" lon="-0.8572">
        <ele>216.2</ele>
        <time>2025-03-07T21:41:53.904Z</time>
      </trkpt>
      <trkpt lat="46.80616" lon="-0.8573">
        <ele>216.9</ele>
        <time>2025-03-07T21:41:59.358Z</time>
      </trkpt>
      <trkpt lat="46.80647" lon="-0.85743">
        <ele>218.3</ele>
        <time>2025-03-07T21:42:07.385Z</time>
      </trkpt>
      <trkpt lat="46.80675" lon="-0.85755">
        <ele>218.4</ele>
        <time>2025-03-07T21:42:12.058Z</time>
      </trkpt>
      <trkpt lat="46.80698" lon="-0.85765">
        <ele>218.4</ele>
        <time>2025-03-07T21:42:15.777Z</time>
      </trkpt>
      <trkpt lat="46.80719" lon="-0.85775">
        <ele>218</ele>
        <time>2025-03-07T21:42:18.687Z</time>
      </trkpt>
      <trkpt lat="46.80747" lon="-0.8579">
        <ele>216.5</ele>
        <time>2025-03-07T21:42:21.766Z</time>
      </trkpt>
      <trkpt lat="46.80769" lon="-0.85801">
        <ele>216.2</ele>
        <time>2025-03-07T21:42:24.970Z</time>
      </trkpt>
      <trkpt lat="46.80799" lon="-0.85817">
        <ele>215.5</ele>
        <time>2025-03-07T21:42:29.046Z</time>
      </trkpt>
      <trkpt lat="46.80819" lon="-0.85826">
        <ele>215.1</ele>
        <time>2025-03-07T21:42:31.780Z</time>
      </trkpt>
      <trkpt lat="46.8084" lon="-0.8583">
        <ele>214.8</ele>
        <time>2025-03-07T21:42:34.666Z</time>
      </trkpt>
      <trkpt lat="46.80862" lon="-0.85829">
        <ele>214</ele>
        <time>2025-03-07T21:42:37.175Z</time>
      </trkpt>
      <trkpt lat="46.80876" lon="-0.85823">
        <ele>214</ele>
        <time>2025-03-07T21:42:39.436Z</time>
      </trkpt>
      <trkpt lat="46.80894" lon="-0.85817">
        <ele>214.1</ele>
        <time>2025-03-07T21:42:42.451Z</time>
      </trkpt>
      <trkpt lat="46.80913" lon="-0.8581">
        <ele>214.7</ele>
        <time>2025-03-07T21:42:46.638Z</time>
      </trkpt>
      <trkpt lat="46.80922" lon="-0.8581">
        <ele>214.9</ele>
        <time>2025-03-07T21:42:48.389Z</time>
        <extensions>
          <visugpx:TrkExtension xmlns:visugpx="https://www.visugpx.com/editgpx/">
            <visugpx:node>1</visugpx:node>
            </visugpx:TrkExtension>
        </extensions>
      </trkpt>
      <trkpt lat="46.80938" lon="-0.85815">
        <ele>214.9</ele>
        <time>2025-03-07T21:42:50.924Z</time>
      </trkpt>
      <trkpt lat="46.8096" lon="-0.85828">
        <ele>215.6</ele>
        <time>2025-03-07T21:42:55.931Z</time>
      </trkpt>
      <trkpt lat="46.80967" lon="-0.85824">
        <ele>215.8</ele>
        <time>2025-03-07T21:42:57.465Z</time>
      </trkpt>
      <trkpt lat="46.80971" lon="-0.85824">
        <ele>216</ele>
        <time>2025-03-07T21:42:58.546Z</time>
      </trkpt>
      <trkpt lat="46.80978" lon="-0.8583">
        <ele>216.4</ele>
        <time>2025-03-07T21:43:00.721Z</time>
      </trkpt>
      <trkpt lat="46.81061" lon="-0.85732">
        <ele>219.2</ele>
        <time>2025-03-07T21:43:22.417Z</time>
      </trkpt>
      <trkpt lat="46.81192" lon="-0.85604">
        <ele>219.7</ele>
        <time>2025-03-07T21:43:47.595Z</time>
      </trkpt>
      <trkpt lat="46.81239" lon="-0.8555">
        <ele>219.6</ele>
        <time>2025-03-07T21:43:56.715Z</time>
      </trkpt>
      <trkpt lat="46.81294" lon="-0.85472">
        <ele>224.2</ele>
        <time>2025-03-07T21:44:20.318Z</time>
      </trkpt>
      <trkpt lat="46.81333" lon="-0.8541">
        <ele>226</ele>
        <time>2025-03-07T21:44:32.721Z</time>
      </trkpt>
      <trkpt lat="46.81353" lon="-0.85394">
        <ele>224.8</ele>
        <time>2025-03-07T21:44:35.039Z</time>
      </trkpt>
      <trkpt lat="46.81485" lon="-0.85342">
        <ele>222.7</ele>
        <time>2025-03-07T21:44:53.477Z</time>
      </trkpt>
      <trkpt lat="46.81547" lon="-0.85329">
        <ele>221.6</ele>
        <time>2025-03-07T21:45:01.767Z</time>
      </trkpt>
      <trkpt lat="46.8162" lon="-0.85315">
        <ele>215.5</ele>
        <time>2025-03-07T21:45:08.613Z</time>
      </trkpt>
      <trkpt lat="46.81671" lon="-0.85303">
        <ele>214.9</ele>
        <time>2025-03-07T21:45:15.811Z</time>
      </trkpt>
      <trkpt lat="46.81696" lon="-0.85301">
        <ele>215.6</ele>
        <time>2025-03-07T21:45:21.001Z</time>
      </trkpt>
      <trkpt lat="46.81725" lon="-0.85302">
        <ele>216.2</ele>
        <time>2025-03-07T21:45:26.549Z</time>
      </trkpt>
      <trkpt lat="46.8174" lon="-0.85306">
        <ele>215.1</ele>
        <time>2025-03-07T21:45:27.966Z</time>
      </trkpt>
      <trkpt lat="46.81761" lon="-0.85319">
        <ele>213.9</ele>
        <time>2025-03-07T21:45:30.285Z</time>
      </trkpt>
      <trkpt lat="46.81803" lon="-0.8536">
        <ele>213</ele>
        <time>2025-03-07T21:45:36.956Z</time>
      </trkpt>
      <trkpt lat="46.81951" lon="-0.85483">
        <ele>211.2</ele>
        <time>2025-03-07T21:46:00.899Z</time>
      </trkpt>
      <trkpt lat="46.81987" lon="-0.85506">
        <ele>209.1</ele>
        <time>2025-03-07T21:46:04.871Z</time>
      </trkpt>
      <trkpt lat="46.82018" lon="-0.85519">
        <ele>207.7</ele>
        <time>2025-03-07T21:46:08.363Z</time>
      </trkpt>
      <trkpt lat="46.82094" lon="-0.85539">
        <ele>205.6</ele>
        <time>2025-03-07T21:46:17.809Z</time>
      </trkpt>
      <trkpt lat="46.8213" lon="-0.8554">
        <ele>204.6</ele>
        <time>2025-03-07T21:46:22.192Z</time>
      </trkpt>
      <trkpt lat="46.82178" lon="-0.85535">
        <ele>203.1</ele>
        <time>2025-03-07T21:46:27.898Z</time>
      </trkpt>
      <trkpt lat="46.8222" lon="-0.85537">
        <ele>201.7</ele>
        <time>2025-03-07T21:46:32.799Z</time>
      </trkpt>
      <trkpt lat="46.82389" lon="-0.85555">
        <ele>196</ele>
        <time>2025-03-07T21:46:52.514Z</time>
      </trkpt>
      <trkpt lat="46.82432" lon="-0.85562">
        <ele>193.9</ele>
        <time>2025-03-07T21:46:57.035Z</time>
      </trkpt>
      <trkpt lat="46.82438" lon="-0.85564">
        <ele>193.5</ele>
        <time>2025-03-07T21:46:57.613Z</time>
        <extensions>
          <visugpx:TrkExtension xmlns:visugpx="https://www.visugpx.com/editgpx/">
            <visugpx:node>2</visugpx:node>
            </visugpx:TrkExtension>
        </extensions>
      </trkpt>
      <trkpt lat="46.82523" lon="-0.85587">
        <ele>188.1</ele>
        <time>2025-03-07T21:47:05.862Z</time>
      </trkpt>
      <trkpt lat="46.82544" lon="-0.85588">
        <ele>187.4</ele>
        <time>2025-03-07T21:47:08.312Z</time>
      </trkpt>
      <trkpt lat="46.82569" lon="-0.85586">
        <ele>187</ele>
        <time>2025-03-07T21:47:11.671Z</time>
      </trkpt>
      <trkpt lat="46.82579" lon="-0.85584">
        <ele>187</ele>
        <time>2025-03-07T21:47:13.235Z</time>
      </trkpt>
      <trkpt lat="46.82634" lon="-0.85574">
        <ele>187.8</ele>
        <time>2025-03-07T21:47:23.153Z</time>
      </trkpt>
      <trkpt lat="46.82643" lon="-0.85572">
        <ele>188.2</ele>
        <time>2025-03-07T21:47:25.434Z</time>
      </trkpt>
      <trkpt lat="46.82666" lon="-0.85573">
        <ele>189.3</ele>
        <time>2025-03-07T21:47:31.483Z</time>
      </trkpt>
      <trkpt lat="46.82673" lon="-0.85573">
        <ele>189.7</ele>
        <time>2025-03-07T21:47:33.559Z</time>
      </trkpt>
      <trkpt lat="46.82701" lon="-0.85579">
        <ele>191.4</ele>
        <time>2025-03-07T21:47:42.280Z</time>
      </trkpt>
      <trkpt lat="46.82719" lon="-0.85587">
        <ele>192.5</ele>
        <time>2025-03-07T21:47:47.956Z</time>
      </trkpt>
      <trkpt lat="46.82763" lon="-0.85612">
        <ele>194.9</ele>
        <time>2025-03-07T21:48:00.856Z</time>
      </trkpt>
      <trkpt lat="46.828" lon="-0.85623">
        <ele>198.4</ele>
        <time>2025-03-07T21:48:18.900Z</time>
      </trkpt>
      <trkpt lat="46.82814" lon="-0.85621">
        <ele>199.3</ele>
        <time>2025-03-07T21:48:23.467Z</time>
      </trkpt>
      <trkpt lat="46.82819" lon="-0.85616">
        <ele>199.5</ele>
        <time>2025-03-07T21:48:24.798Z</time>
      </trkpt>
      <trkpt lat="46.82827" lon="-0.85616">
        <ele>199.8</ele>
        <time>2025-03-07T21:48:26.651Z</time>
      </trkpt>
      <trkpt lat="46.82834" lon="-0.85623">
        <ele>200</ele>
        <time>2025-03-07T21:48:28.325Z</time>
      </trkpt>
      <trkpt lat="46.82836" lon="-0.85632">
        <ele>200.2</ele>
        <time>2025-03-07T21:48:29.713Z</time>
      </trkpt>
      <trkpt lat="46.82843" lon="-0.85647">
        <ele>200.7</ele>
        <time>2025-03-07T21:48:32.688Z</time>
      </trkpt>
      <trkpt lat="46.8286" lon="-0.85667">
        <ele>201.9</ele>
        <time>2025-03-07T21:48:38.978Z</time>
      </trkpt>
      <trkpt lat="46.82895" lon="-0.8569">
        <ele>205.9</ele>
        <time>2025-03-07T21:49:00.061Z</time>
      </trkpt>
      <trkpt lat="46.82917" lon="-0.85711">
        <ele>209</ele>
        <time>2025-03-07T21:49:16.466Z</time>
      </trkpt>
      <trkpt lat="46.82953" lon="-0.85758">
        <ele>213.4</ele>
        <time>2025-03-07T21:49:39.078Z</time>
      </trkpt>
      <trkpt lat="46.82971" lon="-0.85773">
        <ele>213.1</ele>
        <time>2025-03-07T21:49:41.894Z</time>
      </trkpt>
      <trkpt lat="46.82983" lon="-0.8578">
        <ele>213.4</ele>
        <time>2025-03-07T21:49:44.434Z</time>
      </trkpt>
      <trkpt lat="46.83031" lon="-0.85801">
        <ele>215</ele>
        <time>2025-03-07T21:49:55.305Z</time>
      </trkpt>
      <trkpt lat="46.83095" lon="-0.85829">
        <ele>213.7</ele>
        <time>2025-03-07T21:50:04.007Z</time>
      </trkpt>
      <trkpt lat="46.83111" lon="-0.85834">
        <ele>213</ele>
        <time>2025-03-07T21:50:05.787Z</time>
      </trkpt>
      <trkpt lat="46.83118" lon="-0.85834">
        <ele>212.7</ele>
        <time>2025-03-07T21:50:06.548Z</time>
      </trkpt>
      <trkpt lat="46.83127" lon="-0.85832">
        <ele>212.5</ele>
        <time>2025-03-07T21:50:07.709Z</time>
      </trkpt>
      <trkpt lat="46.83127" lon="-0.85846">
        <ele>212.2</ele>
        <time>2025-03-07T21:50:08.844Z</time>
      </trkpt>
      <trkpt lat="46.83124" lon="-0.85861">
        <ele>212.1</ele>
        <time>2025-03-07T21:50:10.364Z</time>
      </trkpt>
      <trkpt lat="46.83118" lon="-0.85885">
        <ele>212.3</ele>
        <time>2025-03-07T21:50:13.397Z</time>
      </trkpt>
      <trkpt lat="46.83117" lon="-0.85893">
        <ele>212.2</ele>
        <time>2025-03-07T21:50:14.130Z</time>
      </trkpt>
      <trkpt lat="46.83112" lon="-0.8592">
        <ele>211.8</ele>
        <time>2025-03-07T21:50:16.594Z</time>
      </trkpt>
      <trkpt lat="46.83107" lon="-0.85963">
        <ele>211.2</ele>
        <time>2025-03-07T21:50:20.460Z</time>
      </trkpt>
      <trkpt lat="46.83107" lon="-0.85967">
        <ele>211.2</ele>
        <time>2025-03-07T21:50:20.884Z</time>
      </trkpt>
      <trkpt lat="46.83107" lon="-0.85987">
        <ele>211.1</ele>
        <time>2025-03-07T21:50:22.865Z</time>
      </trkpt>
      <trkpt lat="46.83108" lon="-0.86017">
        <ele>211</ele>
        <time>2025-03-07T21:50:25.908Z</time>
      </trkpt>
      <trkpt lat="46.8311" lon="-0.86031">
        <ele>211</ele>
        <time>2025-03-07T21:50:27.424Z</time>
      </trkpt>
      <trkpt lat="46.83122" lon="-0.86075">
        <ele>210.2</ele>
        <time>2025-03-07T21:50:31.468Z</time>
      </trkpt>
      <trkpt lat="46.83129" lon="-0.86092">
        <ele>210.1</ele>
        <time>2025-03-07T21:50:33.433Z</time>
      </trkpt>
      <trkpt lat="46.8313" lon="-0.861">
        <ele>210.2</ele>
        <time>2025-03-07T21:50:34.466Z</time>
      </trkpt>
      <trkpt lat="46.83127" lon="-0.86115">
        <ele>210.5</ele>
        <time>2025-03-07T21:50:36.685Z</time>
      </trkpt>
      <trkpt lat="46.8312" lon="-0.86131">
        <ele>210.9</ele>
        <time>2025-03-07T21:50:39.467Z</time>
      </trkpt>
      <trkpt lat="46.83104" lon="-0.86169">
        <ele>210.7</ele>
        <time>2025-03-07T21:50:43.918Z</time>
        <extensions>
          <visugpx:TrkExtension xmlns:visugpx="https://www.visugpx.com/editgpx/">
            <visugpx:node>3</visugpx:node>
            </visugpx:TrkExtension>
        </extensions>
      </trkpt>
      <trkpt lat="46.83087" lon="-0.86208">
        <ele>210.1</ele>
        <time>2025-03-07T21:50:48.056Z</time>
      </trkpt>
      <trkpt lat="46.83073" lon="-0.86241">
        <ele>210.4</ele>
        <time>2025-03-07T21:50:52.658Z</time>
      </trkpt>
      <trkpt lat="46.83036" lon="-0.86324">
        <ele>211.8</ele>
        <time>2025-03-07T21:51:05.616Z</time>
      </trkpt>
      <trkpt lat="46.83028" lon="-0.8635">
        <ele>212.6</ele>
        <time>2025-03-07T21:51:10.330Z</time>
      </trkpt>
      <trkpt lat="46.83043" lon="-0.86354">
        <ele>212.7</ele>
        <time>2025-03-07T21:51:12.848Z</time>
      </trkpt>
      <trkpt lat="46.83184" lon="-0.86365">
        <ele>215.1</ele>
        <time>2025-03-07T21:51:38.805Z</time>
      </trkpt>
      <trkpt lat="46.8319" lon="-0.86369">
        <ele>215.3</ele>
        <time>2025-03-07T21:51:40.209Z</time>
      </trkpt>
      <trkpt lat="46.83189" lon="-0.86385">
        <ele>215.9</ele>
        <time>2025-03-07T21:51:43.361Z</time>
      </trkpt>
      <trkpt lat="46.83189" lon="-0.86393">
        <ele>216.1</ele>
        <time>2025-03-07T21:51:44.615Z</time>
      </trkpt>
      <trkpt lat="46.83191" lon="-0.86407">
        <ele>216.6</ele>
        <time>2025-03-07T21:51:47.297Z</time>
      </trkpt>
      <trkpt lat="46.83198" lon="-0.86437">
        <ele>218</ele>
        <time>2025-03-07T21:51:54.393Z</time>
      </trkpt>
      <trkpt lat="46.8321" lon="-0.86471">
        <ele>218.6</ele>
        <time>2025-03-07T21:51:59.522Z</time>
      </trkpt>
      <trkpt lat="46.83212" lon="-0.8648">
        <ele>218.7</ele>
        <time>2025-03-07T21:52:00.693Z</time>
      </trkpt>
      <trkpt lat="46.83211" lon="-0.86488">
        <ele>218.8</ele>
        <time>2025-03-07T21:52:01.726Z</time>
      </trkpt>
      <trkpt lat="46.83207" lon="-0.86499">
        <ele>219</ele>
        <time>2025-03-07T21:52:03.407Z</time>
      </trkpt>
      <trkpt lat="46.83201" lon="-0.86506">
        <ele>219.2</ele>
        <time>2025-03-07T21:52:04.964Z</time>
      </trkpt>
      <trkpt lat="46.83169" lon="-0.86533">
        <ele>220.2</ele>
        <time>2025-03-07T21:52:12.547Z</time>
      </trkpt>
      <trkpt lat="46.83149" lon="-0.86551">
        <ele>220.8</ele>
        <time>2025-03-07T21:52:17.285Z</time>
      </trkpt>
      <trkpt lat="46.83136" lon="-0.86566">
        <ele>221.3</ele>
        <time>2025-03-07T21:52:20.807Z</time>
      </trkpt>
      <trkpt lat="46.83129" lon="-0.86576">
        <ele>221.6</ele>
        <time>2025-03-07T21:52:22.899Z</time>
      </trkpt>
      <trkpt lat="46.83123" lon="-0.86589">
        <ele>222.2</ele>
        <time>2025-03-07T21:52:26.030Z</time>
      </trkpt>
      <trkpt lat="46.83114" lon="-0.86616">
        <ele>223.2</ele>
        <time>2025-03-07T21:52:31.491Z</time>
      </trkpt>
      <trkpt lat="46.83112" lon="-0.86626">
        <ele>223.5</ele>
        <time>2025-03-07T21:52:33.237Z</time>
      </trkpt>
      <trkpt lat="46.83111" lon="-0.86637">
        <ele>223.9</ele>
        <time>2025-03-07T21:52:35.361Z</time>
        <extensions>
          <visugpx:TrkExtension xmlns:visugpx="https://www.visugpx.com/editgpx/">
            <visugpx:node>4</visugpx:node>
            </visugpx:TrkExtension>
        </extensions>
      </trkpt>
      <trkpt lat="46.83111" lon="-0.8664">
        <ele>224</ele>
        <time>2025-03-07T21:52:35.907Z</time>
      </trkpt>
      <trkpt lat="46.83109" lon="-0.86652">
        <ele>224</ele>
        <time>2025-03-07T21:52:37.217Z</time>
      </trkpt>
      <trkpt lat="46.83105" lon="-0.86663">
        <ele>224</ele>
        <time>2025-03-07T21:52:38.537Z</time>
      </trkpt>
      <trkpt lat="46.831" lon="-0.86676">
        <ele>224.3</ele>
        <time>2025-03-07T21:52:40.688Z</time>
      </trkpt>
      <trkpt lat="46.83093" lon="-0.86692">
        <ele>224.9</ele>
        <time>2025-03-07T21:52:44.035Z</time>
      </trkpt>
      <trkpt lat="46.83073" lon="-0.86732">
        <ele>226.6</ele>
        <time>2025-03-07T21:52:53.216Z</time>
      </trkpt>
      <trkpt lat="46.83067" lon="-0.86748">
        <ele>227.3</ele>
        <time>2025-03-07T21:52:56.866Z</time>
      </trkpt>
      <trkpt lat="46.83064" lon="-0.86768">
        <ele>228</ele>
        <time>2025-03-07T21:53:00.651Z</time>
      </trkpt>
      <trkpt lat="46.83064" lon="-0.86818">
        <ele>230.4</ele>
        <time>2025-03-07T21:53:12.724Z</time>
      </trkpt>
      <trkpt lat="46.83063" lon="-0.86836">
        <ele>231.1</ele>
        <time>2025-03-07T21:53:16.364Z</time>
      </trkpt>
      <trkpt lat="46.83058" lon="-0.86874">
        <ele>232.9</ele>
        <time>2025-03-07T21:53:25.436Z</time>
      </trkpt>
      <trkpt lat="46.83054" lon="-0.86891">
        <ele>234</ele>
        <time>2025-03-07T21:53:31.070Z</time>
      </trkpt>
      <trkpt lat="46.83043" lon="-0.86939">
        <ele>236.2</ele>
        <time>2025-03-07T21:53:42.245Z</time>
      </trkpt>
      <trkpt lat="46.83028" lon="-0.86997">
        <ele>236.9</ele>
        <time>2025-03-07T21:53:50.003Z</time>
      </trkpt>
      <trkpt lat="46.83016" lon="-0.87045">
        <ele>239</ele>
        <time>2025-03-07T21:54:00.776Z</time>
      </trkpt>
      <trkpt lat="46.83009" lon="-0.87076">
        <ele>239.8</ele>
        <time>2025-03-07T21:54:05.848Z</time>
      </trkpt>
      <trkpt lat="46.83005" lon="-0.8709">
        <ele>239.5</ele>
        <time>2025-03-07T21:54:07.100Z</time>
      </trkpt>
      <trkpt lat="46.83005" lon="-0.87113">
        <ele>239.5</ele>
        <time>2025-03-07T21:54:09.539Z</time>
      </trkpt>
      <trkpt lat="46.83005" lon="-0.87187">
        <ele>239.4</ele>
        <time>2025-03-07T21:54:17.240Z</time>
      </trkpt>
      <trkpt lat="46.8301" lon="-0.87258">
        <ele>240</ele>
        <time>2025-03-07T21:54:25.786Z</time>
      </trkpt>
      <trkpt lat="46.83009" lon="-0.87272">
        <ele>240</ele>
        <time>2025-03-07T21:54:27.278Z</time>
      </trkpt>
      <trkpt lat="46.83006" lon="-0.87314">
        <ele>240.7</ele>
        <time>2025-03-07T21:54:33.022Z</time>
      </trkpt>
      <trkpt lat="46.82998" lon="-0.8736">
        <ele>240.2</ele>
        <time>2025-03-07T21:54:37.400Z</time>
      </trkpt>
      <trkpt lat="46.82977" lon="-0.87437">
        <ele>239.7</ele>
        <time>2025-03-07T21:54:45.501Z</time>
      </trkpt>
      <trkpt lat="46.82954" lon="-0.87507">
        <ele>239.8</ele>
        <time>2025-03-07T21:54:53.884Z</time>
      </trkpt>
      <trkpt lat="46.82945" lon="-0.87543">
        <ele>240.9</ele>
        <time>2025-03-07T21:55:00.295Z</time>
      </trkpt>
      <trkpt lat="46.82943" lon="-0.87563">
        <ele>241</ele>
        <time>2025-03-07T21:55:02.594Z</time>
      </trkpt>
      <trkpt lat="46.82942" lon="-0.87578">
        <ele>241</ele>
        <time>2025-03-07T21:55:04.192Z</time>
      </trkpt>
      <trkpt lat="46.82946" lon="-0.87611">
        <ele>240.8</ele>
        <time>2025-03-07T21:55:07.470Z</time>
      </trkpt>
      <trkpt lat="46.82956" lon="-0.87648">
        <ele>240.4</ele>
        <time>2025-03-07T21:55:11.162Z</time>
      </trkpt>
      <trkpt lat="46.82961" lon="-0.87666">
        <ele>240.2</ele>
        <time>2025-03-07T21:55:12.959Z</time>
      </trkpt>
      <trkpt lat="46.82967" lon="-0.87684">
        <ele>240.1</ele>
        <time>2025-03-07T21:55:14.943Z</time>
      </trkpt>
      <trkpt lat="46.82981" lon="-0.87712">
        <ele>240.6</ele>
        <time>2025-03-07T21:55:19.500Z</time>
      </trkpt>
      <trkpt lat="46.82992" lon="-0.87731">
        <ele>241.2</ele>
        <time>2025-03-07T21:55:23.340Z</time>
      </trkpt>
      <trkpt lat="46.83" lon="-0.87745">
        <ele>241.6</ele>
        <time>2025-03-07T21:55:26.051Z</time>
      </trkpt>
      <trkpt lat="46.83012" lon="-0.87773">
        <ele>242.4</ele>
        <time>2025-03-07T21:55:31.158Z</time>
      </trkpt>
      <trkpt lat="46.8302" lon="-0.87802">
        <ele>243.2</ele>
        <time>2025-03-07T21:55:36.108Z</time>
      </trkpt>
      <trkpt lat="46.83037" lon="-0.87874">
        <ele>245</ele>
        <time>2025-03-07T21:55:47.763Z</time>
      </trkpt>
      <trkpt lat="46.83046" lon="-0.87915">
        <ele>245.6</ele>
        <time>2025-03-07T21:55:53.377Z</time>
      </trkpt>
      <trkpt lat="46.83045" lon="-0.87945">
        <ele>246.9</ele>
        <time>2025-03-07T21:55:59.985Z</time>
      </trkpt>
      <trkpt lat="46.83041" lon="-0.87958">
        <ele>248.1</ele>
        <time>2025-03-07T21:56:06.269Z</time>
        <extensions>
          <visugpx:TrkExtension xmlns:visugpx="https://www.visugpx.com/editgpx/">
            <visugpx:node>5</visugpx:node>
            </visugpx:TrkExtension>
        </extensions>
      </trkpt>
      <trkpt lat="46.8303" lon="-0.88002">
        <ele>249.6</ele>
        <time>2025-03-07T21:56:14.590Z</time>
      </trkpt>
      <trkpt lat="46.83022" lon="-0.88039">
        <ele>249.2</ele>
        <time>2025-03-07T21:56:18.179Z</time>
      </trkpt>
      <trkpt lat="46.83022" lon="-0.88071">
        <ele>249.5</ele>
        <time>2025-03-07T21:56:22.067Z</time>
      </trkpt>
      <trkpt lat="46.83027" lon="-0.88118">
        <ele>251.3</ele>
        <time>2025-03-07T21:56:31.488Z</time>
      </trkpt>
      <trkpt lat="46.83028" lon="-0.88122">
        <ele>251.4</ele>
        <time>2025-03-07T21:56:32.138Z</time>
      </trkpt>
      <trkpt lat="46.83031" lon="-0.88154">
        <ele>252.9</ele>
        <time>2025-03-07T21:56:39.699Z</time>
      </trkpt>
      <trkpt lat="46.83031" lon="-0.88178">
        <ele>254.3</ele>
        <time>2025-03-07T21:56:46.814Z</time>
      </trkpt>
      <trkpt lat="46.8303" lon="-0.88196">
        <ele>255.4</ele>
        <time>2025-03-07T21:56:52.443Z</time>
      </trkpt>
      <trkpt lat="46.83021" lon="-0.88236">
        <ele>257.6</ele>
        <time>2025-03-07T21:57:03.507Z</time>
      </trkpt>
      <trkpt lat="46.83012" lon="-0.88252">
        <ele>258</ele>
        <time>2025-03-07T21:57:06.454Z</time>
      </trkpt>
      <trkpt lat="46.82987" lon="-0.88281">
        <ele>259.2</ele>
        <time>2025-03-07T21:57:13.856Z</time>
      </trkpt>
      <trkpt lat="46.8297" lon="-0.88301">
        <ele>259.8</ele>
        <time>2025-03-07T21:57:18.356Z</time>
      </trkpt>
      <trkpt lat="46.82933" lon="-0.88342">
        <ele>262.7</ele>
        <time>2025-03-07T21:57:33.127Z</time>
      </trkpt>
      <trkpt lat="46.82946" lon="-0.88364">
        <ele>263.2</ele>
        <time>2025-03-07T21:57:37.121Z</time>
      </trkpt>
      <trkpt lat="46.82967" lon="-0.8839">
        <ele>264.8</ele>
        <time>2025-03-07T21:57:45.388Z</time>
      </trkpt>
      <trkpt lat="46.82972" lon="-0.88394">
        <ele>265</ele>
        <time>2025-03-07T21:57:46.671Z</time>
      </trkpt>
      <trkpt lat="46.82993" lon="-0.88411">
        <ele>265.6</ele>
        <time>2025-03-07T21:57:51.485Z</time>
      </trkpt>
      <trkpt lat="46.83055" lon="-0.88436">
        <ele>264.3</ele>
        <time>2025-03-07T21:57:59.810Z</time>
      </trkpt>
      <trkpt lat="46.83114" lon="-0.88463">
        <ele>262</ele>
        <time>2025-03-07T21:58:06.814Z</time>
      </trkpt>
      <trkpt lat="46.83141" lon="-0.88479">
        <ele>260.5</ele>
        <time>2025-03-07T21:58:09.798Z</time>
      </trkpt>
      <trkpt lat="46.83185" lon="-0.88516">
        <ele>259.2</ele>
        <time>2025-03-07T21:58:16.086Z</time>
      </trkpt>
      <trkpt lat="46.83212" lon="-0.88545">
        <ele>259.1</ele>
        <time>2025-03-07T21:58:21.134Z</time>
      </trkpt>
      <trkpt lat="46.83223" lon="-0.88561">
        <ele>257.7</ele>
        <time>2025-03-07T21:58:22.577Z</time>
      </trkpt>
      <trkpt lat="46.83239" lon="-0.88593">
        <ele>257.4</ele>
        <time>2025-03-07T21:58:26.374Z</time>
      </trkpt>
      <trkpt lat="46.83252" lon="-0.88623">
        <ele>255.7</ele>
        <time>2025-03-07T21:58:28.633Z</time>
      </trkpt>
      <trkpt lat="46.83259" lon="-0.88647">
        <ele>254.9</ele>
        <time>2025-03-07T21:58:30.546Z</time>
      </trkpt>
      <trkpt lat="46.8329" lon="-0.8876">
        <ele>251.2</ele>
        <time>2025-03-07T21:58:39.502Z</time>
      </trkpt>
      <trkpt lat="46.83309" lon="-0.88829">
        <ele>249.3</ele>
        <time>2025-03-07T21:58:45.260Z</time>
      </trkpt>
      <trkpt lat="46.83328" lon="-0.88905">
        <ele>249.6</ele>
        <time>2025-03-07T21:58:54.300Z</time>
      </trkpt>
      <trkpt lat="46.8333" lon="-0.88912">
        <ele>249.8</ele>
        <time>2025-03-07T21:58:55.518Z</time>
      </trkpt>
      <trkpt lat="46.83355" lon="-0.89007">
        <ele>250.4</ele>
        <time>2025-03-07T21:59:07.258Z</time>
      </trkpt>
      <trkpt lat="46.83361" lon="-0.89039">
        <ele>249.6</ele>
        <time>2025-03-07T21:59:09.867Z</time>
      </trkpt>
      <trkpt lat="46.83365" lon="-0.89053">
        <ele>249.4</ele>
        <time>2025-03-07T21:59:11.221Z</time>
      </trkpt>
      <trkpt lat="46.83375" lon="-0.89095">
        <ele>249.3</ele>
        <time>2025-03-07T21:59:15.792Z</time>
      </trkpt>
      <trkpt lat="46.83386" lon="-0.8913">
        <ele>247.7</ele>
        <time>2025-03-07T21:59:18.334Z</time>
      </trkpt>
      <trkpt lat="46.83395" lon="-0.89156">
        <ele>246.5</ele>
        <time>2025-03-07T21:59:20.263Z</time>
      </trkpt>
      <trkpt lat="46.83401" lon="-0.89168">
        <ele>245.9</ele>
        <time>2025-03-07T21:59:21.255Z</time>
      </trkpt>
      <trkpt lat="46.83405" lon="-0.8917">
        <ele>245.8</ele>
        <time>2025-03-07T21:59:21.787Z</time>
      </trkpt>
      <trkpt lat="46.8341" lon="-0.89176">
        <ele>245.3</ele>
        <time>2025-03-07T21:59:22.388Z</time>
      </trkpt>
      <trkpt lat="46.83413" lon="-0.89183">
        <ele>244.8</ele>
        <time>2025-03-07T21:59:22.914Z</time>
      </trkpt>
      <trkpt lat="46.83414" lon="-0.8919">
        <ele>244.3</ele>
        <time>2025-03-07T21:59:23.369Z</time>
      </trkpt>
      <trkpt lat="46.83413" lon="-0.89196">
        <ele>243.9</ele>
        <time>2025-03-07T21:59:23.762Z</time>
      </trkpt>
      <trkpt lat="46.83411" lon="-0.89202">
        <ele>243.5</ele>
        <time>2025-03-07T21:59:24.186Z</time>
      </trkpt>
      <trkpt lat="46.83409" lon="-0.89221">
        <ele>242.4</ele>
        <time>2025-03-07T21:59:25.409Z</time>
      </trkpt>
      <trkpt lat="46.83414" lon="-0.89255">
        <ele>240.9</ele>
        <time>2025-03-07T21:59:27.671Z</time>
      </trkpt>
      <trkpt lat="46.83416" lon="-0.89264">
        <ele>240.5</ele>
        <time>2025-03-07T21:59:28.291Z</time>
      </trkpt>
      <trkpt lat="46.83435" lon="-0.89376">
        <ele>237.5</ele>
        <time>2025-03-07T21:59:37.181Z</time>
      </trkpt>
      <trkpt lat="46.83455" lon="-0.89537">
        <ele>238.5</ele>
        <time>2025-03-07T21:59:56.114Z</time>
      </trkpt>
      <trkpt lat="46.8347" lon="-0.89628">
        <ele>241.8</ele>
        <time>2025-03-07T22:00:13.768Z</time>
      </trkpt>
      <trkpt lat="46.8348" lon="-0.89714">
        <ele>242.9</ele>
        <time>2025-03-07T22:00:24.907Z</time>
        <extensions>
          <visugpx:TrkExtension xmlns:visugpx="https://www.visugpx.com/editgpx/">
            <visugpx:node>6</visugpx:node>
            </visugpx:TrkExtension>
        </extensions>
      </trkpt>
      <trkpt lat="46.83482" lon="-0.89729">
        <ele>243.1</ele>
        <time>2025-03-07T22:00:26.873Z</time>
      </trkpt>
      <trkpt lat="46.83482" lon="-0.89731">
        <ele>243.2</ele>
        <time>2025-03-07T22:00:27.375Z</time>
      </trkpt>
      <trkpt lat="46.83497" lon="-0.89849">
        <ele>242.3</ele>
        <time>2025-03-07T22:00:38.882Z</time>
      </trkpt>
      <trkpt lat="46.83519" lon="-0.90042">
        <ele>240.8</ele>
        <time>2025-03-07T22:00:57.600Z</time>
      </trkpt>
      <trkpt lat="46.8352" lon="-0.90052">
        <ele>241</ele>
        <time>2025-03-07T22:00:59.049Z</time>
      </trkpt>
      <trkpt lat="46.83522" lon="-0.90065">
        <ele>241</ele>
        <time>2025-03-07T22:01:00.461Z</time>
      </trkpt>
      <trkpt lat="46.83537" lon="-0.90207">
        <ele>241.5</ele>
        <time>2025-03-07T22:01:16.461Z</time>
      </trkpt>
      <trkpt lat="46.83537" lon="-0.90218">
        <ele>241.4</ele>
        <time>2025-03-07T22:01:17.495Z</time>
      </trkpt>
      <trkpt lat="46.8354" lon="-0.90254">
        <ele>241.4</ele>
        <time>2025-03-07T22:01:21.339Z</time>
      </trkpt>
      <trkpt lat="46.83545" lon="-0.90309">
        <ele>240.6</ele>
        <time>2025-03-07T22:01:26.218Z</time>
      </trkpt>
      <trkpt lat="46.83554" lon="-0.90402">
        <ele>238.4</ele>
        <time>2025-03-07T22:01:33.659Z</time>
      </trkpt>
      <trkpt lat="46.83566" lon="-0.90471">
        <ele>236.4</ele>
        <time>2025-03-07T22:01:39.023Z</time>
      </trkpt>
      <trkpt lat="46.83571" lon="-0.9049">
        <ele>236.6</ele>
        <time>2025-03-07T22:01:41.513Z</time>
      </trkpt>
      <trkpt lat="46.83578" lon="-0.90503">
        <ele>236.8</ele>
        <time>2025-03-07T22:01:43.609Z</time>
      </trkpt>
      <trkpt lat="46.83584" lon="-0.90507">
        <ele>237</ele>
        <time>2025-03-07T22:01:45.013Z</time>
      </trkpt>
      <trkpt lat="46.83586" lon="-0.90511">
        <ele>237.2</ele>
        <time>2025-03-07T22:01:46.043Z</time>
      </trkpt>
      <trkpt lat="46.83601" lon="-0.90532">
        <ele>237.5</ele>
        <time>2025-03-07T22:01:49.760Z</time>
      </trkpt>
      <trkpt lat="46.83606" lon="-0.90541">
        <ele>237.3</ele>
        <time>2025-03-07T22:01:50.745Z</time>
      </trkpt>
      <trkpt lat="46.83625" lon="-0.90566">
        <ele>238.1</ele>
        <time>2025-03-07T22:01:56.251Z</time>
      </trkpt>
      <trkpt lat="46.83641" lon="-0.90584">
        <ele>239.1</ele>
        <time>2025-03-07T22:02:01.676Z</time>
      </trkpt>
      <trkpt lat="46.8375" lon="-0.90689">
        <ele>243</ele>
        <time>2025-03-07T22:02:29.334Z</time>
      </trkpt>
      <trkpt lat="46.83803" lon="-0.90745">
        <ele>244.3</ele>
        <time>2025-03-07T22:02:41.732Z</time>
      </trkpt>
      <trkpt lat="46.83821" lon="-0.9077">
        <ele>244.7</ele>
        <time>2025-03-07T22:02:46.253Z</time>
      </trkpt>
      <trkpt lat="46.83837" lon="-0.90797">
        <ele>244.7</ele>
        <time>2025-03-07T22:02:50.040Z</time>
      </trkpt>
      <trkpt lat="46.83873" lon="-0.90879">
        <ele>244.6</ele>
        <time>2025-03-07T22:03:00.224Z</time>
      </trkpt>
      <trkpt lat="46.8389" lon="-0.90915">
        <ele>244.2</ele>
        <time>2025-03-07T22:03:04.329Z</time>
      </trkpt>
      <trkpt lat="46.8391" lon="-0.90947">
        <ele>243.3</ele>
        <time>2025-03-07T22:03:07.867Z</time>
      </trkpt>
      <trkpt lat="46.83957" lon="-0.91009">
        <ele>242.5</ele>
        <time>2025-03-07T22:03:16.609Z</time>
      </trkpt>
      <trkpt lat="46.83982" lon="-0.91053">
        <ele>241.3</ele>
        <time>2025-03-07T22:03:21.266Z</time>
      </trkpt>
      <trkpt lat="46.83991" lon="-0.91075">
        <ele>241.6</ele>
        <time>2025-03-07T22:03:24.494Z</time>
      </trkpt>
      <trkpt lat="46.83998" lon="-0.91096">
        <ele>243.4</ele>
        <time>2025-03-07T22:03:34.049Z</time>
      </trkpt>
      <trkpt lat="46.84007" lon="-0.9114">
        <ele>242.8</ele>
        <time>2025-03-07T22:03:38.154Z</time>
      </trkpt>
      <trkpt lat="46.84012" lon="-0.91192">
        <ele>246.3</ele>
        <time>2025-03-07T22:03:56.376Z</time>
      </trkpt>
      <trkpt lat="46.84014" lon="-0.91243">
        <ele>248.8</ele>
        <time>2025-03-07T22:04:08.943Z</time>
      </trkpt>
      <trkpt lat="46.8402" lon="-0.91321">
        <ele>251.8</ele>
        <time>2025-03-07T22:04:24.600Z</time>
      </trkpt>
      <trkpt lat="46.84024" lon="-0.91349">
        <ele>252.5</ele>
        <time>2025-03-07T22:04:29.041Z</time>
      </trkpt>
      <trkpt lat="46.84035" lon="-0.91387">
        <ele>255</ele>
        <time>2025-03-07T22:04:41.822Z</time>
      </trkpt>
      <trkpt lat="46.84048" lon="-0.91423">
        <ele>256.4</ele>
        <time>2025-03-07T22:04:49.377Z</time>
      </trkpt>
      <trkpt lat="46.84061" lon="-0.91452">
        <ele>256.6</ele>
        <time>2025-03-07T22:04:53.368Z</time>
      </trkpt>
      <trkpt lat="46.84078" lon="-0.91477">
        <ele>256.2</ele>
        <time>2025-03-07T22:04:56.586Z</time>
      </trkpt>
      <trkpt lat="46.84098" lon="-0.91503">
        <ele>255.4</ele>
        <time>2025-03-07T22:04:59.791Z</time>
      </trkpt>
      <trkpt lat="46.84128" lon="-0.91536">
        <ele>252.2</ele>
        <time>2025-03-07T22:05:03.282Z</time>
      </trkpt>
      <trkpt lat="46.8415" lon="-0.91568">
        <ele>249.4</ele>
        <time>2025-03-07T22:05:06.167Z</time>
      </trkpt>
      <trkpt lat="46.84183" lon="-0.9163">
        <ele>248</ele>
        <time>2025-03-07T22:05:12.800Z</time>
      </trkpt>
      <trkpt lat="46.84242" lon="-0.91752">
        <ele>240.9</ele>
        <time>2025-03-07T22:05:22.303Z</time>
      </trkpt>
      <trkpt lat="46.84261" lon="-0.91786">
        <ele>238.7</ele>
        <time>2025-03-07T22:05:25.095Z</time>
      </trkpt>
      <trkpt lat="46.84305" lon="-0.91854">
        <ele>236.5</ele>
        <time>2025-03-07T22:05:32.503Z</time>
      </trkpt>
      <trkpt lat="46.84348" lon="-0.91914">
        <ele>233.2</ele>
        <time>2025-03-07T22:05:38.432Z</time>
      </trkpt>
      <trkpt lat="46.8439" lon="-0.91982">
        <ele>230.1</ele>
        <time>2025-03-07T22:05:44.939Z</time>
      </trkpt>
      <trkpt lat="46.84426" lon="-0.92047">
        <ele>228.1</ele>
        <time>2025-03-07T22:05:51.528Z</time>
      </trkpt>
      <trkpt lat="46.8445" lon="-0.92097">
        <ele>227.5</ele>
        <time>2025-03-07T22:05:57.212Z</time>
      </trkpt>
      <trkpt lat="46.84461" lon="-0.92124">
        <ele>227</ele>
        <time>2025-03-07T22:05:59.925Z</time>
      </trkpt>
      <trkpt lat="46.84479" lon="-0.92174">
        <ele>226.2</ele>
        <time>2025-03-07T22:06:04.908Z</time>
      </trkpt>
      <trkpt lat="46.84526" lon="-0.92329">
        <ele>221.1</ele>
        <time>2025-03-07T22:06:17.416Z</time>
      </trkpt>
      <trkpt lat="46.84537" lon="-0.92361">
        <ele>219</ele>
        <time>2025-03-07T22:06:19.693Z</time>
      </trkpt>
      <trkpt lat="46.84539" lon="-0.92366">
        <ele>218.9</ele>
        <time>2025-03-07T22:06:20.186Z</time>
        <extensions>
          <visugpx:TrkExtension xmlns:visugpx="https://www.visugpx.com/editgpx/">
            <visugpx:node>7</visugpx:node>
            </visugpx:TrkExtension>
        </extensions>
      </trkpt>
      <trkpt lat="46.8456" lon="-0.92408">
        <ele>217.9</ele>
        <time>2025-03-07T22:06:24.507Z</time>
      </trkpt>
      <trkpt lat="46.84576" lon="-0.92433">
        <ele>216.7</ele>
        <time>2025-03-07T22:06:26.909Z</time>
      </trkpt>
      <trkpt lat="46.84597" lon="-0.9246">
        <ele>215.6</ele>
        <time>2025-03-07T22:06:30.028Z</time>
      </trkpt>
      <trkpt lat="46.84616" lon="-0.92481">
        <ele>214.2</ele>
        <time>2025-03-07T22:06:32.354Z</time>
      </trkpt>
      <trkpt lat="46.84635" lon="-0.92497">
        <ele>213.2</ele>
        <time>2025-03-07T22:06:34.692Z</time>
      </trkpt>
      <trkpt lat="46.84656" lon="-0.92512">
        <ele>211.4</ele>
        <time>2025-03-07T22:06:36.865Z</time>
      </trkpt>
      <trkpt lat="46.84713" lon="-0.92541">
        <ele>206.7</ele>
        <time>2025-03-07T22:06:42.477Z</time>
      </trkpt>
      <trkpt lat="46.84726" lon="-0.9255">
        <ele>205.7</ele>
        <time>2025-03-07T22:06:43.814Z</time>
      </trkpt>
      <trkpt lat="46.84753" lon="-0.92573">
        <ele>204.9</ele>
        <time>2025-03-07T22:06:47.685Z</time>
      </trkpt>
      <trkpt lat="46.84763" lon="-0.92587">
        <ele>204.3</ele>
        <time>2025-03-07T22:06:49.185Z</time>
      </trkpt>
      <trkpt lat="46.84773" lon="-0.92604">
        <ele>203.5</ele>
        <time>2025-03-07T22:06:50.749Z</time>
      </trkpt>
      <trkpt lat="46.84783" lon="-0.92625">
        <ele>202.3</ele>
        <time>2025-03-07T22:06:52.376Z</time>
      </trkpt>
      <trkpt lat="46.84817" lon="-0.92719">
        <ele>195.3</ele>
        <time>2025-03-07T22:06:59.138Z</time>
      </trkpt>
      <trkpt lat="46.84831" lon="-0.92749">
        <ele>192.3</ele>
        <time>2025-03-07T22:07:01.448Z</time>
      </trkpt>
      <trkpt lat="46.84847" lon="-0.9278">
        <ele>190.5</ele>
        <time>2025-03-07T22:07:03.918Z</time>
      </trkpt>
      <trkpt lat="46.84914" lon="-0.92888">
        <ele>182.8</ele>
        <time>2025-03-07T22:07:13.190Z</time>
      </trkpt>
      <trkpt lat="46.84972" lon="-0.92998">
        <ele>179.1</ele>
        <time>2025-03-07T22:07:23.813Z</time>
      </trkpt>
      <trkpt lat="46.84983" lon="-0.93023">
        <ele>178.2</ele>
        <time>2025-03-07T22:07:26.001Z</time>
      </trkpt>
      <trkpt lat="46.84999" lon="-0.93061">
        <ele>175.5</ele>
        <time>2025-03-07T22:07:28.839Z</time>
      </trkpt>
      <trkpt lat="46.8503" lon="-0.93153">
        <ele>171.5</ele>
        <time>2025-03-07T22:07:35.766Z</time>
      </trkpt>
      <trkpt lat="46.85035" lon="-0.9317">
        <ele>170.8</ele>
        <time>2025-03-07T22:07:37.030Z</time>
      </trkpt>
      <trkpt lat="46.85043" lon="-0.932">
        <ele>168.6</ele>
        <time>2025-03-07T22:07:39.078Z</time>
      </trkpt>
      <trkpt lat="46.85058" lon="-0.93256">
        <ele>166.2</ele>
        <time>2025-03-07T22:07:43.106Z</time>
      </trkpt>
      <trkpt lat="46.85085" lon="-0.93368">
        <ele>163.7</ele>
        <time>2025-03-07T22:07:52.764Z</time>
      </trkpt>
      <trkpt lat="46.85124" lon="-0.93566">
        <ele>160.8</ele>
        <time>2025-03-07T22:08:10.950Z</time>
      </trkpt>
      <trkpt lat="46.8516" lon="-0.93781">
        <ele>155.1</ele>
        <time>2025-03-07T22:08:28.041Z</time>
      </trkpt>
      <trkpt lat="46.85175" lon="-0.93895">
        <ele>150.1</ele>
        <time>2025-03-07T22:08:35.593Z</time>
      </trkpt>
      <trkpt lat="46.8518" lon="-0.93972">
        <ele>147.5</ele>
        <time>2025-03-07T22:08:41.097Z</time>
      </trkpt>
      <trkpt lat="46.85181" lon="-0.94015">
        <ele>147.5</ele>
        <time>2025-03-07T22:08:45.657Z</time>
      </trkpt>
      <trkpt lat="46.85182" lon="-0.94023">
        <ele>147.6</ele>
        <time>2025-03-07T22:08:46.690Z</time>
      </trkpt>
      <trkpt lat="46.85181" lon="-0.94151">
        <ele>145.8</ele>
        <time>2025-03-07T22:08:57.990Z</time>
      </trkpt>
      <trkpt lat="46.85174" lon="-0.94279">
        <ele>142</ele>
        <time>2025-03-07T22:09:07.509Z</time>
      </trkpt>
      <trkpt lat="46.85165" lon="-0.94356">
        <ele>139.2</ele>
        <time>2025-03-07T22:09:12.947Z</time>
      </trkpt>
      <trkpt lat="46.85155" lon="-0.94423">
        <ele>137.1</ele>
        <time>2025-03-07T22:09:17.977Z</time>
      </trkpt>
      <trkpt lat="46.85153" lon="-0.94435">
        <ele>136.7</ele>
        <time>2025-03-07T22:09:18.867Z</time>
      </trkpt>
      <trkpt lat="46.85125" lon="-0.94584">
        <ele>134</ele>
        <time>2025-03-07T22:09:31.963Z</time>
      </trkpt>
      <trkpt lat="46.851" lon="-0.94678">
        <ele>132</ele>
        <time>2025-03-07T22:09:40.281Z</time>
      </trkpt>
      <trkpt lat="46.8508" lon="-0.94748">
        <ele>130.9</ele>
        <time>2025-03-07T22:09:46.942Z</time>
      </trkpt>
      <trkpt lat="46.85071" lon="-0.94787">
        <ele>130</ele>
        <time>2025-03-07T22:09:50.259Z</time>
      </trkpt>
      <trkpt lat="46.85058" lon="-0.94861">
        <ele>128.1</ele>
        <time>2025-03-07T22:09:56.215Z</time>
      </trkpt>
      <trkpt lat="46.85048" lon="-0.94955">
        <ele>126.6</ele>
        <time>2025-03-07T22:10:04.442Z</time>
      </trkpt>
      <trkpt lat="46.85045" lon="-0.95008">
        <ele>125.3</ele>
        <time>2025-03-07T22:10:08.607Z</time>
      </trkpt>
      <trkpt lat="46.85045" lon="-0.95044">
        <ele>124.4</ele>
        <time>2025-03-07T22:10:11.409Z</time>
      </trkpt>
      <trkpt lat="46.85046" lon="-0.95081">
        <ele>123.7</ele>
        <time>2025-03-07T22:10:14.496Z</time>
      </trkpt>
      <trkpt lat="46.85049" lon="-0.95117">
        <ele>123.5</ele>
        <time>2025-03-07T22:10:18.063Z</time>
      </trkpt>
      <trkpt lat="46.85055" lon="-0.95155">
        <ele>124</ele>
        <time>2025-03-07T22:10:23.058Z</time>
      </trkpt>
      <trkpt lat="46.85062" lon="-0.9519">
        <ele>123.8</ele>
        <time>2025-03-07T22:10:26.646Z</time>
      </trkpt>
      <trkpt lat="46.85071" lon="-0.95222">
        <ele>123</ele>
        <time>2025-03-07T22:10:29.396Z</time>
      </trkpt>
      <trkpt lat="46.85077" lon="-0.95242">
        <ele>123</ele>
        <time>2025-03-07T22:10:31.711Z</time>
      </trkpt>
      <trkpt lat="46.85104" lon="-0.95322">
        <ele>122.3</ele>
        <time>2025-03-07T22:10:40.222Z</time>
      </trkpt>
      <trkpt lat="46.85117" lon="-0.95354">
        <ele>121.6</ele>
        <time>2025-03-07T22:10:43.328Z</time>
      </trkpt>
      <trkpt lat="46.85132" lon="-0.95387">
        <ele>120</ele>
        <time>2025-03-07T22:10:45.970Z</time>
      </trkpt>
      <trkpt lat="46.85166" lon="-0.95452">
        <ele>116.8</ele>
        <time>2025-03-07T22:10:51.492Z</time>
      </trkpt>
      <trkpt lat="46.85238" lon="-0.95565">
        <ele>109.5</ele>
        <time>2025-03-07T22:11:01.313Z</time>
      </trkpt>
      <trkpt lat="46.85256" lon="-0.95587">
        <ele>107.9</ele>
        <time>2025-03-07T22:11:03.494Z</time>
      </trkpt>
      <trkpt lat="46.85289" lon="-0.95625">
        <ele>105.7</ele>
        <time>2025-03-07T22:11:07.771Z</time>
      </trkpt>
      <trkpt lat="46.8534" lon="-0.95675">
        <ele>103.6</ele>
        <time>2025-03-07T22:11:14.884Z</time>
      </trkpt>
      <trkpt lat="46.8542" lon="-0.95758">
        <ele>106</ele>
        <time>2025-03-07T22:11:34.438Z</time>
      </trkpt>
      <trkpt lat="46.85456" lon="-0.95801">
        <ele>108</ele>
        <time>2025-03-07T22:11:45.953Z</time>
      </trkpt>
      <trkpt lat="46.85504" lon="-0.95869">
        <ele>110.1</ele>
        <time>2025-03-07T22:12:00.367Z</time>
      </trkpt>
      <trkpt lat="46.85522" lon="-0.95898">
        <ele>110.8</ele>
        <time>2025-03-07T22:12:05.806Z</time>
      </trkpt>
      <trkpt lat="46.85594" lon="-0.96019">
        <ele>110.6</ele>
        <time>2025-03-07T22:12:22.513Z</time>
      </trkpt>
      <trkpt lat="46.85664" lon="-0.96144">
        <ele>112.9</ele>
        <time>2025-03-07T22:12:43.673Z</time>
      </trkpt>
      <trkpt lat="46.85759" lon="-0.9631">
        <ele>120.6</ele>
        <time>2025-03-07T22:13:24.736Z</time>
      </trkpt>
      <trkpt lat="46.8578" lon="-0.96349">
        <ele>122.6</ele>
        <time>2025-03-07T22:13:35.038Z</time>
      </trkpt>
      <trkpt lat="46.858" lon="-0.96383">
        <ele>124.6</ele>
        <time>2025-03-07T22:13:45.161Z</time>
      </trkpt>
      <trkpt lat="46.85869" lon="-0.96506">
        <ele>131.9</ele>
        <time>2025-03-07T22:14:21.997Z</time>
      </trkpt>
      <trkpt lat="46.85882" lon="-0.9653">
        <ele>132.8</ele>
        <time>2025-03-07T22:14:27.181Z</time>
      </trkpt>
      <trkpt lat="46.86023" lon="-0.96775">
        <ele>138.8</ele>
        <time>2025-03-07T22:15:12.287Z</time>
      </trkpt>
      <trkpt lat="46.86029" lon="-0.96787">
        <ele>138.6</ele>
        <time>2025-03-07T22:15:13.609Z</time>
      </trkpt>
      <trkpt lat="46.86183" lon="-0.9706">
        <ele>140</ele>
        <time>2025-03-07T22:15:53.273Z</time>
      </trkpt>
      <trkpt lat="46.86221" lon="-0.97131">
        <ele>140.3</ele>
        <time>2025-03-07T22:16:03.287Z</time>
      </trkpt>
      <trkpt lat="46.86237" lon="-0.97153">
        <ele>140.5</ele>
        <time>2025-03-07T22:16:07.008Z</time>
      </trkpt>
      <trkpt lat="46.86248" lon="-0.97162">
        <ele>140.9</ele>
        <time>2025-03-07T22:16:09.736Z</time>
      </trkpt>
      <trkpt lat="46.86256" lon="-0.97161">
        <ele>141</ele>
        <time>2025-03-07T22:16:11.144Z</time>
      </trkpt>
      <trkpt lat="46.86266" lon="-0.97167">
        <ele>141</ele>
        <time>2025-03-07T22:16:12.819Z</time>
      </trkpt>
      <trkpt lat="46.8627" lon="-0.97171">
        <ele>141</ele>
        <time>2025-03-07T22:16:13.569Z</time>
      </trkpt>
      <trkpt lat="46.86275" lon="-0.97179">
        <ele>141</ele>
        <time>2025-03-07T22:16:14.718Z</time>
      </trkpt>
      <trkpt lat="46.86279" lon="-0.97192">
        <ele>141</ele>
        <time>2025-03-07T22:16:16.228Z</time>
      </trkpt>
      <trkpt lat="46.86279" lon="-0.97206">
        <ele>140.5</ele>
        <time>2025-03-07T22:16:17.204Z</time>
      </trkpt>
      <trkpt lat="46.86277" lon="-0.97214">
        <ele>140.3</ele>
        <time>2025-03-07T22:16:17.878Z</time>
      </trkpt>
      <trkpt lat="46.86281" lon="-0.97233">
        <ele>139.4</ele>
        <time>2025-03-07T22:16:19.146Z</time>
      </trkpt>
      <trkpt lat="46.863" lon="-0.97267">
        <ele>138.6</ele>
        <time>2025-03-07T22:16:22.834Z</time>
      </trkpt>
      <trkpt lat="46.86383" lon="-0.97412">
        <ele>139.5</ele>
        <time>2025-03-07T22:16:44.275Z</time>
        <extensions>
          <visugpx:TrkExtension xmlns:visugpx="https://www.visugpx.com/editgpx/">
            <visugpx:node>8</visugpx:node>
            </visugpx:TrkExtension>
        </extensions>
      </trkpt>
      <trkpt lat="46.864" lon="-0.97441">
        <ele>140.8</ele>
        <time>2025-03-07T22:16:51.315Z</time>
      </trkpt>
      <trkpt lat="46.86432" lon="-0.97497">
        <ele>142.6</ele>
        <time>2025-03-07T22:17:02.680Z</time>
      </trkpt>
      <trkpt lat="46.86457" lon="-0.97539">
        <ele>144.5</ele>
        <time>2025-03-07T22:17:12.960Z</time>
      </trkpt>
      <trkpt lat="46.86481" lon="-0.97584">
        <ele>146.3</ele>
        <time>2025-03-07T22:17:23.006Z</time>
      </trkpt>
      <trkpt lat="46.865" lon="-0.97628">
        <ele>148</ele>
        <time>2025-03-07T22:17:32.358Z</time>
      </trkpt>
      <trkpt lat="46.86519" lon="-0.97674">
        <ele>150.1</ele>
        <time>2025-03-07T22:17:43.254Z</time>
      </trkpt>
      <trkpt lat="46.86546" lon="-0.97747">
        <ele>152.2</ele>
        <time>2025-03-07T22:17:56.322Z</time>
      </trkpt>
      <trkpt lat="46.86562" lon="-0.97795">
        <ele>152.9</ele>
        <time>2025-03-07T22:18:03.191Z</time>
      </trkpt>
      <trkpt lat="46.86575" lon="-0.97843">
        <ele>153.5</ele>
        <time>2025-03-07T22:18:09.680Z</time>
      </trkpt>
      <trkpt lat="46.86602" lon="-0.97959">
        <ele>153.7</ele>
        <time>2025-03-07T22:18:22.964Z</time>
      </trkpt>
      <trkpt lat="46.86621" lon="-0.98078">
        <ele>151.3</ele>
        <time>2025-03-07T22:18:33.061Z</time>
      </trkpt>
      <trkpt lat="46.86627" lon="-0.98134">
        <ele>149.9</ele>
        <time>2025-03-07T22:18:37.486Z</time>
      </trkpt>
      <trkpt lat="46.86629" lon="-0.98159">
        <ele>149.2</ele>
        <time>2025-03-07T22:18:39.386Z</time>
      </trkpt>
      <trkpt lat="46.86632" lon="-0.9823">
        <ele>145.8</ele>
        <time>2025-03-07T22:18:43.909Z</time>
      </trkpt>
      <trkpt lat="46.86634" lon="-0.98433">
        <ele>141.5</ele>
        <time>2025-03-07T22:19:00.391Z</time>
      </trkpt>
      <trkpt lat="46.86634" lon="-0.98452">
        <ele>141.6</ele>
        <time>2025-03-07T22:19:02.561Z</time>
      </trkpt>
      <trkpt lat="46.86634" lon="-0.98473">
        <ele>141.7</ele>
        <time>2025-03-07T22:19:04.942Z</time>
      </trkpt>
      <trkpt lat="46.86635" lon="-0.98532">
        <ele>141</ele>
        <time>2025-03-07T22:19:10.292Z</time>
      </trkpt>
      <trkpt lat="46.86651" lon="-0.98656">
        <ele>137.7</ele>
        <time>2025-03-07T22:19:19.990Z</time>
      </trkpt>
      <trkpt lat="46.86664" lon="-0.98741">
        <ele>137.1</ele>
        <time>2025-03-07T22:19:28.401Z</time>
      </trkpt>
      <trkpt lat="46.86676" lon="-0.98827">
        <ele>134.5</ele>
        <time>2025-03-07T22:19:34.904Z</time>
      </trkpt>
      <trkpt lat="46.86678" lon="-0.98853">
        <ele>133.5</ele>
        <time>2025-03-07T22:19:36.683Z</time>
      </trkpt>
      <trkpt lat="46.86686" lon="-0.98893">
        <ele>132.6</ele>
        <time>2025-03-07T22:19:40.051Z</time>
      </trkpt>
      <trkpt lat="46.8671" lon="-0.99051">
        <ele>126.4</ele>
        <time>2025-03-07T22:19:51.050Z</time>
      </trkpt>
      <trkpt lat="46.86713" lon="-0.99073">
        <ele>126.2</ele>
        <time>2025-03-07T22:19:53.161Z</time>
      </trkpt>
      <trkpt lat="46.86715" lon="-0.99086">
        <ele>126.3</ele>
        <time>2025-03-07T22:19:54.734Z</time>
      </trkpt>
      <trkpt lat="46.86723" lon="-0.99141">
        <ele>127</ele>
        <time>2025-03-07T22:20:01.893Z</time>
      </trkpt>
      <trkpt lat="46.86725" lon="-0.99155">
        <ele>127.3</ele>
        <time>2025-03-07T22:20:03.984Z</time>
      </trkpt>
      <trkpt lat="46.8673" lon="-0.99182">
        <ele>127.2</ele>
        <time>2025-03-07T22:20:06.806Z</time>
      </trkpt>
      <trkpt lat="46.86736" lon="-0.99219">
        <ele>127.4</ele>
        <time>2025-03-07T22:20:11.149Z</time>
      </trkpt>
      <trkpt lat="46.86749" lon="-0.99304">
        <ele>127.1</ele>
        <time>2025-03-07T22:20:19.953Z</time>
      </trkpt>
      <trkpt lat="46.86752" lon="-0.99335">
        <ele>126.8</ele>
        <time>2025-03-07T22:20:22.873Z</time>
      </trkpt>
      <trkpt lat="46.86755" lon="-0.99359">
        <ele>126.5</ele>
        <time>2025-03-07T22:20:25.073Z</time>
      </trkpt>
      <trkpt lat="46.86794" lon="-0.99621">
        <ele>125.2</ele>
        <time>2025-03-07T22:20:51.671Z</time>
      </trkpt>
      <trkpt lat="46.86804" lon="-0.99692">
        <ele>124.3</ele>
        <time>2025-03-07T22:20:58.198Z</time>
      </trkpt>
      <trkpt lat="46.8683" lon="-0.99868">
        <ele>121.6</ele>
        <time>2025-03-07T22:21:13.909Z</time>
      </trkpt>
      <trkpt lat="46.86831" lon="-0.9992">
        <ele>121.4</ele>
        <time>2025-03-07T22:21:19.138Z</time>
      </trkpt>
      <trkpt lat="46.86837" lon="-0.99923">
        <ele>120.7</ele>
        <time>2025-03-07T22:21:19.728Z</time>
      </trkpt>
      <trkpt lat="46.8684" lon="-0.9993">
        <ele>120.5</ele>
        <time>2025-03-07T22:21:20.376Z</time>
      </trkpt>
      <trkpt lat="46.86838" lon="-0.99942">
        <ele>120.7</ele>
        <time>2025-03-07T22:21:22.045Z</time>
      </trkpt>
      <trkpt lat="46.86834" lon="-0.99946">
        <ele>120.9</ele>
        <time>2025-03-07T22:21:23.220Z</time>
      </trkpt>
      <trkpt lat="46.86848" lon="-0.99996">
        <ele>119.9</ele>
        <time>2025-03-07T22:21:27.742Z</time>
      </trkpt>
      <trkpt lat="46.86894" lon="-1.00304">
        <ele>115.3</ele>
        <time>2025-03-07T22:21:55.384Z</time>
      </trkpt>
      <trkpt lat="46.86906" lon="-1.0038">
        <ele>114.2</ele>
        <time>2025-03-07T22:22:02.263Z</time>
      </trkpt>
      <trkpt lat="46.86919" lon="-1.00481">
        <ele>111.8</ele>
        <time>2025-03-07T22:22:10.406Z</time>
      </trkpt>
      <trkpt lat="46.86937" lon="-1.00598">
        <ele>110.5</ele>
        <time>2025-03-07T22:22:21.417Z</time>
      </trkpt>
      <trkpt lat="46.86946" lon="-1.00656">
        <ele>108.9</ele>
        <time>2025-03-07T22:22:25.951Z</time>
      </trkpt>
      <trkpt lat="46.86937" lon="-1.00659">
        <ele>109.4</ele>
        <time>2025-03-07T22:22:28.583Z</time>
      </trkpt>
      <trkpt lat="46.86928" lon="-1.00658">
        <ele>110</ele>
        <time>2025-03-07T22:22:31.614Z</time>
      </trkpt>
      <trkpt lat="46.869" lon="-1.0065">
        <ele>111.1</ele>
        <time>2025-03-07T22:22:38.307Z</time>
      </trkpt>
      <trkpt lat="46.86854" lon="-1.00633">
        <ele>111.2</ele>
        <time>2025-03-07T22:22:45.809Z</time>
      </trkpt>
      <trkpt lat="46.86845" lon="-1.00632">
        <ele>111.2</ele>
        <time>2025-03-07T22:22:47.208Z</time>
      </trkpt>
      <trkpt lat="46.86837" lon="-1.00634">
        <ele>111.2</ele>
        <time>2025-03-07T22:22:48.466Z</time>
      </trkpt>
      <trkpt lat="46.86766" lon="-1.00655">
        <ele>110</ele>
        <time>2025-03-07T22:22:58.135Z</time>
      </trkpt>
      <trkpt lat="46.86724" lon="-1.00668">
        <ele>110</ele>
        <time>2025-03-07T22:23:04.788Z</time>
      </trkpt>
      <trkpt lat="46.86716" lon="-1.00673">
        <ele>110</ele>
        <time>2025-03-07T22:23:06.136Z</time>
      </trkpt>
      <trkpt lat="46.86714" lon="-1.00668">
        <ele>110</ele>
        <time>2025-03-07T22:23:06.750Z</time>
      </trkpt>
      <trkpt lat="46.86704" lon="-1.00658">
        <ele>110</ele>
        <time>2025-03-07T22:23:08.627Z</time>
      </trkpt>
      <trkpt lat="46.86685" lon="-1.00653">
        <ele>110.3</ele>
        <time>2025-03-07T22:23:12.122Z</time>
      </trkpt>
      <trkpt lat="46.86645" lon="-1.00642">
        <ele>111.1</ele>
        <time>2025-03-07T22:23:19.819Z</time>
        <extensions>
          <visugpx:TrkExtension xmlns:visugpx="https://www.visugpx.com/editgpx/">
            <visugpx:node>9</visugpx:node>
            </visugpx:TrkExtension>
        </extensions>
      </trkpt>
      <trkpt lat="46.86608" lon="-1.00631">
        <ele>112.2</ele>
        <time>2025-03-07T22:23:27.751Z</time>
      </trkpt>
      <trkpt lat="46.8659" lon="-1.00625">
        <ele>113.1</ele>
        <time>2025-03-07T22:23:32.664Z</time>
      </trkpt>
      <trkpt lat="46.86569" lon="-1.00612">
        <ele>114.1</ele>
        <time>2025-03-07T22:23:38.371Z</time>
      </trkpt>
      <trkpt lat="46.86555" lon="-1.00602">
        <ele>114.7</ele>
        <time>2025-03-07T22:23:42.024Z</time>
      </trkpt>
      <trkpt lat="46.86535" lon="-1.00588">
        <ele>114.4</ele>
        <time>2025-03-07T22:23:45.062Z</time>
      </trkpt>
      <trkpt lat="46.8652" lon="-1.00578">
        <ele>114.9</ele>
        <time>2025-03-07T22:23:48.573Z</time>
      </trkpt>
      <trkpt lat="46.86496" lon="-1.00567">
        <ele>117.2</ele>
        <time>2025-03-07T22:24:00.400Z</time>
      </trkpt>
      <trkpt lat="46.8647" lon="-1.00561">
        <ele>117.3</ele>
        <time>2025-03-07T22:24:04.631Z</time>
      </trkpt>
      <trkpt lat="46.86453" lon="-1.00561">
        <ele>117.9</ele>
        <time>2025-03-07T22:24:08.467Z</time>
      </trkpt>
      <trkpt lat="46.86422" lon="-1.00563">
        <ele>119.1</ele>
        <time>2025-03-07T22:24:15.757Z</time>
      </trkpt>
      <trkpt lat="46.86396" lon="-1.00556">
        <ele>119</ele>
        <time>2025-03-07T22:24:19.711Z</time>
      </trkpt>
      <trkpt lat="46.86388" lon="-1.00558">
        <ele>119.1</ele>
        <time>2025-03-07T22:24:21.132Z</time>
      </trkpt>
      <trkpt lat="46.86382" lon="-1.00563">
        <ele>119.2</ele>
        <time>2025-03-07T22:24:22.368Z</time>
      </trkpt>
      <trkpt lat="46.86368" lon="-1.0058">
        <ele>119.2</ele>
        <time>2025-03-07T22:24:25.188Z</time>
      </trkpt>
      <trkpt lat="46.86364" lon="-1.00584">
        <ele>119.1</ele>
        <time>2025-03-07T22:24:25.813Z</time>
      </trkpt>
    </trkseg>
  </trk>
</gpx>